[[{"header":{"parameterUnit":"m.s-1","parameterCategory":1,"la1":31.0,"la2":29.5877,"lo1":-88.7671,"lo2":-86.6584,"dy":0.0162,"dx":0.0185,"nx":115,"ny":88,"refTime":"2024-07-18T06:00:00:Z","depth":0,"parameterNumber":2,"parameterNumberName":"U-component_of_WINDS"},"data":[0.0,0.0,0.0,0.0,0.0,0.0,0.0,0.0,0.0,0.0,0.0,0.0,0.0,0.0,0.0,0.0,0.0,0.0,0.0,0.0,0.0,0.0,0.0,0.0,0.0,0.0,0.0,0.0,0.0,0.0,0.0,0.0,0.0,0.0,0.0,0.0,0.0,0.0,0.0,0.0,0.0,0.0,0.0,0.0,0.0,0.0,0.0,0.0,0.0,0.0,0.0,0.0,0.0,0.0,0.0,0.0,0.0,0.0,0.0,0.0,0.0,0.0,0.0,0.0,0.0,0.0,0.0,0.0,0.0,0.0,0.0,0.0,0.0,0.0,0.0,0.0,0.0,0.0,0.0,0.0,0.0,0.0,0.0,0.0,0.0,0.0,0.0,0.0,0.0,0.0,0.0,0.0,0.0,0.0,0.0,0.0,0.0,0.0,0.0,0.0,0.0,0.0,0.0,0.0,0.0,0.0,0.0,0.0,0.0,0.0,0.0,0.0,0.0,0.0,0.0,0.0,0.0,0.0,0.0,0.0,0.0,0.0,0.0,0.0,0.0,0.0,0.0,0.0,0.0,0.0,0.0,0.0,0.0,0.0,0.0,0.0,0.0,0.0,0.0,0.0,0.0,0.0,0.0,0.0,0.0,0.0,0.0,0.0,0.0,0.0,0.0,0.0,0.0,0.0,0.0,0.0,0.0,0.0,0.0,0.0,0.0,0.0,0.0,0.0,0.0,0.0,0.0,0.0,0.0,0.0,0.0,0.0,0.0,0.0,0.0,0.0,0.0,0.0,0.0,0.0,0.0,0.0,0.0,0.0,0.0,0.0,0.0,0.0,0.0,0.0,0.0,0.0,0.0,0.0,0.0,0.0,0.0,0.0,0.0,0.0,0.0,0.0,0.0,0.0,0.0,0.0,0.0,0.0,0.0,0.0,0.0,0.0,0.0,0.0,0.0,0.0,0.0,0.0,0.0,0.0,0.0,0.0,0.0,0.0,0.0,0.0,0.0,0.0,0.0,0.0,0.0,0.0,0.0,0.0,0.0,0.0,0.0,0.0,0.0,0.0,0.0,0.0,0.0,0.0,0.0,0.0,0.0,0.0,0.0,0.0,0.0,0.0,0.0,0.0,0.0,0.0,0.0,0.0,0.0,0.0,0.0,0.0,0.0,0.0,0.0,0.0,0.0,0.0,0.0,0.0,0.0,0.0,0.0,0.0,0.0,0.0,0.0,0.0,0.0,0.0,0.0,0.0,0.0,0.0,0.0,0.0,0.0,0.0,0.0,0.0,0.0,0.0,0.0,0.0,0.0,0.0,0.0,0.0,0.0,0.0,0.0,0.0,0.0,0.0,0.0,0.0,0.0,0.0,0.0,0.0,0.0,0.0,0.0,0.0,0.0,0.0,0.0,0.0,0.0,0.0,0.0,0.0,0.0,0.0,0.0,0.0,0.0,0.0,0.0,0.0,0.0,0.0,0.0,0.0,0.0,0.0,0.0,0.0,0.0,0.0,0.0,0.0,0.0,0.0,0.0,0.0,0.0,0.0,0.0,0.0,0.0,0.0,0.0,0.0,0.0,0.0,0.0,0.0,0.0,0.0,0.0,0.0,0.0,0.0,0.0,0.0,0.0,0.0,0.0,0.0,0.0,0.0,0.0,0.0,0.0,0.0,0.0,0.0,0.0,0.0,0.0,0.0,0.0,0.0,0.0,0.0,0.0,0.0,0.0,0.0,0.0,0.0,0.0,0.0,0.0,0.0,0.0,0.0,0.0,0.0,0.0,0.0,0.0,0.0,0.0,0.0,0.0,0.0,0.0,0.0,0.0,0.0,0.0,0.0,0.0,0.0,0.0,0.0,0.0,0.0,0.0,0.0,0.0,0.0,0.0,0.0,0.0,0.0,0.0,0.0,0.0,0.0,0.0,0.0,0.0,0.0,0.0,0.0,0.0,0.0,0.0,0.0,0.0,0.0,0.0,0.0,0.0,0.0,0.0,0.0,0.0,0.0,0.0,0.0,0.0,0.0,0.0,0.0,0.0,0.0,0.0,0.0,0.0,0.0,0.0,0.0,0.0,0.0,0.0,0.0,0.0,0.0,0.0,0.0,0.0,0.0,0.0,0.0,0.0,0.0,0.0,0.0,0.0,0.0,0.0,0.0,0.0,0.0,0.0,0.0,0.0,0.0,0.0,0.0,0.0,0.0,0.0,0.0,0.0,0.0,0.0,0.0,0.0,0.0,0.0,0.0,0.0,0.0,0.0,0.0,0.0,0.0,0.0,0.0,0.0,0.0,0.0,0.0,0.0,0.0,0.0,0.0,0.0,0.0,0.0,0.0,0.0,0.0,0.0,0.0,0.0,0.0,0.0,0.0,0.0,0.0,0.0,0.0,0.0,0.0,0.0,0.0,0.0,0.0,0.0,0.0,0.0,0.0,0.0,0.0,0.0,0.0,0.0,0.0,0.0,0.0,0.0,0.0,0.0,0.0,0.0,0.0,0.0,0.0,0.0,0.0,0.0,0.0,0.0,0.0,0.0,0.0,0.0,0.0,0.0,0.0,0.0,0.0,0.0,0.0,0.0,0.0,0.0,0.0,0.0,0.0,0.0,0.0,0.0,0.0,0.0,0.0,0.0,0.0,0.0,0.0,0.0,0.0,0.0,0.0,0.0,0.0,0.0,0.0,0.0,0.0,0.0,0.0,0.0,0.0,0.0,0.0,0.0,0.0,0.0,0.0,0.0,0.0,0.0,0.0,0.0,0.0,0.0,0.0,0.0,0.0,0.0,0.0,0.0,0.0,0.0,0.0,0.0,0.0,0.0,0.0,0.0,0.0,0.0,0.0,0.0,0.0,0.0,0.0,0.0,0.0,0.0,0.0,0.0,0.0,0.0,0.0,0.0,0.0,0.0,0.0,0.0,0.0,0.0,0.0,0.0,0.0,0.0,0.0,0.0,0.0,0.0,0.0,0.0,0.0,0.0,0.0,0.0,0.0,0.0,0.0,0.0,0.0,0.0,0.0,0.0,0.0,0.0,0.0,0.0,0.0,0.0,0.0,0.0,0.0,0.0,0.0,0.0,0.0,0.0,0.0,0.0,0.0,0.0,0.0,0.0,0.0,0.0,0.0,0.0,0.0,0.0,0.0,0.0,0.0,0.0,0.0,0.0,0.0,0.0,0.0,0.0,0.0,0.0,0.0,0.0,0.0,0.0,0.0,0.0,0.0,0.0,0.0,0.0,0.0,0.0,0.0,0.0,0.0,0.0,0.0,0.0,0.0,0.0,0.0,0.0,0.0,0.0,0.0,0.0,0.0,0.0,0.0,0.0,0.0,0.0,0.0,0.0,0.0,0.0,0.0,0.0,0.0,0.0,0.0,0.0,0.0,0.0,0.0,0.0,0.0,0.0,0.0,0.0,0.0,0.0,0.0,0.0,0.0,0.0,0.0,0.0,0.0,0.0,0.0,0.0,0.0,0.0,0.0,0.0,0.0,0.0,0.0,0.0,0.0,0.0,0.0,0.0,0.0,0.0,0.0,0.0,0.0,0.0,0.0,0.0,0.0,0.0,0.0,0.0,0.0,0.0,0.0,0.0,0.0,0.0,0.0,0.0,0.0,0.0,0.0,0.0,0.0,0.0,0.0,0.0,0.0,0.0,0.0,0.0,0.0,0.0,0.0,0.0,0.0,0.0,0.0,0.0,0.0,0.0,0.0,0.0,0.0,0.0,0.0,0.0,0.0,0.0,0.0,0.0,0.0,0.0,0.0,0.0,0.0,0.0,0.0,0.0,0.0,0.0,0.0,0.0,0.0,0.0,0.0,0.0,0.0,0.0,0.0,0.0,0.0,0.0,0.0,0.0,0.0,0.0,0.0,0.0,0.0,0.0,0.0,0.0,0.0,0.0,0.0,0.0,0.0,0.0,0.0,0.0,0.0,0.0,0.0,0.0,0.0,0.0,0.0,0.0,0.0,0.0,0.0,0.0,0.0,0.0,0.0,0.0,0.0,0.0,0.0,0.0,0.0,0.0,0.0,0.0,0.0,0.0,0.0,0.0,0.0,0.0,0.0,0.0,0.0,0.0,0.0,0.0,0.0,0.0,0.0,0.0,0.0,0.0,0.0,0.0,0.0,0.0,0.0,0.0,0.0,0.0,0.0,0.0,0.0,0.0,0.0,0.0,0.0,0.0,0.0,0.0,0.0,0.0,0.0,0.0,0.0,0.0,0.0,0.0,0.0,0.0,0.0,0.0,0.0,0.0,0.0,0.0,0.0,0.0,0.0,0.0,0.0,-1.0065,0.0,0.0,0.0,0.0,0.0,0.0,0.0,0.0,0.0,0.0,0.0,0.0,0.0,0.0,0.0,0.0,0.0,0.0,0.0,0.0,0.0,0.0,0.0,0.0,0.0,0.0,0.0,0.0,0.0,0.0,0.0,0.0,0.0,0.0,0.0,0.0,0.0,0.0,0.0,0.0,0.0,0.0,0.0,0.0,0.0,0.0,0.0,0.0,0.0,0.0,0.0,0.0,0.0,0.0,0.0,0.0,0.0,0.0,0.0,0.0,0.0,0.0,0.0,0.0,0.0,0.0,0.0,0.0,0.0,0.0,0.0,0.0,0.0,0.0,0.0,0.0,0.0,0.0,0.0,0.0,0.0,0.0,0.0,0.0,0.0,0.0,0.0,0.0,0.0,0.0,0.0,0.0,0.0,0.0,0.0,0.0,0.0,0.0,0.0,0.0,0.0,0.0,0.0,0.0,0.0,0.0,0.0,0.0,0.0,0.0,-1.0027,-1.0038,-1.0008,-1.0041,-1.0092,0.0,0.0,0.0,0.0,0.0,0.0,0.0,0.0,0.0,0.0,0.0,0.0,0.0,0.0,0.0,0.0,0.0,0.0,0.0,0.0,0.0,0.0,0.0,0.0,0.0,0.0,0.0,0.0,0.0,0.0,0.0,0.0,0.0,0.0,0.0,0.0,0.0,0.0,0.0,0.0,0.0,0.0,0.0,0.0,0.0,0.0,0.0,0.0,0.0,0.0,0.0,0.0,0.0,0.0,0.0,0.0,0.0,0.0,0.0,0.0,0.0,0.0,0.0,0.0,0.0,0.0,0.0,0.0,0.0,0.0,0.0,0.0,0.0,0.0,0.0,0.0,0.0,0.0,0.0,0.0,0.0,0.0,0.0,0.0,0.0,0.0,0.0,0.0,0.0,0.0,0.0,0.0,0.0,0.0,0.0,0.0,0.0,0.0,0.0,0.0,0.0,0.0,0.0,0.0,0.0,0.0,0.0,0.0,0.0,0.0,0.0,0.0,-1.0786,-1.0692,-1.0673,0.0,0.0,0.0,0.0,0.0,0.0,0.0,0.0,0.0,0.0,0.0,0.0,0.0,0.0,0.0,0.0,0.0,0.0,0.0,0.0,0.0,0.0,0.0,0.0,0.0,0.0,0.0,0.0,0.0,0.0,0.0,0.0,0.0,0.0,0.0,0.0,0.0,0.0,0.0,0.0,0.0,0.0,0.0,0.0,0.0,0.0,0.0,0.0,0.0,0.0,0.0,0.0,0.0,0.0,0.0,0.0,0.0,0.0,0.0,0.0,0.0,0.0,0.0,0.0,0.0,0.0,0.0,0.0,0.0,0.0,0.0,0.0,0.0,0.0,0.0,0.0,0.0,0.0,0.0,0.0,0.0,0.0,0.0,0.0,0.0,0.0,0.0,0.0,0.0,0.0,0.0,0.0,0.0,0.0,0.0,0.0,0.0,0.0,0.0,0.0,0.0,0.0,0.0,0.0,0.0,0.0,0.0,0.0,0.0,0.0,-1.1207,-1.3456,-1.2832,0.0,-1.2449,0.0,0.0,0.0,0.0,0.0,0.0,0.0,0.0,0.0,0.0,0.0,0.0,0.0,0.0,0.0,0.0,0.0,0.0,0.0,0.0,0.0,0.0,0.0,0.0,0.0,0.0,0.0,0.0,0.0,0.0,0.0,0.0,0.0,0.0,0.0,0.0,0.0,0.0,0.0,0.0,0.0,0.0,0.0,0.0,0.0,0.0,0.0,0.0,0.0,0.0,0.0,0.0,0.0,0.0,0.0,0.0,0.0,0.0,0.0,0.0,0.0,0.0,0.0,0.0,0.0,0.0,0.0,0.0,0.0,0.0,0.0,0.0,0.0,0.0,0.0,0.0,0.0,0.0,0.0,0.0,0.0,0.0,0.0,0.0,0.0,0.0,0.0,0.0,0.0,0.0,0.0,0.0,0.0,0.0,0.0,0.0,0.0,0.0,0.0,0.0,0.0,0.0,0.0,0.0,0.0,0.0,0.0,0.0,0.0,0.0,0.0,-1.3176,-1.287,-1.2702,0.0,0.0,0.0,0.0,0.0,0.0,0.0,0.0,0.0,0.0,0.0,0.0,0.0,0.0,0.0,0.0,0.0,0.0,0.0,0.0,0.0,0.0,0.0,0.0,0.0,0.0,0.0,0.0,0.0,0.0,0.0,0.0,0.0,0.0,0.0,0.0,0.0,0.0,0.0,0.0,0.0,0.0,0.0,0.0,0.0,0.0,0.0,0.0,0.0,0.0,0.0,0.0,0.0,0.0,0.0,0.0,0.0,0.0,0.0,0.0,0.0,0.0,0.0,0.0,0.0,0.0,0.0,0.0,0.0,0.0,0.0,0.0,0.0,0.0,0.0,0.0,0.0,0.0,0.0,0.0,0.0,0.0,0.0,0.0,0.0,0.0,0.0,0.0,0.0,0.0,0.0,0.0,0.0,0.0,0.0,0.0,0.0,0.0,0.0,0.0,0.0,0.0,0.0,0.0,0.0,0.0,0.0,0.0,0.0,0.0,-1.3345,0.0,-1.3741,-1.3508,-1.3178,-1.2721,0.0,0.0,0.0,0.0,0.0,0.0,0.0,0.0,0.0,0.0,0.0,0.0,0.0,0.0,0.0,0.0,0.0,0.0,0.0,0.0,0.0,0.0,0.0,0.0,0.0,0.0,0.0,0.0,0.0,0.0,0.0,0.0,0.0,0.0,0.0,0.0,0.0,0.0,0.0,0.0,0.0,0.0,0.0,0.0,0.0,0.0,0.0,0.0,0.0,0.0,0.0,0.0,0.0,0.0,0.0,0.0,0.0,0.0,0.0,0.0,0.0,0.0,0.0,0.0,0.0,0.0,0.0,0.0,0.0,0.0,0.0,0.0,0.0,0.0,0.0,0.0,0.0,0.0,0.0,0.0,0.0,0.0,0.0,0.0,0.0,0.0,0.0,0.0,0.0,0.0,0.0,0.0,0.0,0.0,0.0,0.0,0.0,0.0,0.0,0.0,0.0,0.0,0.0,0.0,0.0,0.0,0.0,0.0,0.0,-1.513,-1.4746,-1.6221,-1.5519,-1.433,0.0,0.0,0.0,0.0,0.0,0.0,0.0,0.0,0.0,0.0,0.0,0.0,0.0,0.0,0.0,0.0,0.0,0.0,0.0,0.0,0.0,0.0,0.0,0.0,0.0,0.0,0.0,0.0,0.0,0.0,0.0,0.0,0.0,0.0,0.0,0.0,0.0,0.0,0.0,0.0,0.0,0.0,0.0,0.0,0.0,0.0,0.0,0.0,0.0,0.0,0.0,0.0,0.0,0.0,0.0,0.0,0.0,0.0,0.0,0.0,0.0,0.0,0.0,0.0,0.0,0.0,0.0,0.0,0.0,0.0,0.0,0.0,0.0,0.0,0.0,0.0,0.0,0.0,0.0,0.0,0.0,0.0,0.0,0.0,0.0,0.0,0.0,0.0,0.0,0.0,0.0,0.0,0.0,0.0,0.0,0.0,0.0,0.0,0.0,0.0,0.0,0.0,0.0,0.0,0.0,0.0,0.0,0.0,0.0,-1.2821,-1.3073,-1.4751,0.0,-1.5195,-1.3812,0.0,0.0,0.0,0.0,0.0,0.0,0.0,0.0,0.0,0.0,0.0,0.0,0.0,0.0,0.0,0.0,0.0,0.0,0.0,0.0,0.0,0.0,0.0,0.0,0.0,0.0,0.0,0.0,0.0,0.0,0.0,0.0,0.0,0.0,0.0,0.0,0.0,0.0,0.0,0.0,0.0,0.0,0.0,0.0,0.0,0.0,0.0,0.0,0.0,0.0,0.0,0.0,0.0,0.0,0.0,0.0,0.0,0.0,0.0,0.0,0.0,0.0,0.0,0.0,0.0,0.0,0.0,0.0,0.0,0.0,0.0,0.0,0.0,0.0,0.0,0.0,0.0,0.0,0.0,0.0,0.0,0.0,0.0,0.0,0.0,0.0,0.0,0.0,0.0,0.0,0.0,0.0,0.0,0.0,0.0,0.0,0.0,0.0,0.0,0.0,0.0,0.0,0.0,0.0,0.0,0.0,0.0,0.0,0.0,-1.2659,0.0,-1.6305,0.0,-1.5332,-1.3555,0.0,0.0,0.0,0.0,0.0,0.0,0.0,0.0,0.0,0.0,0.0,0.0,0.0,0.0,0.0,0.0,0.0,0.0,0.0,0.0,0.0,0.0,0.0,0.0,0.0,0.0,0.0,0.0,0.0,0.0,0.0,0.0,0.0,0.0,0.0,0.0,0.0,0.0,0.0,0.0,0.0,0.0,0.0,0.0,0.0,0.0,0.0,0.0,0.0,0.0,0.0,0.0,0.0,0.0,0.0,0.0,0.0,0.0,0.0,0.0,0.0,0.0,0.0,0.0,0.0,0.0,0.0,0.0,0.0,0.0,0.0,0.0,0.0,0.0,0.0,0.0,0.0,0.0,0.0,0.0,0.0,0.0,0.0,0.0,0.0,0.0,0.0,0.0,0.0,0.0,0.0,0.0,0.0,0.0,0.0,0.0,0.0,0.0,0.0,0.0,0.0,0.0,0.0,0.0,0.0,0.0,0.0,0.0,-1.2807,-1.7545,-1.9204,-1.9241,-1.7971,-1.6128,-1.3679,0.0,0.0,0.0,0.0,0.0,0.0,0.0,0.0,0.0,0.0,0.0,0.0,0.0,0.0,0.0,0.0,0.0,0.0,0.0,0.0,0.0,0.0,0.0,0.0,0.0,0.0,0.0,0.0,0.0,0.0,0.0,0.0,0.0,0.0,0.0,0.0,0.0,0.0,0.0,0.0,0.0,0.0,0.0,0.0,0.0,0.0,0.0,0.0,0.0,0.0,0.0,0.0,0.0,0.0,0.0,0.0,0.0,0.0,0.0,0.0,0.0,0.0,0.0,0.0,0.0,0.0,0.0,0.0,0.0,0.0,0.0,0.0,0.0,0.0,0.0,0.0,0.0,0.0,0.0,0.0,0.0,0.0,0.0,0.0,0.0,0.0,0.0,0.0,0.0,0.0,0.0,0.0,0.0,0.0,0.0,0.0,0.0,0.0,0.0,0.0,0.0,0.0,0.0,0.0,0.0,0.0,0.0,0.0,0.0,-1.5289,-1.69,-1.835,-1.9426,-1.5687,-1.3891,0.0,0.0,0.0,0.0,0.0,0.0,0.0,0.0,0.0,0.0,0.0,0.0,0.0,0.0,0.0,0.0,0.0,0.0,0.0,0.0,0.0,0.0,0.0,0.0,0.0,0.0,0.0,0.0,0.0,0.0,0.0,0.0,0.0,0.0,0.0,0.0,0.0,0.0,0.0,0.0,0.0,0.0,0.0,0.0,0.0,0.0,0.0,0.0,0.0,0.0,0.0,0.0,0.0,0.0,0.0,0.0,0.0,0.0,0.0,0.0,0.0,0.0,0.0,0.0,0.0,0.0,0.0,0.0,0.0,0.0,0.0,0.0,0.0,0.0,0.0,0.0,0.0,0.0,0.0,0.0,0.0,0.0,0.0,0.0,0.0,0.0,0.0,0.0,0.0,0.0,0.0,0.0,0.0,0.0,0.0,0.0,0.0,0.0,0.0,0.0,0.0,0.0,0.0,0.0,0.0,0.0,0.0,0.0,0.0,-1.7598,-1.9423,-2.0748,-2.1406,-1.7691,-1.5502,-1.5057,0.0,0.0,0.0,0.0,0.0,0.0,0.0,0.0,0.0,0.0,0.0,0.0,0.0,0.0,0.0,0.0,0.0,0.0,0.0,0.0,0.0,0.0,0.0,0.0,0.0,0.0,0.0,0.0,0.0,0.0,0.0,0.0,0.0,0.0,0.0,0.0,0.0,0.0,0.0,0.0,0.0,0.0,0.0,0.0,0.0,0.0,0.0,0.0,0.0,0.0,0.0,0.0,0.0,0.0,0.0,0.0,0.0,0.0,0.0,0.0,0.0,0.0,0.0,0.0,0.0,0.0,0.0,0.0,0.0,0.0,0.0,0.0,0.0,0.0,0.0,0.0,0.0,0.0,0.0,0.0,0.0,0.0,0.0,0.0,0.0,0.0,0.0,0.0,0.0,0.0,0.0,0.0,0.0,0.0,0.0,0.0,0.0,0.0,0.0,0.0,0.0,0.0,0.0,0.0,0.0,0.0,0.0,0.0,-2.3379,-2.5987,-2.6111,-2.363,-2.1637,-1.8337,0.0,0.0,0.0,0.0,0.0,0.0,0.0,0.0,0.0,0.0,0.0,0.0,0.0,0.0,0.0,0.0,0.0,0.0,0.0,0.0,0.0,0.0,0.0,0.0,0.0,0.0,0.0,0.0,0.0,0.0,0.0,0.0,0.0,0.0,0.0,0.0,0.0,0.0,0.0,0.0,0.0,0.0,0.0,0.0,0.0,0.0,0.0,0.0,0.0,0.0,0.0,0.0,0.0,0.0,0.0,0.0,0.0,0.0,0.0,0.0,0.0,0.0,0.0,0.0,0.0,0.0,0.0,0.0,0.0,0.0,0.0,0.0,0.0,0.0,0.0,0.0,0.0,0.0,0.0,0.0,0.0,0.0,0.0,0.0,0.0,0.0,0.0,0.0,0.0,0.0,0.0,0.0,0.0,0.0,0.0,0.0,0.0,0.0,0.0,0.0,0.0,0.0,0.0,0.0,0.0,0.0,0.0,0.0,0.0,-2.6016,-3.037,-3.1374,-2.8651,-2.3993,-2.0514,0.0,0.0,0.0,0.0,0.0,0.0,0.0,0.0,0.0,0.0,0.0,0.0,0.0,0.0,0.0,0.0,0.0,0.0,0.0,0.0,0.0,0.0,0.0,0.0,0.0,0.0,0.0,0.0,0.0,0.0,0.0,0.0,0.0,0.0,0.0,0.0,0.0,0.0,0.0,0.0,0.0,0.0,0.0,0.0,0.0,0.0,0.0,0.0,0.0,0.0,0.0,0.0,0.0,0.0,0.0,0.0,0.0,0.0,0.0,0.0,0.0,0.0,0.0,0.0,0.0,0.0,0.0,0.0,0.0,0.0,0.0,0.0,0.0,0.0,0.0,0.0,0.0,0.0,0.0,0.0,0.0,0.0,0.0,0.0,0.0,0.0,0.0,0.0,0.0,0.0,0.0,0.0,0.0,0.0,0.0,0.0,0.0,0.0,0.0,0.0,0.0,0.0,0.0,0.0,0.0,0.0,0.0,0.0,-2.4805,-2.8594,-3.332,-3.4988,-3.332,-2.794,-2.3545,0.0,0.0,0.0,0.0,0.0,0.0,0.0,0.0,0.0,0.0,0.0,0.0,0.0,0.0,0.0,0.0,0.0,0.0,0.0,0.0,0.0,0.0,0.0,0.0,0.0,0.0,0.0,0.0,0.0,0.0,0.0,0.0,0.0,0.0,0.0,0.0,0.0,0.0,0.0,0.0,0.0,0.0,0.0,0.0,0.0,0.0,0.0,0.0,0.0,0.0,0.0,0.0,0.0,0.0,0.0,0.0,0.0,0.0,0.0,0.0,0.0,0.0,0.0,0.0,0.0,0.0,0.0,0.0,0.0,0.0,0.0,0.0,0.0,0.0,0.0,0.0,0.0,0.0,0.0,0.0,0.0,0.0,0.0,0.0,0.0,0.0,0.0,0.0,0.0,0.0,0.0,0.0,0.0,0.0,0.0,0.0,0.0,0.0,0.0,0.0,0.0,0.0,0.0,0.0,0.0,0.0,0.0,0.0,-2.6875,-3.1094,-3.5351,-3.7487,-3.7144,-3.2313,-2.6869,0.0,0.0,0.0,0.0,0.0,0.0,0.0,0.0,0.0,0.0,0.0,0.0,0.0,0.0,0.0,0.0,0.0,0.0,0.0,0.0,0.0,0.0,0.0,0.0,0.0,0.0,0.0,0.0,0.0,0.0,0.0,0.0,0.0,0.0,0.0,0.0,0.0,0.0,0.0,0.0,0.0,0.0,0.0,0.0,0.0,0.0,0.0,0.0,0.0,0.0,0.0,0.0,0.0,0.0,0.0,0.0,0.0,0.0,0.0,0.0,0.0,0.0,0.0,0.0,0.0,0.0,0.0,0.0,0.0,0.0,0.0,0.0,0.0,0.0,0.0,0.0,0.0,0.0,0.0,0.0,0.0,0.0,0.0,0.0,0.0,0.0,0.0,0.0,0.0,0.0,0.0,0.0,0.0,0.0,0.0,0.0,0.0,0.0,0.0,0.0,0.0,0.0,0.0,0.0,0.0,0.0,0.0,0.0,-2.9238,-3.2812,-3.7109,-3.9244,-3.9029,-3.3503,-2.8289,0.0,0.0,0.0,0.0,0.0,0.0,0.0,0.0,0.0,0.0,0.0,0.0,0.0,0.0,0.0,0.0,0.0,0.0,0.0,0.0,0.0,0.0,0.0,0.0,0.0,0.0,0.0,0.0,0.0,0.0,0.0,0.0,0.0,0.0,0.0,0.0,0.0,0.0,0.0,0.0,0.0,0.0,0.0,0.0,0.0,0.0,0.0,0.0,-1.3401,0.0,0.0,0.0,0.0,0.0,0.0,0.0,0.0,0.0,0.0,0.0,0.0,0.0,0.0,0.0,0.0,0.0,0.0,0.0,0.0,0.0,0.0,0.0,0.0,0.0,0.0,0.0,0.0,0.0,0.0,0.0,0.0,0.0,0.0,0.0,0.0,0.0,0.0,0.0,0.0,0.0,0.0,0.0,0.0,0.0,0.0,0.0,0.0,0.0,0.0,0.0,0.0,0.0,0.0,0.0,0.0,0.0,0.0,0.0,-3.0762,-3.4551,-3.8086,-3.9615,-3.8884,-3.5178,-3.0699,0.0,0.0,0.0,0.0,0.0,0.0,0.0,0.0,0.0,0.0,0.0,0.0,0.0,0.0,0.0,0.0,0.0,0.0,0.0,0.0,0.0,0.0,0.0,0.0,0.0,0.0,0.0,0.0,0.0,0.0,0.0,0.0,0.0,0.0,0.0,0.0,0.0,0.0,0.0,0.0,0.0,0.0,0.0,0.0,0.0,0.0,0.0,0.0,0.0,0.0,0.0,0.0,0.0,0.0,0.0,0.0,0.0,0.0,0.0,0.0,0.0,0.0,0.0,0.0,0.0,0.0,0.0,0.0,0.0,0.0,0.0,0.0,0.0,0.0,0.0,0.0,0.0,0.0,0.0,0.0,0.0,0.0,0.0,0.0,0.0,0.0,0.0,0.0,0.0,0.0,0.0,0.0,0.0,0.0,0.0,0.0,0.0,0.0,0.0,0.0,0.0,0.0,0.0,0.0,0.0,0.0,0.0,-2.6914,-3.1816,-3.625,-3.8828,-3.9597,-3.851,-3.6745,-3.2941,-2.693,0.0,0.0,0.0,0.0,0.0,0.0,0.0,0.0,0.0,0.0,0.0,0.0,0.0,0.0,0.0,0.0,0.0,0.0,0.0,0.0,0.0,0.0,0.0,0.0,0.0,0.0,0.0,0.0,0.0,0.0,0.0,0.0,0.0,0.0,0.0,0.0,0.0,0.0,-1.0732,-1.2609,0.0,0.0,0.0,0.0,0.0,0.0,0.0,0.0,-1.5297,0.0,0.0,0.0,0.0,0.0,0.0,0.0,0.0,0.0,0.0,0.0,0.0,0.0,0.0,0.0,0.0,0.0,0.0,0.0,0.0,0.0,0.0,0.0,0.0,0.0,0.0,0.0,0.0,0.0,0.0,0.0,0.0,0.0,0.0,0.0,0.0,0.0,0.0,0.0,0.0,0.0,0.0,0.0,0.0,0.0,0.0,0.0,0.0,0.0,0.0,0.0,0.0,0.0,0.0,0.0,0.0,-2.6828,-2.871,-3.2383,-3.8027,-4.0019,-4.0474,-3.9399,-3.7053,-3.2941,-2.6953,0.0,0.0,0.0,0.0,0.0,0.0,0.0,0.0,0.0,0.0,0.0,0.0,0.0,0.0,0.0,0.0,0.0,0.0,0.0,0.0,0.0,0.0,0.0,0.0,0.0,0.0,0.0,0.0,0.0,0.0,0.0,0.0,0.0,0.0,0.0,0.0,0.0,0.0,0.0,-1.5543,-1.6668,0.0,0.0,0.0,0.0,0.0,0.0,0.0,0.0,-1.6956,0.0,0.0,0.0,0.0,0.0,0.0,0.0,0.0,0.0,0.0,0.0,0.0,0.0,0.0,0.0,0.0,0.0,0.0,0.0,0.0,0.0,0.0,0.0,0.0,0.0,0.0,0.0,0.0,0.0,0.0,0.0,0.0,0.0,0.0,0.0,0.0,0.0,0.0,0.0,0.0,0.0,0.0,0.0,0.0,0.0,0.0,0.0,0.0,0.0,0.0,0.0,0.0,0.0,0.0,0.0,-2.6079,-3.1073,-3.5215,-3.8516,-4.0723,-4.0885,-3.8935,-3.603,-3.1782,0.0,0.0,0.0,0.0,0.0,0.0,0.0,0.0,0.0,0.0,0.0,0.0,0.0,0.0,0.0,0.0,0.0,0.0,0.0,0.0,0.0,0.0,0.0,0.0,0.0,0.0,0.0,0.0,0.0,0.0,0.0,0.0,0.0,0.0,0.0,0.0,0.0,0.0,0.0,0.0,-1.7944,-1.9311,-2.2297,0.0,0.0,0.0,0.0,0.0,0.0,-1.959,-1.8529,0.0,0.0,0.0,0.0,0.0,0.0,0.0,0.0,0.0,0.0,0.0,0.0,0.0,0.0,0.0,0.0,0.0,0.0,0.0,0.0,0.0,0.0,0.0,0.0,0.0,0.0,0.0,0.0,0.0,0.0,0.0,0.0,0.0,0.0,0.0,0.0,0.0,0.0,0.0,0.0,0.0,0.0,0.0,0.0,0.0,0.0,0.0,0.0,0.0,0.0,0.0,0.0,0.0,0.0,0.0,-2.4702,-3.2439,-3.7187,-3.8613,-4.0937,-4.0928,-3.836,-3.5015,-3.0747,0.0,0.0,0.0,0.0,0.0,0.0,0.0,0.0,0.0,0.0,0.0,0.0,0.0,0.0,0.0,0.0,0.0,0.0,0.0,0.0,0.0,0.0,0.0,0.0,0.0,0.0,0.0,0.0,0.0,0.0,0.0,0.0,0.0,0.0,0.0,0.0,0.0,0.0,0.0,0.0,0.0,-2.2199,-2.5061,-2.3925,0.0,0.0,0.0,0.0,-2.2247,-2.1884,0.0,0.0,0.0,0.0,0.0,0.0,0.0,0.0,0.0,0.0,0.0,0.0,0.0,0.0,0.0,0.0,0.0,0.0,0.0,0.0,0.0,0.0,0.0,0.0,0.0,0.0,0.0,0.0,0.0,0.0,0.0,0.0,0.0,0.0,0.0,0.0,0.0,0.0,0.0,0.0,0.0,0.0,0.0,0.0,0.0,0.0,0.0,0.0,0.0,0.0,0.0,0.0,0.0,0.0,0.0,0.0,-2.5439,-3.0973,-3.541,-3.8496,-4.0391,-4.0386,-3.8399,-3.5017,-3.081,0.0,0.0,0.0,0.0,0.0,0.0,0.0,0.0,0.0,0.0,0.0,0.0,0.0,0.0,0.0,0.0,0.0,0.0,0.0,0.0,0.0,0.0,0.0,0.0,0.0,0.0,0.0,0.0,0.0,0.0,0.0,0.0,0.0,0.0,0.0,0.0,0.0,0.0,0.0,0.0,0.0,-2.4974,-2.6028,-2.4687,-2.3535,0.0,0.0,-2.5829,-2.6772,-2.7478,0.0,0.0,0.0,0.0,0.0,0.0,0.0,0.0,0.0,0.0,0.0,0.0,0.0,0.0,0.0,0.0,0.0,0.0,0.0,0.0,0.0,0.0,0.0,0.0,0.0,0.0,0.0,0.0,0.0,0.0,0.0,0.0,0.0,0.0,0.0,0.0,0.0,0.0,0.0,0.0,0.0,0.0,0.0,0.0,0.0,0.0,0.0,0.0,0.0,0.0,0.0,0.0,0.0,0.0,0.0,-2.2422,-2.5784,-3.3201,-3.7578,-3.8613,-4.0742,-4.0758,-3.8465,-3.4149,-2.9887,0.0,0.0,0.0,0.0,0.0,0.0,0.0,0.0,0.0,0.0,0.0,0.0,0.0,0.0,0.0,0.0,0.0,0.0,0.0,0.0,0.0,0.0,0.0,0.0,0.0,0.0,0.0,0.0,0.0,0.0,0.0,0.0,0.0,0.0,0.0,0.0,0.0,0.0,0.0,0.0,0.0,0.0,-2.7875,-2.7346,0.0,0.0,0.0,-2.7312,-2.6282,0.0,0.0,0.0,0.0,0.0,0.0,0.0,0.0,0.0,0.0,0.0,0.0,0.0,0.0,0.0,0.0,0.0,0.0,0.0,0.0,0.0,0.0,0.0,0.0,0.0,0.0,0.0,0.0,0.0,0.0,0.0,0.0,0.0,0.0,0.0,0.0,0.0,0.0,0.0,0.0,0.0,0.0,0.0,0.0,0.0,0.0,0.0,0.0,0.0,0.0,0.0,0.0,0.0,0.0,0.0,0.0,0.0,-2.583,-3.4843,-3.9258,-3.8691,-4.0879,-4.0935,-3.8459,-3.4304,0.0,0.0,0.0,0.0,0.0,0.0,0.0,0.0,0.0,0.0,0.0,0.0,0.0,0.0,0.0,0.0,0.0,0.0,0.0,0.0,0.0,0.0,0.0,0.0,0.0,0.0,0.0,-0.8805,0.0,0.0,0.0,0.0,0.0,0.0,0.0,0.0,0.0,0.0,0.0,0.0,0.0,0.0,-2.7669,-2.9184,-2.9441,-2.9655,0.0,0.0,-2.8657,-2.7159,-3.0002,-3.0367,0.0,0.0,0.0,0.0,0.0,0.0,0.0,0.0,0.0,0.0,0.0,0.0,0.0,0.0,0.0,0.0,0.0,0.0,0.0,0.0,0.0,0.0,0.0,0.0,0.0,0.0,0.0,0.0,0.0,0.0,0.0,0.0,0.0,0.0,0.0,0.0,0.0,0.0,0.0,0.0,0.0,0.0,0.0,0.0,0.0,0.0,0.0,0.0,0.0,0.0,0.0,0.0,0.0,0.0,0.0,-2.5909,-3.4257,-3.8672,-3.8652,-4.0351,-4.043,-3.8633,-3.6613,-3.2433,0.0,0.0,0.0,0.0,0.0,0.0,0.0,0.0,0.0,0.0,0.0,0.0,0.0,0.0,0.0,0.0,0.0,0.0,0.0,0.0,0.0,0.0,0.0,0.0,0.0,0.0,0.0,0.0,0.0,0.0,0.0,0.0,0.0,0.0,0.0,0.0,0.0,0.0,0.0,0.0,0.0,-2.9026,-2.9273,-2.9883,-3.0934,0.0,0.0,-3.0558,-3.2103,-3.3929,-3.31,-2.6916,0.0,0.0,0.0,0.0,0.0,0.0,0.0,0.0,0.0,0.0,0.0,0.0,0.0,0.0,0.0,0.0,0.0,0.0,0.0,0.0,0.0,0.0,0.0,0.0,0.0,0.0,0.0,0.0,0.0,0.0,0.0,0.0,0.0,0.0,0.0,0.0,0.0,0.0,0.0,0.0,0.0,0.0,0.0,0.0,0.0,0.0,0.0,0.0,0.0,0.0,0.0,0.0,0.0,-2.3962,-2.576,-3.4199,-3.8613,-3.8672,-4.0312,-4.0351,-3.8652,-3.6893,-3.2987,0.0,0.0,0.0,0.0,0.0,0.0,0.0,0.0,0.0,0.0,0.0,0.0,0.0,0.0,0.0,0.0,0.0,0.0,0.0,0.0,0.0,0.0,0.0,0.0,0.0,0.0,0.0,0.0,-1.536,-1.5434,-1.4139,0.0,0.0,0.0,0.0,0.0,0.0,0.0,0.0,0.0,0.0,-3.0024,-3.2191,-3.2305,0.0,0.0,-3.3158,-3.2314,-3.1475,-3.3126,-3.2639,-2.7147,-2.5828,0.0,0.0,0.0,0.0,0.0,0.0,0.0,0.0,0.0,0.0,0.0,0.0,0.0,0.0,0.0,0.0,0.0,0.0,0.0,0.0,0.0,0.0,0.0,0.0,0.0,0.0,0.0,0.0,0.0,0.0,0.0,0.0,0.0,0.0,0.0,0.0,0.0,0.0,0.0,0.0,0.0,0.0,0.0,0.0,0.0,0.0,0.0,0.0,0.0,0.0,0.0,0.0,-2.412,-2.6113,-3.4336,-3.873,-3.8984,-4.043,-4.0371,-3.8672,-3.7402,-3.4062,0.0,0.0,0.0,0.0,0.0,0.0,0.0,0.0,0.0,0.0,0.0,0.0,0.0,0.0,0.0,0.0,0.0,0.0,0.0,0.0,0.0,0.0,0.0,0.0,0.0,0.0,0.0,0.0,-1.6295,-1.6033,-1.4199,0.0,0.0,0.0,0.0,0.0,0.0,0.0,0.0,0.0,0.0,-3.0857,-3.3031,-3.2798,-3.2652,-3.3359,-3.2773,-3.1834,-3.0758,-3.201,-3.1763,-2.7641,0.0,0.0,0.0,0.0,0.0,0.0,0.0,0.0,0.0,0.0,0.0,0.0,0.0,0.0,0.0,0.0,0.0,0.0,0.0,0.0,0.0,0.0,0.0,0.0,0.0,0.0,0.0,0.0,0.0,0.0,-1.0332,0.0,0.0,0.0,0.0,0.0,0.0,0.0,0.0,0.0,0.0,0.0,0.0,0.0,0.0,0.0,0.0,0.0,0.0,0.0,0.0,0.0,0.0,0.0,-2.7012,-3.4668,-3.9004,-3.9844,-4.0742,-4.0351,-3.8672,-3.8555,-3.6094,-3.0898,0.0,0.0,0.0,0.0,0.0,0.0,0.0,0.0,0.0,0.0,0.0,0.0,0.0,0.0,0.0,0.0,0.0,0.0,0.0,0.0,0.0,0.0,0.0,0.0,0.0,0.0,-1.0957,-1.268,-1.4118,0.0,0.0,0.0,0.0,0.0,0.0,0.0,0.0,0.0,0.0,-2.916,-3.1538,-3.0875,-3.066,-3.0978,-3.1615,-2.9576,-2.8601,-3.0728,-3.1267,-3.0784,0.0,0.0,0.0,0.0,0.0,0.0,0.0,0.0,0.0,0.0,0.0,0.0,0.0,0.0,0.0,0.0,0.0,0.0,0.0,0.0,0.0,0.0,0.0,0.0,0.0,0.0,0.0,-1.5138,-1.4082,0.0,0.0,0.0,0.0,0.0,0.0,0.0,0.0,0.0,0.0,0.0,-2.5781,-2.7456,0.0,0.0,0.0,0.0,0.0,0.0,0.0,0.0,0.0,0.0,0.0,0.0,-2.5273,-2.8047,-3.4941,-3.9023,-3.9883,-4.0762,-4.0351,-3.8672,-3.8613,-3.5898,-3.0215,0.0,0.0,0.0,0.0,0.0,0.0,0.0,0.0,0.0,0.0,0.0,0.0,0.0,0.0,0.0,0.0,0.0,0.0,0.0,0.0,0.0,0.0,0.0,0.0,0.0,-1.3769,0.0,0.0,0.0,0.0,0.0,0.0,0.0,0.0,0.0,0.0,0.0,-2.5836,-2.7833,-2.9788,-3.1333,-3.2144,-3.2223,-3.2871,0.0,0.0,0.0,0.0,0.0,0.0,0.0,0.0,0.0,0.0,0.0,0.0,0.0,0.0,-2.5643,-2.004,-1.9699,-2.0057,-1.9372,0.0,0.0,0.0,0.0,0.0,0.0,0.0,0.0,0.0,0.0,0.0,0.0,0.0,0.0,-2.0046,0.0,-1.7997,0.0,0.0,0.0,0.0,0.0,0.0,0.0,0.0,-2.814,-3.0407,-3.1055,-3.2984,-3.318,0.0,-3.0664,-2.6914,0.0,0.0,0.0,0.0,0.0,0.0,0.0,0.0,-2.6582,-2.9355,-3.5703,-3.9473,-4.0332,-4.0918,-4.0371,-3.8652,-3.8008,-3.5703,-3.1504,-2.832,-2.5195,0.0,0.0,0.0,0.0,0.0,0.0,0.0,0.0,0.0,0.0,0.0,0.0,0.0,0.0,0.0,0.0,0.0,0.0,0.0,0.0,0.0,0.0,0.0,-1.4586,0.0,0.0,0.0,0.0,0.0,0.0,0.0,0.0,0.0,-2.6877,-2.7792,-2.8905,-3.0906,-3.1835,-3.2427,-3.2595,0.0,0.0,0.0,0.0,0.0,0.0,0.0,-3.0887,-2.9954,-2.9901,-3.0346,-3.1483,-3.2164,-3.2335,-3.1608,0.0,0.0,-2.5032,-2.4229,-2.4252,-2.3267,-2.3231,-2.3456,-2.3666,-2.3757,-2.4062,0.0,0.0,0.0,0.0,0.0,0.0,0.0,0.0,-2.6059,-2.6095,0.0,-2.3347,0.0,0.0,0.0,0.0,0.0,-2.6016,0.0,0.0,-3.5742,-3.7734,-3.6289,-3.7109,-3.707,-3.625,-3.6191,-3.4434,-3.1074,-2.623,0.0,0.0,0.0,0.0,0.0,0.0,-2.8398,-3.1152,-3.6894,-4.0332,-4.1152,-4.1191,-4.0371,-3.8633,-3.6934,-3.5605,-3.4687,-3.2285,-2.9785,-2.7168,-2.2285,0.0,0.0,0.0,0.0,0.0,0.0,0.0,0.0,0.0,0.0,0.0,0.0,0.0,0.0,0.0,0.0,0.0,0.0,0.0,0.0,-1.4236,0.0,0.0,0.0,0.0,0.0,0.0,0.0,0.0,0.0,0.0,-3.043,-3.0795,-3.1665,-3.4004,0.0,0.0,0.0,0.0,-3.2372,-3.0706,-2.9648,-2.972,-3.1221,-3.2852,-3.3953,-3.3999,0.0,0.0,-3.5626,-3.3928,-3.286,-3.2543,-3.3825,-3.3872,-3.1366,-2.9342,-2.7875,-2.7042,-2.6353,-2.576,-2.5827,-2.666,-2.7042,-3.4772,0.0,0.0,0.0,0.0,-3.0081,-3.1281,-3.2987,-3.2241,-3.1322,-3.0321,-2.8829,0.0,0.0,0.0,0.0,0.0,0.0,-3.2519,-3.5195,-3.8184,-3.9883,-4.0605,-4.1465,-4.1738,-4.1484,-4.0859,-4.0059,-3.9023,-3.6426,-3.0391,-2.1328,0.0,0.0,0.0,0.0,-3.0723,-3.4492,-3.8086,-4.0332,-4.1191,-4.1191,-4.0391,-3.8633,-3.6914,-3.5879,-3.5625,-3.4336,-3.2441,-2.9883,-2.6602,0.0,0.0,0.0,0.0,0.0,0.0,0.0,0.0,0.0,0.0,0.0,0.0,0.0,0.0,0.0,0.0,0.0,0.0,0.0,-1.5,-1.7205,-1.8061,0.0,0.0,0.0,0.0,0.0,0.0,0.0,0.0,0.0,-3.3896,-3.3212,-3.2503,0.0,0.0,-3.2966,-3.1025,-3.3038,-3.4967,-3.5616,0.0,0.0,0.0,-3.6602,-3.5943,-3.6703,-3.8004,-3.8731,-3.8232,-3.817,-3.8177,-3.809,-3.8117,-3.7706,-3.644,-3.4626,-3.2981,-3.1992,-3.1531,-3.1685,-3.2388,-3.2176,-3.2146,-4.2251,-3.7589,-3.5316,-3.4636,-3.5103,-3.5446,-3.6559,-3.8106,-3.7657,-3.7078,-3.6358,-3.4927,-3.3253,-3.1496,-3.1054,0.0,0.0,0.0,-3.6719,-3.9375,-4.0762,-4.1953,-4.293,-4.3808,-4.4023,-4.3711,-4.3516,-4.3262,-4.2891,-4.123,-3.6426,-2.875,0.0,0.0,-2.6816,-3.0312,-3.3574,-3.6484,-3.9082,-4.0684,-4.1191,-4.0859,-4.0019,-3.8633,-3.7246,-3.6367,-3.6016,-3.5508,-3.4355,-3.2461,-2.9941,-2.6211,0.0,0.0,0.0,0.0,0.0,0.0,0.0,0.0,0.0,0.0,0.0,-1.46,0.0,0.0,0.0,0.0,-1.6992,-1.7676,-1.8848,-2.0506,0.0,0.0,0.0,0.0,0.0,0.0,0.0,-2.7813,-3.1535,-3.4741,-3.6469,-3.6163,-3.5745,-3.5829,-3.5874,-3.543,-3.4103,0.0,-3.7738,-3.843,-3.8507,-3.8969,-4.0265,-3.9706,-3.9394,-4.0338,-4.0642,-4.0796,-4.0816,-4.0855,-4.0807,-4.0725,-4.0153,-3.9429,-3.895,-3.7897,-3.6466,-3.4668,-3.399,-3.4052,-3.4722,-3.4284,-3.4234,-4.7794,-4.6664,-4.1269,-3.894,-3.8884,-3.9651,-4.0958,-4.2464,-4.2437,-4.2898,-4.3514,-4.1185,-3.968,-3.8777,-3.6481,0.0,-3.7988,-3.959,-4.1152,-4.2734,-4.3535,-4.3887,-4.3945,-4.4726,-4.4687,-4.3945,-4.4726,-4.4707,-4.3867,-4.2285,-4.0625,-3.8867,-3.6445,-3.4277,-3.2617,-3.4785,-3.6465,-3.7422,-3.9766,-4.1055,-4.1191,-4.0351,-3.9473,-3.8633,-3.7734,-3.6894,-3.6055,-3.5996,-3.5625,-3.4785,-3.25,-3.0625,-2.9219,0.0,0.0,0.0,0.0,0.0,0.0,0.0,0.0,0.0,0.0,0.0,0.0,0.0,0.0,0.0,-2.1641,0.0,-2.4668,-2.414,0.0,0.0,0.0,-2.6008,-2.8558,-3.1134,-3.296,-3.3643,0.0,0.0,-3.8528,0.0,-4.0531,-4.2108,-4.1273,-4.0234,-3.9422,-3.9988,-4.0442,-3.9785,-3.9785,-4.0112,-4.117,-4.2239,-4.3269,-4.3912,-4.372,-4.3124,-4.3019,-4.2228,-4.1542,-4.1476,-4.0555,-3.9826,-3.9777,-3.9671,-3.8812,-3.5982,-3.4902,-3.4368,-3.4605,-3.4624,-3.4674,-4.9279,-4.8924,-4.6796,-4.5476,-4.482,-4.5032,-4.5762,-4.672,-4.6219,-4.6142,-4.6348,-4.5219,-4.4234,-4.3357,-4.2109,-4.2148,-4.3183,-4.3594,-4.4355,-4.5351,-4.5586,-4.5683,-4.5683,-4.5898,-4.5879,-4.5703,-4.5898,-4.5879,-4.5644,-4.4609,-4.3223,-4.1523,-4.0273,-3.7793,-3.4297,-3.5371,-3.6758,-3.8262,-3.8906,-3.9863,-4.1133,-4.0351,-3.9492,-3.8633,-3.7754,-3.6875,-3.6055,-3.6016,-3.5898,-3.5664,-3.4473,-3.2793,-3.0547,-2.5078,0.0,0.0,0.0,0.0,0.0,0.0,0.0,0.0,0.0,-1.9333,-1.5058,0.0,-1.944,0.0,-2.3926,-2.6719,-2.8223,-2.8769,0.0,0.0,-3.0948,-3.196,-3.3923,-3.6418,-3.757,-3.6483,-3.9178,-4.1181,-4.1328,-4.212,-4.3224,-4.469,-4.2567,-4.0446,-3.958,-4.1228,-4.2484,-4.2317,-4.317,-4.4152,-4.4248,-4.471,-4.5037,-4.5248,-4.4566,-4.4008,-4.4028,-4.3282,-4.2682,-4.2635,-4.2269,-4.167,-4.1011,-4.0756,-4.0139,-3.885,-3.8344,-3.8213,-3.8232,-3.8176,-3.8164,-5.0714,-5.0354,-5.0165,-4.9117,-4.7625,-4.755,-4.7875,-4.8438,-4.8032,-4.7947,-4.8034,-4.7616,-4.7187,-4.6719,-4.623,-4.6269,-4.6719,-4.6738,-4.6992,-4.7441,-4.7441,-4.7246,-4.6875,-4.6875,-4.668,-4.6289,-4.6289,-4.6289,-4.6269,-4.5801,-4.5098,-4.4141,-4.3672,-4.1699,-3.8242,-3.748,-3.7637,-3.8594,-3.8984,-3.9844,-4.1133,-4.0723,-3.9512,-3.7519,-3.6992,-3.5762,-3.3809,-3.373,-3.3535,-3.3164,-3.2676,-3.1426,-2.9238,-2.5391,-2.2168,0.0,0.0,0.0,0.0,0.0,0.0,0.0,0.0,0.0,0.0,0.0,-2.3439,0.0,-2.7734,-3.0703,-3.123,-3.2422,-3.3672,-3.4922,-3.6092,-3.7361,-3.8711,-4.078,-4.1736,-4.084,-4.2673,-4.4047,-4.402,-4.4406,-4.5002,-4.5878,-4.4451,-4.3044,-4.2507,-4.3479,-4.4241,-4.4265,-4.5017,-4.5594,-4.5594,-4.5594,-4.5594,-4.5556,-4.5182,-4.4874,-4.4855,-4.4182,-4.3624,-4.3596,-4.3202,-4.267,-4.2201,-4.1991,-4.1587,-4.0842,-4.0576,-4.0332,-3.9743,-3.9611,-3.9611,-5.2118,-5.1529,-5.208,-5.1064,-4.9015,-4.8782,-4.8555,-4.8357,-4.8357,-4.8577,-4.8906,-4.9023,-4.9062,-4.9062,-4.8945,-4.8887,-4.8887,-4.8887,-4.8887,-4.8887,-4.8887,-4.8516,-4.7773,-4.7773,-4.7363,-4.6641,-4.6523,-4.6484,-4.6465,-4.6367,-4.6191,-4.5976,-4.5976,-4.4726,-4.2266,-4.0019,-3.8828,-3.8613,-3.9453,-4.0273,-4.0996,-4.0723,-3.8984,-3.5879,-3.5664,-3.416,-3.1074,-3.0918,-3.0566,-2.9824,-2.9766,-2.918,-2.7851,-2.5293,-2.3555,0.0,-2.0312,0.0,0.0,0.0,0.0,0.0,0.0,0.0,0.0,-2.6612,-2.6804,-2.8047,-3.2637,-3.5254,-3.4609,-3.5918,-3.7519,-3.9238,-4.0762,-4.2012,-4.2832,-4.4258,-4.5156,-4.5176,-4.575,-4.6158,-4.6238,-4.6294,-4.6296,-4.6513,-4.6354,-4.6037,-4.5947,-4.565,-4.553,-4.562,-4.5594,-4.5594,-4.5594,-4.5594,-4.5594,-4.5594,-4.5556,-4.5594,-4.5556,-4.496,-4.4451,-4.4412,-4.3942,-4.3462,-4.3297,-4.325,-4.2962,-4.211,-4.1909,-4.1461,-4.016,-3.9778,-3.9712,-5.3587,-5.339,-5.273,-5.2249,-5.1846,-5.0998,-4.9106,-4.6592,-4.6609,-4.7461,-4.8945,-4.9648,-4.9961,-4.9902,-4.9199,-4.8887,-4.8887,-4.8887,-4.8887,-4.8887,-4.8887,-4.8828,-4.8652,-4.8652,-4.8574,-4.8379,-4.7695,-4.7344,-4.7344,-4.6641,-4.5586,-4.4219,-4.4199,-4.3262,-4.1504,0.0,0.0,0.0,-3.9453,-3.998,-4.0059,-3.8066,-3.5996,-3.3984,-3.3887,0.0,-3.1055,-3.0918,-3.082,-3.0664,-3.0664,0.0,0.0,0.0,0.0,0.0,0.0,0.0,0.0,0.0,0.0,0.0,-2.871,-2.8691,-2.8144,-2.9179,-3.1132,-3.4101,-3.8926,-4.1582,-4.0781,-4.0976,-4.1894,-4.3574,-4.4082,-4.4609,-4.5449,-4.5859,-4.6055,-4.6055,-4.6191,-4.6543,-4.7207,-4.7303,-4.7558,-4.8105,-4.7683,-4.717,-4.6973,-4.6304,-4.5808,-4.564,-4.5594,-4.5594,-4.5594,-4.5594,-4.5594,-4.5594,-4.5594,-4.5594,-4.5575,-4.5498,-4.5344,-4.5325,-4.521,-4.4836,-4.422,-4.4085,-4.3816,-4.2989,-4.2854,-4.2349,-4.0699,-4.0347,-4.0336,-5.4375,0.0,-5.3919,-5.3198,0.0,-5.1517,-4.985,-4.7546,-4.8386,-4.9253,-5.0156,-5.0586,-5.0801,-5.0723,-4.9473,-4.8887,-4.8848,-4.8008,-4.8086,-4.8887,-4.8887,-4.9121,-4.9531,-4.9531,-4.9297,-4.8906,-4.8457,-4.8242,-4.8203,-4.7363,-4.6484,-4.5605,-4.5195,-4.4551,-4.373,-4.3711,-4.2656,-4.0508,-4.0918,-4.1133,-4.1094,-3.9844,-3.793,-3.5449,0.0,0.0,0.0,0.0,0.0,0.0,0.0,0.0,0.0,0.0,0.0,-3.0742,-2.9238,-2.8809,-3.0019,-3.0547,-3.1738,-3.3887,-3.4863,-3.4414,-3.2266,-3.3691,-3.5781,-3.8379,-4.248,-4.4629,-4.3789,-4.3672,-4.4219,-4.5449,-4.5644,-4.582,-4.6211,-4.6289,-4.6484,-4.6875,-4.6953,-4.7266,-4.8144,-4.8223,-4.8398,-4.8789,-4.8492,-4.8101,-4.7827,-4.6726,-4.579,-4.5635,-4.5594,-4.5594,-4.5594,-4.5594,-4.5594,-4.5594,-4.5594,-4.5594,-4.5594,-4.5594,-4.5594,-4.5594,-4.5594,-4.5421,-4.5094,-4.4951,-4.4682,-4.3932,-4.3682,-4.3316,-4.2047,-4.145,-4.1008,-5.5117,-5.4512,-5.5078,-5.4062,-5.207,-5.1933,-5.1074,-4.9883,0.0,0.0,0.0,-5.1484,-5.1543,-5.1289,-4.9961,-4.9336,-4.9258,-4.7851,-4.7969,-4.9336,-4.9336,-4.9726,-5.0391,-5.0391,-5.0019,-4.9355,-4.9199,-4.9141,-4.9082,-4.8262,-4.7734,-4.7539,-4.6894,-4.6445,-4.6308,-4.6289,-4.5254,-4.3183,-4.2637,-4.2383,-4.2383,-4.1816,-4.0078,-3.7129,-3.623,-3.4707,-3.25,-3.1719,-3.1016,-3.0312,-3.0273,-3.041,-3.0703,-3.0742,-3.1504,-3.3164,-3.332,-3.4258,-3.6309,-3.6601,-3.7363,-3.8945,-3.9844,-3.9375,-3.709,-3.8242,-3.9844,-4.1719,-4.457,-4.5976,-4.5293,-4.5234,-4.5508,-4.623,-4.6289,-4.6289,-4.6308,-4.6465,-4.6836,-4.7461,-4.7715,-4.8164,-4.8984,-4.9121,-4.9199,-4.9316,-4.9277,-4.898,-4.854,-4.7344,-4.6271,-4.5992,-4.5951,-4.5817,-4.5633,-4.5594,-4.5594,-4.5594,-4.5594,-4.5594,-4.5594,-4.5594,-4.5594,-4.5594,-4.5594,-4.5575,-4.5594,-4.5537,-4.5344,-4.4682,-4.4509,-4.4297,-4.3489,-4.2758,-4.197,-5.6328,-5.6191,-5.5566,-5.5078,-5.4687,-5.3945,-5.3516,-5.3183,-5.1953,-5.1016,-5.0469,-5.1894,-5.2109,-5.1387,-5.1133,-5.1055,-5.1035,-5.0801,-5.082,0.0,-5.1055,-5.1113,-5.123,-5.123,-5.1172,-5.0996,-5.0351,-5.0019,-4.9922,-4.9141,-4.834,-4.7695,-4.748,-4.7031,-4.6348,-4.6289,-4.6113,-4.5723,-4.3535,-4.2383,-4.2363,-3.9531,-3.7441,-3.623,-3.541,-3.4375,-3.3301,-3.3144,-3.2988,-3.2871,-3.2871,-3.3535,-3.498,-3.5059,-3.5879,-3.7519,-3.7695,-3.7871,-3.8223,-3.8926,-3.9785,-4.0762,-4.1582,-4.1582,-4.0605,-4.0684,-4.1855,-4.4199,-4.5586,-4.6269,-4.6113,-4.6094,-4.6133,-4.6308,-4.6308,-4.6308,-4.6406,-4.6992,-4.748,-4.7715,-4.8281,-4.9043,-4.9824,-5.0,-5.0254,-5.0723,-5.0351,-4.9699,-4.8879,-4.8233,-4.7618,-4.6936,-4.6721,-4.6413,-4.5883,-4.5594,-4.5594,-4.5594,-4.5594,-4.5594,-4.5594,-4.5594,-4.5594,-4.5594,-4.5594,-4.5594,-4.5594,-4.5594,-4.5518,-4.5306,-4.5325,-4.5047,-4.4278,-4.3932,-4.3374,-5.6621,-5.6562,-5.6191,-5.5996,-5.5976,-5.5566,-5.541,-5.5351,-5.457,-5.3476,-5.2383,-5.3086,-5.293,-5.2051,-5.1152,-5.0488,-5.0,-4.9062,-4.9141,-5.0,-5.0039,-5.0527,-5.1348,-5.1387,-5.1387,-5.1367,-5.1055,-5.0859,-5.0781,-5.0019,-4.9394,-4.8965,-4.8086,-4.7148,-4.6367,-4.6289,-4.6289,-4.6269,-4.5137,-4.4277,-4.3789,-4.2285,-4.084,-3.9512,-3.8652,-3.7812,-3.6973,-3.6484,-3.6211,-3.6211,-3.6211,-3.6582,-3.7344,-3.7402,-3.7988,-3.9199,-3.9316,-3.9512,-4.0,-4.0391,-4.0976,-4.1777,-4.2187,-4.2676,-4.3223,-4.2832,-4.3242,-4.4824,-4.5781,-4.6289,-4.6289,-4.6289,-4.6465,-4.6973,-4.7012,-4.7207,-4.7656,-4.8027,-4.8476,-4.8945,-4.9355,-4.9922,-5.0762,-5.0859,-5.0957,-5.1308,-5.1016,-5.0566,-5.004,-4.9886,-4.9299,-4.7891,-4.7257,-4.6849,-4.6352,-4.5864,-4.5652,-4.5594,-4.5594,-4.5594,-4.5594,-4.5594,-4.5594,-4.5594,-4.5594,-4.5594,-4.5594,-4.5594,-4.5594,-4.5594,-4.5594,-4.5364,-4.5056,-4.4662,-4.3874,-5.6621,-5.6621,-5.6621,-5.6621,-5.6621,-5.6621,-5.6621,-5.6621,-5.6582,-5.584,-5.4668,-5.4394,-5.3808,-5.2891,-5.1621,-5.0605,-4.9648,-4.8359,-4.8398,-4.9375,-4.9453,-5.0156,-5.1308,-5.1387,-5.1387,-5.1387,-5.1387,-5.1387,-5.1308,-5.0781,-5.0371,-5.0039,-4.8457,-4.7266,-4.6601,-4.6406,-4.6289,-4.6289,-4.6289,-4.5976,-4.5312,-4.5117,-4.4355,-4.3066,-4.2168,-4.1348,-4.0488,-3.9805,-3.9375,-3.9199,-3.9199,-3.9199,-3.918,-3.918,-3.9492,-4.0117,-4.0195,-4.0566,-4.1367,-4.1465,-4.1816,-4.2637,-4.2891,-4.3555,-4.4746,-4.459,-4.4551,-4.5234,-4.5918,-4.6289,-4.6328,-4.6523,-4.6875,-4.7519,-4.7793,-4.8125,-4.8769,-4.9062,-4.9414,-5.0078,-5.0351,-5.0723,-5.123,-5.1387,-5.1387,-5.1367,-5.1387,-5.1348,-5.1236,-5.121,-5.0493,-4.9259,-4.8147,-4.7606,-4.7248,-4.6478,-4.6018,-4.5902,-4.5729,-4.5633,-4.5594,-4.5594,-4.5594,-4.5594,-4.5594,-4.5594,-4.5594,-4.5594,-4.5594,-4.5594,-4.5594,-4.5575,-4.5518,-4.5086,-4.4355,-5.6621,-5.6621,-5.6621,-5.6621,-5.6621,-5.6621,-5.6621,-5.6621,-5.6621,-5.6543,-5.6211,-5.5527,-5.4707,-5.3945,-5.3672,-5.3105,-5.2285,-5.2168,-5.1699,-5.1152,-5.1172,-5.125,-5.1387,-5.1387,-5.1387,-5.1387,-5.1387,-5.1387,-5.1387,-5.1308,-5.0918,-5.0078,-4.8457,-4.7617,-4.7402,-4.6699,-4.6308,-4.6289,-4.6289,-4.6269,-4.6133,-4.541,-4.4941,-4.4766,-4.3926,-4.3066,-4.2148,-4.2109,-4.1699,-4.1035,-4.0957,-4.0957,-4.0957,-4.0976,-4.0996,-4.1094,-4.1113,-4.1445,-4.2187,-4.2285,-4.2676,-4.3535,-4.4258,-4.4746,-4.5039,-4.5625,-4.6055,-4.6191,-4.6269,-4.6308,-4.6348,-4.6973,-4.75,-4.7832,-4.8379,-4.8828,-4.9062,-4.9609,-5.0117,-5.0176,-5.082,-5.1328,-5.1367,-5.1387,-5.1387,-5.1387,-5.1387,-5.1365,-5.1246,-5.1277,-5.1273,-5.067,-4.9962,-4.9051,-4.8309,-4.7408,-4.6873,-4.674,-4.6124,-4.5806,-4.5748,-4.5671,-4.5594,-4.5594,-4.5594,-4.5594,-4.5594,-4.5594,-4.5594,-4.5594,-4.5594,-4.5594,-4.5594,-4.5479,-4.5056,-5.6621,-5.6621,-5.6621,-5.6621,-5.6621,-5.6621,-5.6621,-5.6621,-5.6621,-5.6621,-5.6582,-5.6211,-5.5586,-5.4785,-5.4765,-5.4297,-5.3457,-5.2949,-5.2519,-5.2129,-5.1641,-5.1387,-5.1387,-5.1387,-5.1387,-5.1387,-5.1387,-5.1387,-5.1387,-5.1387,-5.0976,-5.0234,-4.9453,-4.8887,-4.8359,-4.75,-4.707,-4.707,-4.6562,-4.6289,-4.6269,-4.5957,-4.5527,-4.5019,-4.4648,-4.4062,-4.3262,-4.3164,-4.3008,-4.2695,-4.2676,-4.2676,-4.2676,-4.2676,-4.2676,-4.2676,-4.2695,-4.2832,-4.3164,-4.3164,-4.3535,-4.4414,-4.4785,-4.5195,-4.5723,-4.6113,-4.6484,-4.6914,-4.6601,-4.6484,-4.7012,-4.7383,-4.7988,-4.8906,-4.9453,-4.9824,-5.0351,-5.0664,-5.0918,-5.0937,-5.1191,-5.1387,-5.1387,-5.1387,-5.1387,-5.1387,-5.1387,-5.1367,-5.1328,-5.1366,-5.1364,-5.1244,-5.0826,-5.0174,-4.9227,-4.8243,-4.7729,-4.749,-4.6932,-4.6394,-4.6278,-4.5864,-4.5614,-4.5594,-4.5594,-4.5594,-4.5594,-4.5594,-4.5594,-4.5594,-4.5594,-4.5594,-4.5594,-4.5594,-4.5402,-5.6621,-5.6621,-5.6621,-5.6621,-5.6621,-5.6621,-5.6621,-5.6621,-5.6621,-5.6621,-5.6621,-5.6621,-5.625,-5.5703,-5.5664,-5.5176,-5.4336,-5.3711,-5.3125,-5.2695,-5.2031,-5.1621,-5.1426,-5.1387,-5.1387,-5.1387,-5.1387,-5.1387,-5.1387,-5.1387,-5.1094,-5.0566,-5.0312,-4.9902,-4.9238,-4.8398,-4.7949,-4.7871,-4.7109,-4.6641,-4.6641,-4.6426,-4.5996,-4.541,-4.5371,-4.4941,-4.4101,-4.4043,-4.3945,-4.3691,-4.3711,-4.3711,-4.3711,-4.3711,-4.3711,-4.3711,-4.3711,-4.3808,-4.4023,-4.4043,-4.4433,-4.5234,-4.5351,-4.5605,-4.6152,-4.6289,-4.6699,-4.7461,-4.7637,-4.7988,-4.7832,-4.8164,-4.8906,-5.0039,-5.0351,-5.0781,-5.1269,-5.1387,-5.1367,-5.1387,-5.1367,-5.1387,-5.1387,-5.1387,-5.1387,-5.1387,-5.1387,-5.1387,-5.1387,-5.1387,-5.1387,-5.1387,-5.1269,-5.0897,-5.0104,-4.9196,-4.8645,-4.8202,-4.7663,-4.6827,-4.6836,-4.6163,-4.5614,-4.5594,-4.5594,-4.5594,-4.5594,-4.5594,-4.5594,-4.5594,-4.5594,-4.5594,-4.5594,-4.5594,-4.5594,-5.6621,-5.6621,-5.6621,-5.6621,-5.6621,-5.6621,-5.6621,-5.6621,-5.6621,-5.6621,-5.6621,-5.6621,-5.6582,-5.6484,-5.6465,-5.6055,-5.5312,-5.5117,-5.4238,-5.293,-5.2715,-5.2207,-5.1426,-5.1387,-5.1406,-5.1406,-5.1387,-5.1387,-5.1387,-5.1387,-5.1387,-5.1289,-5.0625,-5.0215,-5.0019,-4.9277,-4.8828,-4.875,-4.7969,-4.7519,-4.7402,-4.6738,-4.6328,-4.6191,-4.6211,-4.5781,-4.5058,-4.4941,-4.459,-4.3769,-4.3828,-4.3789,-4.3769,-4.3769,-4.3828,-4.3808,-4.3769,-4.4121,-4.4824,-4.4941,-4.5293,-4.6035,-4.6133,-4.625,-4.6406,-4.6465,-4.6894,-4.7598,-4.9629,-5.0293,-4.9219,-4.9433,-4.9941,-5.0254,-5.0898,-5.1269,-5.1367,-5.1387,-5.1387,-5.1387,-5.1387,-5.1387,-5.1387,-5.1387,-5.1387,-5.1387,-5.1387,-5.1387,-5.1387,-5.1387,-5.1387,-5.1367,-5.1295,-5.1157,-5.0948,-5.0202,-4.9595,-4.9183,-4.836,-4.7114,-4.6663,-4.6278,-4.5902,-4.5614,-4.5614,-4.5614,-4.5594,-4.5594,-4.5594,-4.5594,-4.5594,-4.5594,-4.5594,-4.5594,-4.5594,-5.6621,-5.6621,-5.6621,-5.6621,-5.6621,-5.6621,-5.6621,-5.6621,-5.6621,-5.6621,-5.6621,-5.6621,-5.6621,-5.6621,-5.6621,-5.6426,-5.6094,-5.5566,-5.4941,-5.4297,-5.3789,-5.3066,-5.2305,-5.2246,-5.1894,-5.1445,-5.1387,-5.1387,-5.1387,-5.1387,-5.1387,-5.1367,-5.1133,-5.0976,-5.084,-5.0137,-4.9726,-4.9648,-4.8867,-4.8164,-4.7676,-4.7305,-4.6894,-4.6348,-4.6289,-4.6152,-4.584,-4.582,-4.5683,-4.5371,-4.5371,-4.5351,-4.5371,-4.5371,-4.5351,-4.5371,-4.5351,-4.5488,-4.5781,-4.582,-4.5937,-4.623,-4.6289,-4.6562,-4.7051,-4.7324,-4.7891,-4.9199,-5.0449,-5.0976,-5.0664,-5.0351,-5.041,-5.0898,-5.1211,-5.1387,-5.1387,-5.1387,-5.1387,-5.1387,-5.1387,-5.1387,-5.1387,-5.1387,-5.1387,-5.1387,-5.1387,-5.1387,-5.1387,-5.1387,-5.1387,-5.1387,-5.1365,-5.1292,-5.1174,-5.0894,-5.0467,-5.0119,-4.9459,-4.8827,-4.8302,-4.6604,-4.5902,-4.6144,-4.6028,-4.5614,-4.5594,-4.5594,-4.5594,-4.5594,-4.5594,-4.5594,-4.5594,-4.5594,-4.5594,-5.6621,-5.6621,-5.6621,-5.6621,-5.6621,-5.6621,-5.6621,-5.6621,-5.6621,-5.6621,-5.6621,-5.6621,-5.6621,-5.6621,-5.6621,-5.6621,-5.6562,-5.5976,-5.5586,-5.5273,-5.4687,-5.3945,-5.3242,-5.3125,-5.2656,-5.1875,-5.1504,-5.1387,-5.1387,-5.1387,-5.1387,-5.1387,-5.1387,-5.1387,-5.1289,-5.084,-5.0566,-5.041,-4.9746,-4.9004,-4.8476,-4.8164,-4.7598,-4.6875,-4.6719,-4.6582,-4.6328,-4.6289,-4.6289,-4.6289,-4.6289,-4.6289,-4.623,-4.6226,-4.6222,-4.6195,-4.6191,-4.6222,-4.6195,-4.6173,-4.6172,-4.625,-4.6465,-4.6878,-4.7513,-4.8143,-4.9042,-5.0017,-5.0898,-5.1387,-5.1289,-5.0898,-5.082,-5.1289,-5.1387,-5.1387,-5.1387,-5.1387,-5.1387,-5.1387,-5.1387,-5.1387,-5.1387,-5.1387,-5.1387,-5.1387,-5.1387,-5.1387,-5.1387,-5.1387,-5.1387,-5.1387,-5.1387,-5.1348,-5.1289,-5.1133,-5.0898,-5.0578,-5.007,-4.973,-4.9185,-4.737,-4.6441,-4.6644,-4.6374,-4.5864,-4.5594,-4.5594,-4.5594,-4.5594,-4.5594,-4.5594,-4.5594,-4.5594,-4.5594,-5.6621,-5.6621,-5.6621,-5.6621,-5.6621,-5.6621,-5.6621,-5.6621,-5.6621,-5.6621,-5.6621,-5.6621,-5.6621,-5.6621,-5.6621,-5.6621,-5.6582,-5.6504,-5.6094,-5.5469,-5.5351,-5.4844,-5.4023,-5.4004,-5.3476,-5.2558,-5.1797,-5.1406,-5.1387,-5.1387,-5.1387,-5.1387,-5.1387,-5.1387,-5.1387,-5.1308,-5.1328,-5.1152,-5.0547,-5.0156,-5.0078,-4.9297,-4.8496,-4.7715,-4.7598,-4.7226,-4.6406,-4.6328,-4.6289,-4.6289,-4.6289,-4.625,-4.6144,-4.6136,-4.6067,-4.5978,-4.6036,-4.6033,-4.5932,-4.5982,-4.6131,-4.6323,-4.6819,-4.7384,-4.7857,-4.8814,-4.9697,-5.0182,-5.0845,-5.1367,-5.1367,-5.1289,-5.1289,-5.1387,-5.1387,-5.1387,-5.1387,-5.1387,-5.1387,-5.1387,-5.1387,-5.1387,-5.1387,-5.1387,-5.1387,-5.1387,-5.1387,-5.1387,-5.1387,-5.1387,-5.1387,-5.1387,-5.1387,-5.1367,-5.1387,-5.1367,-5.1172,-5.0895,-5.0318,-4.9853,-4.9639,-4.8428,-4.7739,-4.7682,-4.6663,-4.6086,-4.5594,-4.5594,-4.5594,-4.5594,-4.5594,-4.5594,-4.5594,-4.5594,-4.5594,-5.6621,-5.6621,-5.6621,-5.6621,-5.6621,-5.6621,-5.6621,-5.6601,-5.6621,-5.6621,-5.6621,-5.6621,-5.6621,-5.6601,-5.6621,-5.6601,-5.6621,-5.6601,-5.6445,-5.6191,-5.6172,-5.5723,-5.5019,-5.4883,-5.4121,-5.2773,-5.1816,-5.1406,-5.1406,-5.1406,-5.1387,-5.1387,-5.1387,-5.1387,-5.1387,-5.1387,-5.1387,-5.1348,-5.1172,-5.0781,-5.0254,-4.9941,-4.9375,-4.8613,-4.8496,-4.8066,-4.7246,-4.6621,-4.6308,-4.6308,-4.6289,-4.6246,-4.614,-4.6108,-4.602,-4.592,-4.5928,-4.5944,-4.6005,-4.6439,-4.6755,-4.6984,-4.7616,-4.8374,-4.895,-4.9457,-5.0072,-5.0603,-5.1043,-5.1177,-5.1197,-5.1193,-5.1262,-5.1387,-5.1387,-5.1387,-5.1387,-5.1387,-5.1387,-5.1387,-5.1387,-5.1387,-5.1387,-5.1387,-5.1387,-5.1387,-5.1387,-5.1387,-5.1387,-5.1387,-5.1387,-5.1387,-5.1387,-5.1387,-5.1387,-5.1387,-5.1289,-5.1144,-5.0702,-5.0326,-5.0068,-4.96,-4.9011,-4.8152,-4.7123,-4.6374,-4.5883,-4.5594,-4.5594,-4.5594,-4.5594,-4.5594,-4.5594,-4.5594,-4.5594,-5.6621,-5.6582,-5.6539,-5.6516,-5.6514,-5.6465,-5.6445,-5.6456,-5.6454,-5.6456,-5.6445,-5.6445,-5.6456,-5.6454,-5.6454,-5.6456,-5.6456,-5.6454,-5.6454,-5.6484,-5.6562,-5.6269,-5.5742,-5.543,-5.4824,-5.373,-5.2773,-5.2187,-5.1894,-5.1875,-5.1738,-5.1445,-5.1387,-5.1387,-5.1387,-5.1387,-5.1387,-5.1387,-5.1387,-5.1152,-5.0762,-5.0644,-5.0254,-4.9512,-4.9394,-4.8926,-4.8105,-4.7539,-4.6973,-4.6426,-4.6248,-4.6171,-4.6042,-4.6027,-4.5955,-4.5845,-4.5872,-4.5961,-4.6278,-4.6745,-4.726,-4.7639,-4.836,-4.9033,-4.9638,-4.9934,-5.0503,-5.0917,-5.1069,-5.1094,-5.1094,-5.1094,-5.1168,-5.1271,-5.1308,-5.1344,-5.1367,-5.1387,-5.1387,-5.1387,-5.1387,-5.1387,-5.1387,-5.1387,-5.1387,-5.1387,-5.1387,-5.1387,-5.1387,-5.1387,-5.1387,-5.1387,-5.1387,-5.1387,-5.1387,-5.1387,-5.1367,-5.1291,-5.1145,-5.0918,-5.0711,-5.0112,-4.9509,-4.8461,-4.7439,-4.6815,-4.6297,-4.5787,-4.5594,-4.5594,-4.5671,-4.5594,-4.5594,-4.5594,-4.5594,-5.6582,-5.656,-5.643,-5.6383,-5.6377,-5.626,-5.6242,-5.6207,-5.6232,-5.6242,-5.6237,-5.6252,-5.6237,-5.6227,-5.6257,-5.6257,-5.6222,-5.6227,-5.6237,-5.6285,-5.6426,-5.6445,-5.6308,-5.5586,-5.5117,-5.4922,-5.416,-5.3437,-5.2734,-5.2539,-5.2285,-5.1582,-5.1426,-5.1367,-5.1348,-5.1367,-5.1367,-5.1367,-5.1387,-5.1367,-5.1328,-5.1348,-5.1016,-5.0293,-5.0234,-4.9844,-4.9101,-4.873,-4.8027,-4.6699,-4.6551,-4.6475,-4.6135,-4.6039,-4.6155,-4.5935,-4.5873,-4.6379,-4.6848,-4.7253,-4.7582,-4.8333,-4.9043,-4.9516,-4.9842,-5.0363,-5.0751,-5.0882,-5.0979,-5.1042,-5.1036,-5.1036,-5.1058,-5.1094,-5.1167,-5.1265,-5.1366,-5.1387,-5.1387,-5.1387,-5.1387,-5.1387,-5.1387,-5.1387,-5.1387,-5.1387,-5.1387,-5.1387,-5.1387,-5.1387,-5.1387,-5.1387,-5.1387,-5.1387,-5.1387,-5.1387,-5.1367,-5.1345,-5.1295,-5.1213,-5.1111,-5.0568,-4.997,-4.8909,-4.8098,-4.7439,-4.69,-4.6538,-4.61,-4.5998,-4.5941,-4.571,-4.5594,-4.5603,-4.5643,-5.6309,-5.6285,-5.6256,-5.6242,-5.6261,-5.6222,-5.6206,-5.6211,-5.6206,-5.6189,-5.6206,-5.6211,-5.6195,-5.6211,-5.6206,-5.6211,-5.6195,-5.62,-5.6211,-5.6222,-5.6251,-5.6309,-5.6114,-5.5451,-5.5046,-5.4948,-5.4316,-5.3588,-5.3315,-5.2788,-5.2317,-5.2052,-5.145,-5.119,-5.1167,-5.1245,-5.1261,-5.1268,-5.1365,-5.1387,-5.1387,-5.1387,-5.1308,-5.1133,-5.1055,-5.0644,-4.9883,-4.9238,-4.8769,-4.832,-4.8182,-4.7892,-4.7304,-4.7501,-4.7414,-4.7014,-4.7225,-4.7531,-4.7816,-4.8336,-4.8816,-4.9122,-4.9807,-5.0365,-5.0393,-5.0594,-5.0748,-5.0757,-5.078,-5.0814,-5.0805,-5.0822,-5.084,-5.0959,-5.1092,-5.1201,-5.1244,-5.1348,-5.1387,-5.1387,-5.1387,-5.1387,-5.1387,-5.1387,-5.1387,-5.1387,-5.1387,-5.1387,-5.1387,-5.1387,-5.1387,-5.1387,-5.1387,-5.1387,-5.1387,-5.1387,-5.1387,-5.1387,-5.1345,-5.1297,-5.1205,-5.0957,-5.0349,-4.9604,-4.914,-4.8542,-4.8138,-4.7768,-4.7272,-4.6667,-4.6623,-4.656,-4.5888,-4.564,-4.5723,-5.6211,-5.6186,-5.6103,-5.6071,-5.6084,-5.6008,-5.5978,-5.5978,-5.5978,-5.5998,-5.5998,-5.599,-5.5998,-5.5978,-5.599,-5.599,-5.5998,-5.5998,-5.599,-5.599,-5.5971,-5.6064,-5.6028,-5.5622,-5.5447,-5.5408,-5.4916,-5.4532,-5.4065,-5.3263,-5.2699,-5.2203,-5.1497,-5.1113,-5.1089,-5.1133,-5.117,-5.118,-5.1238,-5.1293,-5.1273,-5.1273,-5.1269,-5.1269,-5.1273,-5.1,-5.0547,-5.0078,-4.957,-4.901,-4.8759,-4.8461,-4.7825,-4.8208,-4.832,-4.7995,-4.8157,-4.8259,-4.8663,-4.9144,-4.9548,-4.9904,-5.0471,-5.0625,-5.0673,-5.0683,-5.0683,-5.0702,-5.0683,-5.0683,-5.0683,-5.0683,-5.074,-5.083,-5.0971,-5.1085,-5.1144,-5.1227,-5.1328,-5.1363,-5.1365,-5.1344,-5.1386,-5.1387,-5.1387,-5.1387,-5.1387,-5.1387,-5.1387,-5.1387,-5.1387,-5.1387,-5.1387,-5.1387,-5.1387,-5.1387,-5.1387,-5.1387,-5.1387,-5.1348,-5.1292,-5.1202,-5.0885,-5.0369,-5.0045,-4.9693,-4.9243,-4.8726,-4.8107,-4.7689,-4.7615,-4.7258,-4.6631,-4.6232,-4.6221,-5.6166,-5.6135,-5.5963,-5.5863,-5.5857,-5.574,-5.5728,-5.5705,-5.5728,-5.5737,-5.5717,-5.5705,-5.5748,-5.5684,-5.5749,-5.5716,-5.5716,-5.5758,-5.5728,-5.5738,-5.5749,-5.5852,-5.6045,-5.598,-5.5929,-5.5935,-5.6121,-5.5611,-5.4874,-5.4083,-5.3246,-5.2491,-5.1649,-5.1173,-5.1047,-5.1067,-5.1088,-5.1079,-5.1117,-5.1135,-5.112,-5.1139,-5.1139,-5.1139,-5.112,-5.1116,-5.1029,-5.0884,-5.0404,-4.9025,-4.8937,-4.8768,-4.818,-4.8564,-4.8908,-4.9114,-4.8987,-4.9013,-4.9383,-4.9625,-4.9885,-5.0481,-5.0635,-5.0683,-5.0683,-5.0683,-5.0683,-5.0683,-5.0683,-5.0683,-5.0683,-5.0683,-5.0702,-5.0787,-5.0877,-5.1087,-5.113,-5.1132,-5.1152,-5.1334,-5.1234,-5.1265,-5.1341,-5.1386,-5.1387,-5.1387,-5.1387,-5.1387,-5.1387,-5.1387,-5.1387,-5.1387,-5.1387,-5.1387,-5.1387,-5.1387,-5.1387,-5.1387,-5.1387,-5.1367,-5.1348,-5.1294,-5.1242,-5.1011,-5.0672,-5.0365,-5.0073,-4.9526,-4.9,-4.8662,-4.8569,-4.8107,-4.7578,-4.7342,-4.7256,-5.5818,-5.5798,-5.5759,-5.5758,-5.5729,-5.5735,-5.5684,-5.5684,-5.5684,-5.5684,-5.5684,-5.5684,-5.5684,-5.5684,-5.5684,-5.5684,-5.5684,-5.5684,-5.5684,-5.5684,-5.5684,-5.5707,-5.5817,-5.5826,-5.5827,-5.5817,-5.5817,-5.5702,-5.5316,-5.4638,-5.3878,-5.298,-5.2078,-5.1408,-5.0891,-5.0896,-5.0945,-5.0953,-5.1025,-5.1069,-5.1063,-5.1063,-5.1063,-5.1069,-5.1074,-5.1084,-5.1089,-5.1094,-5.0858,-5.0567,-5.0417,-5.0223,-5.0106,-5.0183,-5.03,-5.0357,-5.0273,-5.022,-5.0375,-5.0366,-5.0481,-5.0635,-5.0683,-5.0683,-5.0683,-5.0683,-5.0683,-5.0683,-5.0683,-5.0683,-5.0683,-5.0683,-5.075,-5.0885,-5.1279,-5.1663,-5.1674,-5.1406,-5.1263,-5.1137,-5.12,-5.1183,-5.1305,-5.1369,-5.1387,-5.1387,-5.1387,-5.1387,-5.1387,-5.1387,-5.1387,-5.1387,-5.1387,-5.1387,-5.1387,-5.1387,-5.1387,-5.1387,-5.1387,-5.1387,-5.1367,-5.1367,-5.1328,-5.1308,-5.1247,-5.0977,-5.0642,-5.0692,-5.0243,-4.9886,-4.9473,-4.9033,-4.8658,-4.8444,-4.8105,-5.5684,-5.5684,-5.5684,-5.5684,-5.5684,-5.5684,-5.5684,-5.5684,-5.5684,-5.5684,-5.5684,-5.5684,-5.5684,-5.5684,-5.5684,-5.5684,-5.5684,-5.5684,-5.5684,-5.5684,-5.5684,-5.5684,-5.5684,-5.5684,-5.5684,-5.5684,-5.5695,-5.5684,-5.5491,-5.4895,-5.4022,-5.3203,-5.2375,-5.1482,-5.0827,-5.0784,-5.0797,-5.0795,-5.0863,-5.0903,-5.0911,-5.0911,-5.0903,-5.0903,-5.0903,-5.0911,-5.0896,-5.0896,-5.0863,-5.0844,-5.0871,-5.093,-5.0925,-5.0916,-5.0911,-5.089,-5.0863,-5.0748,-5.0712,-5.0683,-5.0664,-5.0683,-5.0683,-5.0683,-5.0683,-5.0683,-5.0683,-5.0683,-5.0683,-5.0683,-5.0683,-5.0683,-5.0808,-5.1279,-5.1645,-5.2038,-5.2358,-5.226,-5.1946,-5.1811,-5.2031,-5.2394,-5.246,-5.2024,-5.1777,-5.1953,-5.1367,-5.1348,-5.1387,-5.1387,-5.1387,-5.1387,-5.1387,-5.1387,-5.1387,-5.1387,-5.1387,-5.1387,-5.1387,-5.1387,-5.1387,-5.1387,-5.1387,-5.1367,-5.1348,-5.1348,-5.1122,-5.1236,-5.123,-5.084,-5.0391,-5.0019,-4.9707,-4.9453,-4.9023,-5.5684,-5.5684,-5.5684,-5.5684,-5.5684,-5.5684,-5.5684,-5.5684,-5.5684,-5.5684,-5.5684,-5.5684,-5.5684,-5.5684,-5.5684,-5.5684,-5.5684,-5.5684,-5.5684,-5.5684,-5.5684,-5.5684,-5.5684,-5.5684,-5.5684,-5.5684,-5.5684,-5.5684,-5.5511,-5.5011,-5.4395,-5.3472,-5.2779,-5.2164,-5.1385,-5.0923,-5.0991,-5.102,-5.0836,-5.074,-5.073,-5.073,-5.073,-5.074,-5.072,-5.073,-5.073,-5.074,-5.0712,-5.0683,-5.0683,-5.0683,-5.0721,-5.0791,-5.0819,-5.0721,-5.0799,-5.0782,-5.0702,-5.0683,-5.0683,-5.0683,-5.0683,-5.0683,-5.0683,-5.0683,-5.0683,-5.0683,-5.0683,-5.0683,-5.0683,-5.0933,-5.126,-5.1779,-5.2058,-5.2654,-5.3203,-5.3453,-5.3301,-5.2637,-5.2679,-5.2996,-5.3157,-5.2962,-5.2699,-5.2363,-5.1768,-5.1332,-5.1399,-5.1387,-5.1387,-5.1387,-5.1387,-5.1387,-5.1387,-5.1387,-5.1387,-5.1387,-5.1387,-5.1387,-5.1387,-5.1387,-5.1387,-5.1387,-5.1387,-5.1367,-5.1367,-5.1348,-5.1348,-5.1387,-5.1211,-5.0742,-5.0527,-5.041,-4.998,-5.5684,-5.5684,-5.5684,-5.5684,-5.5684,-5.5684,-5.5684,-5.5684,-5.5684,-5.5684,-5.5684,-5.5684,-5.5684,-5.5684,-5.5684,-5.5684,-5.5684,-5.5684,-5.5684,-5.5684,-5.5684,-5.5684,-5.5684,-5.5684,-5.5684,-5.5684,-5.5684,-5.5684,-5.5684,-5.5511,-5.4895,-5.4357,-5.403,-5.3472,-5.2606,-5.2125,-5.1702,-5.1587,-5.1144,-5.0837,-5.0818,-5.0731,-5.0683,-5.0683,-5.0683,-5.0683,-5.0683,-5.0683,-5.0683,-5.0683,-5.0683,-5.0683,-5.0702,-5.073,-5.0721,-5.0721,-5.074,-5.074,-5.0702,-5.0683,-5.0683,-5.0683,-5.0683,-5.0683,-5.0683,-5.0702,-5.0741,-5.0808,-5.0789,-5.075,-5.0731,-5.1356,-5.1741,-5.2231,-5.3106,-5.3972,-5.4299,-5.4587,-5.4511,-5.3578,-5.3456,-5.3417,-5.355,-5.3596,-5.3333,-5.2868,-5.2273,-5.1752,-5.1552,-5.1478,-5.1387,-5.1387,-5.1387,-5.1387,-5.1387,-5.1387,-5.1387,-5.1387,-5.1387,-5.1387,-5.1387,-5.1387,-5.1387,-5.1387,-5.1387,-5.1387,-5.1387,-5.1387,-5.1387,-5.1387,-5.1367,-5.1328,-5.1113,-5.0879,-5.0996,-5.5684,-5.5684,-5.5684,-5.5684,-5.5684,-5.5684,-5.5684,-5.5684,-5.5684,-5.5684,-5.5684,-5.5684,-5.5684,-5.5684,-5.5684,-5.5684,-5.5684,-5.5684,-5.5684,-5.5684,-5.5684,-5.5684,-5.5684,-5.5684,-5.5684,-5.5684,-5.5684,-5.5684,-5.5684,-5.5684,-5.5261,-5.4664,-5.4491,-5.4049,-5.3337,-5.2799,-5.2587,-5.2395,-5.1779,-5.1279,-5.1221,-5.0943,-5.0712,-5.0683,-5.0683,-5.0683,-5.0683,-5.0683,-5.0683,-5.0683,-5.0683,-5.0683,-5.0683,-5.0683,-5.0683,-5.0683,-5.0683,-5.0683,-5.0683,-5.0683,-5.0683,-5.0683,-5.0683,-5.0683,-5.0683,-5.0721,-5.0894,-5.1241,-5.1356,-5.1529,-5.201,-5.2337,-5.276,-5.326,-5.4049,-5.4626,-5.5068,-5.5453,-5.503,-5.4434,-5.458,-5.4457,-5.4024,-5.4001,-5.3846,-5.3388,-5.278,-5.2284,-5.1817,-5.1507,-5.1337,-5.1367,-5.1367,-5.1387,-5.1387,-5.1387,-5.1387,-5.1387,-5.1387,-5.1387,-5.1387,-5.1387,-5.1387,-5.1387,-5.1387,-5.1387,-5.1387,-5.1387,-5.1387,-5.1387,-5.1387,-5.1367,-5.1387,-5.1387,-5.1387,-5.5684,-5.5684,-5.5684,-5.5684,-5.5684,-5.5684,-5.5684,-5.5684,-5.5684,-5.5684,-5.5684,-5.5684,-5.5684,-5.5684,-5.5684,-5.5684,-5.5684,-5.5684,-5.5684,-5.5684,-5.5684,-5.5684,-5.5684,-5.5684,-5.5684,-5.5684,-5.5684,-5.5684,-5.5684,-5.5684,-5.5318,-5.4991,-5.4761,-5.4453,-5.3914,-5.3645,-5.353,-5.3164,-5.2404,-5.1885,-5.1529,-5.1068,-5.0683,-5.0683,-5.0683,-5.0683,-5.0683,-5.0683,-5.0683,-5.0683,-5.0683,-5.0683,-5.0683,-5.0683,-5.0683,-5.0683,-5.0683,-5.0683,-5.0683,-5.0683,-5.0683,-5.0683,-5.0683,-5.0683,-5.0683,-5.0798,-5.1125,-5.2029,-5.2365,-5.2481,-5.2914,-5.3337,-5.3741,-5.4203,-5.4568,-5.4953,-5.5376,-5.5607,-5.5472,-5.528,-5.5607,-5.5378,-5.4823,-5.4679,-5.4602,-5.392,-5.3308,-5.2563,-5.2072,-5.1436,-5.1235,-5.1318,-5.1348,-5.1387,-5.1387,-5.1387,-5.1387,-5.1387,-5.1387,-5.1387,-5.1387,-5.1387,-5.1387,-5.1387,-5.1387,-5.1387,-5.1387,-5.1387,-5.1387,-5.1387,-5.1387,-5.1387,-5.1387,-5.1387,-5.1387,-5.5684,-5.5684,-5.5684,-5.5684,-5.5684,-5.5684,-5.5684,-5.5684,-5.5684,-5.5684,-5.5684,-5.5684,-5.5684,-5.5684,-5.5684,-5.5684,-5.5684,-5.5684,-5.5684,-5.5684,-5.5684,-5.5684,-5.5684,-5.5684,-5.5684,-5.5684,-5.5684,-5.5684,-5.5684,-5.5684,-5.5665,-5.5472,-5.5415,-5.5434,-5.503,-5.4568,-5.4357,-5.4049,-5.2799,-5.1702,-5.1144,-5.0943,-5.0875,-5.0837,-5.0856,-5.0914,-5.0971,-5.0952,-5.0827,-5.0779,-5.0721,-5.0683,-5.0683,-5.0683,-5.0683,-5.0683,-5.0683,-5.0683,-5.0683,-5.0683,-5.0779,-5.0818,-5.0798,-5.0721,-5.0933,-5.1039,-5.1674,-5.3587,-5.3664,-5.3587,-5.3626,-5.3991,-5.4337,-5.4703,-5.5088,-5.5357,-5.5684,-5.5684,-5.553,-5.5434,-5.553,-5.5626,-5.5416,-5.5416,-5.5312,-5.4574,-5.3818,-5.3081,-5.2305,-5.1653,-5.117,-5.1258,-5.1301,-5.1348,-5.1387,-5.1387,-5.1387,-5.1387,-5.1387,-5.1387,-5.1387,-5.1387,-5.1387,-5.1387,-5.1387,-5.1387,-5.1387,-5.1387,-5.1387,-5.1387,-5.1387,-5.1387,-5.1387,-5.1387,-5.1387,-5.5684,-5.5684,-5.5684,-5.5684,-5.5684,-5.5684,-5.5684,-5.5684,-5.5684,-5.5684,-5.5684,-5.5684,-5.5684,-5.5684,-5.5684,-5.5684,-5.5684,-5.5684,-5.5684,-5.5684,-5.5684,-5.5684,-5.5684,-5.5684,-5.5684,-5.5684,-5.5684,-5.5684,-5.5684,-5.5684,-5.5684,-5.5684,-5.5684,-5.5645,-5.5684,-5.5357,-5.5222,-5.4838,-5.401,-5.2991,-5.2337,-5.2106,-5.2087,-5.2087,-5.2049,-5.2029,-5.1952,-5.1568,-5.1414,-5.1279,-5.1029,-5.0683,-5.0683,-5.0683,-5.0683,-5.0683,-5.0683,-5.0683,-5.0683,-5.0721,-5.0952,-5.1298,-5.1433,-5.1625,-5.1856,-5.1895,-5.2328,-5.4068,-5.4068,-5.4126,-5.4491,-5.4953,-5.5088,-5.5299,-5.5453,-5.5549,-5.5684,-5.5684,-5.5626,-5.553,-5.5453,-5.5588,-5.5684,-5.5626,-5.5541,-5.5159,-5.44,-5.3672,-5.2739,-5.1828,-5.1444,-5.1218,-5.1244,-5.1289,-5.1348,-5.1387,-5.1387,-5.1387,-5.1387,-5.1387,-5.1387,-5.1387,-5.1387,-5.1387,-5.1387,-5.1387,-5.1387,-5.1387,-5.1387,-5.1387,-5.1387,-5.1387,-5.1387,-5.1387,-5.1387,-5.5684,-5.5684,-5.5684,-5.5684,-5.5684,-5.5684,-5.5684,-5.5684,-5.5684,-5.5684,-5.5684,-5.5684,-5.5684,-5.5684,-5.5684,-5.5684,-5.5684,-5.5684,-5.5684,-5.5684,-5.5684,-5.5684,-5.5684,-5.5684,-5.5684,-5.5684,-5.5684,-5.5684,-5.5684,-5.5684,-5.5684,-5.5684,-5.5684,-5.5684,-5.5684,-5.5607,-5.5511,-5.5107,-5.4626,-5.3876,-5.3241,-5.3087,-5.3087,-5.3126,-5.3183,-5.3203,-5.3087,-5.2645,-5.225,-5.2125,-5.1798,-5.1568,-5.1529,-5.1587,-5.1568,-5.1568,-5.1587,-5.1548,-5.1433,-5.1395,-5.151,-5.1933,-5.2308,-5.2549,-5.3222,-5.3029,-5.3241,-5.4703,-5.4684,-5.4991,-5.5415,-5.5626,-5.5588,-5.5568,-5.5645,-5.5684,-5.5684,-5.5684,-5.5684,-5.5626,-5.5568,-5.5607,-5.5684,-5.5684,-5.5626,-5.5549,-5.5005,-5.4217,-5.3252,-5.2194,-5.1819,-5.1576,-5.1291,-5.1312,-5.1308,-5.1367,-5.1387,-5.1387,-5.1387,-5.1387,-5.1387,-5.1387,-5.1387,-5.1387,-5.1387,-5.1387,-5.1387,-5.1387,-5.1387,-5.1387,-5.1387,-5.1387,-5.1387,-5.1387,-5.1387,-5.5684,-5.5684,-5.5684,-5.5684,-5.5684,-5.5684,-5.5684,-5.5684,-5.5684,-5.5684,-5.5684,-5.5684,-5.5684,-5.5684,-5.5684,-5.5684,-5.5684,-5.5684,-5.5684,-5.5684,-5.5684,-5.5684,-5.5684,-5.5684,-5.5684,-5.5684,-5.5684,-5.5684,-5.5684,-5.5684,-5.5684,-5.5684,-5.5684,-5.5684,-5.5684,-5.5684,-5.5415,-5.5068,-5.4722,-5.428,-5.3683,-5.3453,-5.3433,-5.3376,-5.3299,-5.3222,-5.3222,-5.3183,-5.3126,-5.3106,-5.2799,-5.2664,-5.2568,-5.2606,-5.2587,-5.2587,-5.2606,-5.2645,-5.2683,-5.226,-5.2327,-5.2799,-5.326,-5.3587,-5.4241,-5.3645,-5.4087,-5.5241,-5.5241,-5.5395,-5.5626,-5.5684,-5.5684,-5.5684,-5.5684,-5.5684,-5.5684,-5.5684,-5.5684,-5.5684,-5.5684,-5.5684,-5.5684,-5.5684,-5.5684,-5.5626,-5.503,-5.4245,-5.3629,-5.273,-5.2372,-5.2013,-5.1511,-5.1355,-5.1301,-5.1308,-5.1308,-5.1328,-5.1348,-5.1367,-5.1387,-5.1387,-5.1387,-5.1387,-5.1387,-5.1387,-5.1387,-5.1387,-5.1387,-5.1387,-5.1387,-5.1387,-5.1387,-5.1387,-5.1387,-5.5684,-5.5684,-5.5684,-5.5684,-5.5684,-5.5684,-5.5684,-5.5684,-5.5684,-5.5684,-5.5684,-5.5684,-5.5684,-5.5684,-5.5684,-5.5684,-5.5684,-5.5684,-5.5684,-5.5684,-5.5684,-5.5684,-5.5684,-5.5684,-5.5684,-5.5684,-5.5684,-5.5684,-5.5684,-5.5684,-5.5684,-5.5684,-5.5684,-5.5684,-5.5684,-5.5684,-5.5472,-5.5357,-5.5203,-5.4972,-5.4895,-5.4722,-5.4722,-5.4722,-5.4722,-5.4722,-5.4684,-5.4241,-5.4068,-5.3876,-5.3549,-5.3414,-5.3376,-5.3356,-5.3356,-5.3356,-5.3376,-5.3568,-5.3818,-5.3299,-5.3145,-5.3895,-5.4434,-5.4838,-5.5126,-5.4838,-5.4953,-5.553,-5.5684,-5.5684,-5.5684,-5.5684,-5.5684,-5.5684,-5.5684,-5.5684,-5.5684,-5.5684,-5.5684,-5.5684,-5.5684,-5.5684,-5.5684,-5.5684,-5.5684,-5.5626,-5.4972,-5.4367,-5.3888,-5.3408,-5.3037,-5.2674,-5.2218,-5.1915,-5.1877,-5.1606,-5.1313,-5.1334,-5.1369,-5.1377,-5.1422,-5.1387,-5.1387,-5.1387,-5.1387,-5.1387,-5.1387,-5.1387,-5.1387,-5.1387,-5.1387,-5.1387,-5.1387,-5.1387,-5.1387,-5.5684,-5.5684,-5.5684,-5.5684,-5.5684,-5.5684,-5.5684,-5.5684,-5.5684,-5.5684,-5.5684,-5.5684,-5.5684,-5.5684,-5.5684,-5.5684,-5.5684,-5.5684,-5.5684,-5.5684,-5.5684,-5.5684,-5.5684,-5.5684,-5.5684,-5.5684,-5.5684,-5.5684,-5.5684,-5.5684,-5.5684,-5.5684,-5.5684,-5.5684,-5.5684,-5.5684,-5.5684,-5.5684,-5.5684,-5.5684,-5.5645,-5.5607,-5.5588,-5.5568,-5.553,-5.5511,-5.5395,-5.5068,-5.4895,-5.4703,-5.4414,-5.4068,-5.3972,-5.3953,-5.3953,-5.3933,-5.401,-5.4241,-5.4472,-5.4472,-5.4241,-5.4838,-5.5203,-5.553,-5.5684,-5.5684,-5.5588,-5.5626,-5.5684,-5.5684,-5.5684,-5.5684,-5.5684,-5.5684,-5.5684,-5.5684,-5.5684,-5.5684,-5.5684,-5.5684,-5.5684,-5.5684,-5.5684,-5.5684,-5.5684,-5.5684,-5.5434,-5.5011,-5.479,-5.4293,-5.3774,-5.3403,-5.3023,-5.2776,-5.2575,-5.2436,-5.2251,-5.1783,-5.1759,-5.1501,-5.148,-5.1458,-5.1406,-5.1387,-5.1387,-5.1387,-5.1387,-5.1387,-5.1387,-5.1387,-5.1387,-5.1387,-5.1387,-5.1387,-5.1387,-5.5684,-5.5684,-5.5684,-5.5684,-5.5684,-5.5684,-5.5684,-5.5684,-5.5684,-5.5684,-5.5684,-5.5684,-5.5684,-5.5684,-5.5684,-5.5684,-5.5684,-5.5684,-5.5684,-5.5684,-5.5684,-5.5684,-5.5684,-5.5684,-5.5684,-5.5684,-5.5684,-5.5684,-5.5684,-5.5684,-5.5684,-5.5684,-5.5684,-5.5684,-5.5684,-5.5684,-5.5684,-5.5684,-5.5684,-5.5684,-5.5684,-5.5684,-5.5684,-5.5684,-5.5684,-5.5684,-5.5626,-5.5568,-5.5415,-5.5338,-5.5338,-5.5184,-5.5222,-5.5261,-5.5299,-5.5338,-5.5395,-5.5511,-5.5588,-5.5588,-5.5491,-5.5453,-5.5626,-5.5665,-5.5684,-5.5684,-5.5684,-5.5684,-5.5684,-5.5684,-5.5684,-5.5684,-5.5684,-5.5684,-5.5684,-5.5684,-5.5684,-5.5684,-5.5684,-5.5684,-5.5684,-5.5684,-5.5684,-5.5684,-5.5684,-5.5684,-5.5684,-5.5588,-5.5395,-5.5117,-5.4552,-5.4217,-5.3867,-5.3533,-5.3356,-5.3385,-5.3152,-5.2596,-5.2203,-5.2017,-5.1745,-5.1646,-5.1562,-5.1445,-5.1348,-5.1308,-5.1348,-5.1387,-5.1387,-5.1387,-5.1387,-5.1387,-5.1387,-5.1387,-5.1387,-5.5684,-5.5684,-5.5684,-5.5684,-5.5684,-5.5684,-5.5684,-5.5684,-5.5684,-5.5684,-5.5684,-5.5684,-5.5684,-5.5684,-5.5684,-5.5684,-5.5684,-5.5684,-5.5684,-5.5684,-5.5684,-5.5684,-5.5684,-5.5684,-5.5684,-5.5684,-5.5684,-5.5684,-5.5684,-5.5684,-5.5684,-5.5684,-5.5684,-5.5684,-5.5684,-5.5684,-5.5684,-5.5684,-5.5684,-5.5684,-5.5684,-5.5684,-5.5684,-5.5684,-5.5684,-5.5684,-5.5684,-5.5684,-5.5684,-5.5684,-5.5684,-5.5684,-5.5684,-5.5684,-5.5684,-5.5684,-5.5684,-5.5684,-5.5684,-5.5665,-5.5665,-5.5684,-5.5684,-5.5684,-5.5684,-5.5684,-5.5684,-5.5684,-5.5684,-5.5684,-5.5684,-5.5684,-5.5684,-5.5684,-5.5684,-5.5684,-5.5684,-5.5684,-5.5684,-5.5684,-5.5684,-5.5684,-5.5684,-5.5684,-5.5684,-5.5684,-5.5684,-5.5684,-5.5549,-5.5568,-5.5263,-5.5032,-5.4717,-5.4342,-5.4119,-5.4075,-5.38,-5.3228,-5.2919,-5.2717,-5.2427,-5.2005,-5.166,-5.1523,-5.1348,-5.1216,-5.1271,-5.1308,-5.1367,-5.1387,-5.1367,-5.1387,-5.1387,-5.1387,-5.1387,-5.5684,-5.5684,-5.5684,-5.5684,-5.5684,-5.5684,-5.5684,-5.5684,-5.5684,-5.5684,-5.5684,-5.5684,-5.5684,-5.5684,-5.5684,-5.5684,-5.5684,-5.5684,-5.5684,-5.5684,-5.5684,-5.5684,-5.5684,-5.5684,-5.5684,-5.5684,-5.5684,-5.5684,-5.5684,-5.5684,-5.5684,-5.5684,-5.5684,-5.5684,-5.5684,-5.5684,-5.5684,-5.5684,-5.5684,-5.5684,-5.5684,-5.5684,-5.5684,-5.5684,-5.5684,-5.5684,-5.5684,-5.5684,-5.5684,-5.5684,-5.5684,-5.5684,-5.5684,-5.5684,-5.5684,-5.5684,-5.5684,-5.5684,-5.5684,-5.5684,-5.5684,-5.5684,-5.5684,-5.5684,-5.5684,-5.5684,-5.5684,-5.5684,-5.5684,-5.5684,-5.5684,-5.5684,-5.5684,-5.5684,-5.5684,-5.5684,-5.5684,-5.5684,-5.5684,-5.5684,-5.5684,-5.5684,-5.5684,-5.5684,-5.5684,-5.5684,-5.5684,-5.5684,-5.5684,-5.5684,-5.5684,-5.5502,-5.5367,-5.5052,-5.4793,-5.4689,-5.4351,-5.3855,-5.3644,-5.3507,-5.2854,-5.2403,-5.1981,-5.1579,-5.1375,-5.1222,-5.1193,-5.123,-5.1269,-5.1308,-5.1308,-5.1328,-5.1387,-5.1387,-5.1387,-5.5684,-5.5684,-5.5684,-5.5684,-5.5684,-5.5684,-5.5684,-5.5684,-5.5684,-5.5684,-5.5684,-5.5684,-5.5684,-5.5684,-5.5684,-5.5684,-5.5684,-5.5684,-5.5684,-5.5684,-5.5684,-5.5684,-5.5684,-5.5684,-5.5684,-5.5684,-5.5684,-5.5684,-5.5684,-5.5684,-5.5684,-5.5684,-5.5684,-5.5684,-5.5684,-5.5684,-5.5684,-5.5684,-5.5684,-5.5684,-5.5684,-5.5684,-5.5684,-5.5684,-5.5684,-5.5684,-5.5684,-5.5684,-5.5684,-5.5684,-5.5684,-5.5684,-5.5684,-5.5684,-5.5684,-5.5684,-5.5684,-5.5684,-5.5684,-5.5684,-5.5684,-5.5684,-5.5684,-5.5684,-5.5684,-5.5684,-5.5684,-5.5684,-5.5684,-5.5684,-5.5684,-5.5684,-5.5684,-5.5684,-5.5684,-5.5684,-5.5684,-5.5684,-5.5684,-5.5684,-5.5684,-5.5684,-5.5684,-5.5684,-5.5684,-5.5684,-5.5684,-5.5684,-5.5684,-5.5684,-5.5684,-5.5684,-5.5598,-5.5626,-5.5453,-5.5203,-5.5042,-5.4583,-5.4506,-5.4303,-5.3569,-5.2876,-5.2434,-5.1993,-5.1464,-5.1206,-5.1118,-5.1107,-5.1152,-5.118,-5.1216,-5.1308,-5.1367,-5.1387,-5.1387,-5.5684,-5.5684,-5.5684,-5.5684,-5.5684,-5.5684,-5.5684,-5.5684,-5.5684,-5.5684,-5.5684,-5.5684,-5.5684,-5.5684,-5.5684,-5.5684,-5.5684,-5.5684,-5.5684,-5.5684,-5.5684,-5.5684,-5.5684,-5.5684,-5.5684,-5.5684,-5.5684,-5.5684,-5.5684,-5.5684,-5.5684,-5.5684,-5.5684,-5.5684,-5.5684,-5.5684,-5.5684,-5.5684,-5.5684,-5.5684,-5.5684,-5.5684,-5.5684,-5.5684,-5.5684,-5.5684,-5.5684,-5.5684,-5.5684,-5.5684,-5.5684,-5.5684,-5.5684,-5.5684,-5.5684,-5.5684,-5.5684,-5.5684,-5.5684,-5.5684,-5.5684,-5.5684,-5.5684,-5.5684,-5.5684,-5.5684,-5.5684,-5.5684,-5.5684,-5.5684,-5.5684,-5.5684,-5.5684,-5.5684,-5.5684,-5.5684,-5.5684,-5.5684,-5.5684,-5.5684,-5.5684,-5.5684,-5.5684,-5.5684,-5.5684,-5.5684,-5.5684,-5.5684,-5.5684,-5.5684,-5.5684,-5.5684,-5.5684,-5.5684,-5.5684,-5.5491,-5.5472,-5.5397,-5.5214,-5.4963,-5.4362,-5.3676,-5.302,-5.2288,-5.1523,-5.1146,-5.0992,-5.0997,-5.1017,-5.1099,-5.1133,-5.124,-5.1328,-5.1348,-5.1348,-5.5684,-5.5684,-5.5684,-5.5684,-5.5684,-5.5684,-5.5684,-5.5684,-5.5684,-5.5684,-5.5684,-5.5684,-5.5684,-5.5684,-5.5684,-5.5684,-5.5684,-5.5684,-5.5684,-5.5684,-5.5684,-5.5684,-5.5684,-5.5684,-5.5684,-5.5684,-5.5684,-5.5684,-5.5684,-5.5684,-5.5684,-5.5684,-5.5684,-5.5684,-5.5684,-5.5684,-5.5684,-5.5684,-5.5684,-5.5684,-5.5684,-5.5684,-5.5684,-5.5684,-5.5684,-5.5684,-5.5684,-5.5684,-5.5684,-5.5684,-5.5684,-5.5684,-5.5684,-5.5684,-5.5684,-5.5684,-5.5684,-5.5684,-5.5684,-5.5684,-5.5684,-5.5684,-5.5684,-5.5684,-5.5684,-5.5684,-5.5684,-5.5684,-5.5684,-5.5684,-5.5684,-5.5684,-5.5684,-5.5684,-5.5684,-5.5684,-5.5684,-5.5684,-5.5684,-5.5684,-5.5684,-5.5684,-5.5684,-5.5684,-5.5684,-5.5684,-5.5684,-5.5684,-5.5684,-5.5684,-5.5684,-5.5684,-5.5684,-5.5684,-5.5684,-5.5684,-5.5645,-5.5588,-5.556,-5.5271,-5.4895,-5.4185,-5.3244,-5.2328,-5.1439,-5.1202,-5.1067,-5.0921,-5.0911,-5.0972,-5.102,-5.1093,-5.117,-5.123,-5.125,-5.5684,-5.5684,-5.5684,-5.5684,-5.5684,-5.5684,-5.5684,-5.5684,-5.5684,-5.5684,-5.5684,-5.5684,-5.5684,-5.5684,-5.5684,-5.5684,-5.5684,-5.5684,-5.5684,-5.5684,-5.5684,-5.5684,-5.5684,-5.5684,-5.5684,-5.5684,-5.5684,-5.5684,-5.5684,-5.5684,-5.5684,-5.5684,-5.5684,-5.5684,-5.5684,-5.5684,-5.5684,-5.5684,-5.5684,-5.5684,-5.5684,-5.5684,-5.5684,-5.5684,-5.5684,-5.5684,-5.5684,-5.5684,-5.5684,-5.5684,-5.5684,-5.5684,-5.5684,-5.5684,-5.5684,-5.5684,-5.5684,-5.5684,-5.5684,-5.5684,-5.5684,-5.5684,-5.5684,-5.5684,-5.5684,-5.5684,-5.5684,-5.5684,-5.5684,-5.5684,-5.5684,-5.5566,-5.5489,-5.5489,-5.5489,-5.5489,-5.5489,-5.5566,-5.5684,-5.5684,-5.5684,-5.5684,-5.5684,-5.5684,-5.5684,-5.5684,-5.5684,-5.5684,-5.5684,-5.5684,-5.5684,-5.5684,-5.5684,-5.5684,-5.5684,-5.5684,-5.5684,-5.5684,-5.5684,-5.5645,-5.5338,-5.4434,-5.3386,-5.2858,-5.2406,-5.1568,-5.1221,-5.1034,-5.0872,-5.0851,-5.0896,-5.0933,-5.099,-5.1044,-5.1135,-5.5684,-5.5684,-5.5684,-5.5684,-5.5684,-5.5684,-5.5684,-5.5684,-5.5684,-5.5684,-5.5684,-5.5684,-5.5684,-5.5684,-5.5684,-5.5684,-5.5684,-5.5684,-5.5684,-5.5684,-5.5684,-5.5684,-5.5684,-5.5684,-5.5684,-5.5684,-5.5684,-5.5684,-5.5684,-5.5684,-5.5684,-5.5684,-5.5684,-5.5684,-5.5684,-5.5684,-5.5684,-5.5684,-5.5684,-5.5684,-5.5684,-5.5684,-5.5684,-5.5684,-5.5684,-5.5684,-5.5684,-5.5684,-5.5684,-5.5684,-5.5684,-5.5684,-5.5684,-5.5673,-5.5673,-5.5684,-5.5599,-5.5577,-5.5577,-5.5566,-5.5554,-5.5629,-5.564,-5.5673,-5.5684,-5.5684,-5.5684,-5.5684,-5.5684,-5.5684,-5.564,-5.5435,-5.5282,-5.5282,-5.5256,-5.5256,-5.5269,-5.5466,-5.5651,-5.5684,-5.5684,-5.5684,-5.5684,-5.5684,-5.5684,-5.5684,-5.5684,-5.5684,-5.5684,-5.5684,-5.5684,-5.5684,-5.5684,-5.5684,-5.5684,-5.5684,-5.5684,-5.5684,-5.5684,-5.5684,-5.5684,-5.4953,-5.4126,-5.3991,-5.3578,-5.2606,-5.1683,-5.1068,-5.0922,-5.0977,-5.0782,-5.0819,-5.0795,-5.084,-5.0953,-5.5684,-5.5684,-5.5684,-5.5684,-5.5684,-5.5684,-5.5684,-5.5684,-5.5684,-5.5684,-5.5684,-5.5684,-5.5684,-5.5684,-5.5684,-5.5684,-5.5684,-5.5684,-5.5684,-5.5684,-5.5673,-5.5684,-5.5684,-5.5684,-5.5684,-5.5684,-5.5684,-5.5684,-5.5684,-5.5684,-5.5684,-5.5684,-5.5684,-5.5684,-5.5684,-5.5684,-5.5684,-5.5684,-5.5684,-5.5684,-5.5684,-5.5684,-5.5684,-5.5684,-5.5703,-5.5684,-5.5684,-5.5684,-5.5684,-5.561,-5.5524,-5.5423,-5.5331,-5.5199,-5.5147,-5.5134,-5.5121,-5.5173,-5.5205,-5.5231,-5.5244,-5.5256,-5.5205,-5.5088,-5.5101,-5.5115,-5.547,-5.5512,-5.5673,-5.5684,-5.5588,-5.5423,-5.5237,-5.5173,-5.5007,-5.4909,-5.5048,-5.525,-5.5501,-5.5684,-5.5684,-5.5684,-5.5684,-5.5684,-5.5684,-5.5684,-5.5684,-5.5684,-5.5684,-5.5684,-5.5684,-5.5684,-5.5684,-5.5684,-5.5684,-5.5684,-5.5684,-5.5684,-5.5684,-5.5684,-5.5665,-5.5357,-5.4991,-5.4549,-5.4049,-5.3395,-5.2529,-5.1722,-5.1375,-5.1443,-5.1077,-5.0702,-5.0683,-5.0683,-5.0789,-5.5684,-5.5684,-5.5684,-5.5684,-5.5684,-5.5684,-5.5684,-5.5684,-5.5621,-5.5651,-5.5651,-5.5566,-5.5588,-5.5684,-5.5684,-5.5684,-5.5662,-5.5535,-5.5577,-5.5662,-5.5618,-5.564,-5.5662,-5.5684,-5.5684,-5.5684,-5.5684,-5.5684,-5.5684,-5.5684,-5.5684,-5.5684,-5.5684,-5.5684,-5.5684,-5.5684,-5.5684,-5.5684,-5.5684,-5.5684,-5.5684,-5.5684,-5.5684,-5.5703,-5.5651,-5.564,-5.561,-5.5566,-5.5535,-5.5411,-5.5154,-5.5075,-5.4979,-5.4804,-5.4701,-5.4689,-5.4705,-5.4674,-5.4628,-5.4674,-5.4628,-5.4582,-5.4503,-5.4519,-5.4563,-5.4697,-5.5056,-5.5275,-5.5435,-5.5535,-5.5435,-5.5343,-5.5154,-5.4905,-5.4701,-5.4597,-5.4804,-5.5048,-5.5319,-5.5588,-5.5651,-5.5651,-5.5684,-5.5684,-5.5684,-5.5684,-5.5684,-5.5684,-5.5684,-5.5684,-5.5684,-5.5684,-5.5684,-5.5684,-5.5684,-5.5684,-5.5684,-5.5684,-5.5684,-5.5684,-5.5645,-5.5472,-5.5184,-5.4703,-5.4203,-5.3818,-5.3203,-5.2414,-5.2183,-5.1923,-5.1202,-5.0712,-5.0683,-5.0683,-5.0683,-5.5684,-5.5684,-5.5684,-5.5684,-5.5684,-5.5684,-5.5684,-5.5632,-5.5363,-5.5368,-5.5435,-5.5053,-5.504,-5.5684,-5.5684,-5.5662,-5.5546,-5.5368,-5.547,-5.5632,-5.5338,-5.5435,-5.5524,-5.5446,-5.5651,-5.561,-5.5566,-5.5662,-5.5477,-5.5566,-5.5662,-5.561,-5.5662,-5.5673,-5.5673,-5.5684,-5.5684,-5.5684,-5.5684,-5.5684,-5.5684,-5.5684,-5.5684,-5.5588,-5.5387,-5.5294,-5.5147,-5.4895,-5.4794,-5.4705,-5.4671,-5.4625,-5.4532,-5.4455,-5.4357,-5.4274,-5.4307,-5.4307,-5.429,-5.429,-5.4274,-5.4307,-5.429,-5.4324,-5.4307,-5.417,-5.4465,-5.4621,-5.4819,-5.5075,-5.5048,-5.5061,-5.4905,-5.4513,-5.424,-5.4305,-5.4449,-5.4756,-5.5061,-5.5306,-5.5489,-5.5577,-5.5684,-5.5684,-5.5684,-5.5684,-5.5684,-5.5684,-5.5684,-5.5684,-5.5684,-5.5684,-5.5684,-5.5684,-5.5684,-5.5684,-5.5684,-5.5684,-5.5684,-5.5684,-5.5684,-5.5684,-5.5376,-5.5049,-5.4741,-5.4414,-5.3741,-5.326,-5.2645,-5.225,-5.1279,-5.0712,-5.0741,-5.0683,-5.0683]},{"header":{"parameterUnit":"m.s-1","parameterCategory":1,"la1":31.0,"la2":29.5877,"lo1":-88.7671,"lo2":-86.6584,"dy":0.0162,"dx":0.0185,"nx":115,"ny":88,"refTime":"2024-07-18T06:00:00:Z","depth":0,"parameterNumber":3,"parameterNumberName":"V-component_of_WINDS"},"data":[0.0,0.0,0.0,0.0,0.0,0.0,0.0,0.0,0.0,0.0,0.0,0.0,0.0,0.0,0.0,0.0,0.0,0.0,0.0,0.0,0.0,0.0,0.0,0.0,0.0,0.0,0.0,0.0,0.0,0.0,0.0,0.0,0.0,0.0,0.0,0.0,0.0,0.0,0.0,0.0,0.0,0.0,0.0,0.0,0.0,0.0,0.0,0.0,0.0,0.0,0.0,0.0,0.0,0.0,0.0,0.0,0.0,0.0,0.0,0.0,0.0,0.0,0.0,0.0,0.0,0.0,0.0,0.0,0.0,0.0,0.0,0.0,0.0,0.0,0.0,0.0,0.0,0.0,0.0,0.0,0.0,0.0,0.0,0.0,0.0,0.0,0.0,0.0,0.0,0.0,0.0,0.0,0.0,0.0,0.0,0.0,0.0,0.0,0.0,0.0,0.0,0.0,0.0,0.0,0.0,0.0,0.0,0.0,0.0,0.0,0.0,0.0,0.0,0.0,0.0,0.0,0.0,0.0,0.0,0.0,0.0,0.0,0.0,0.0,0.0,0.0,0.0,0.0,0.0,0.0,0.0,0.0,0.0,0.0,0.0,0.0,0.0,0.0,0.0,0.0,0.0,0.0,0.0,0.0,0.0,0.0,0.0,0.0,0.0,0.0,0.0,0.0,0.0,0.0,0.0,0.0,0.0,0.0,0.0,0.0,0.0,0.0,0.0,0.0,0.0,0.0,0.0,0.0,0.0,0.0,0.0,0.0,0.0,0.0,0.0,0.0,0.0,0.0,0.0,0.0,0.0,0.0,0.0,0.0,0.0,0.0,0.0,0.0,0.0,0.0,0.0,0.0,0.0,0.0,0.0,0.0,0.0,0.0,0.0,0.0,0.0,0.0,0.0,0.0,0.0,0.0,0.0,0.0,0.0,0.0,0.0,0.0,0.0,0.0,0.0,0.0,0.0,0.0,0.0,0.0,0.0,0.0,0.0,0.0,0.0,0.0,0.0,0.0,0.0,0.0,0.0,0.0,0.0,0.0,0.0,0.0,0.0,0.0,0.0,0.0,0.0,0.0,0.0,0.0,0.0,0.0,0.0,0.0,0.0,0.0,0.0,0.0,0.0,0.0,0.0,0.0,0.0,0.0,0.0,0.0,0.0,0.0,0.0,0.0,0.0,0.0,0.0,0.0,0.0,0.0,0.0,0.0,0.0,0.0,0.0,0.0,0.0,0.0,0.0,0.0,0.0,0.0,0.0,0.0,0.0,0.0,0.0,0.0,0.0,0.0,0.0,0.0,0.0,0.0,0.0,0.0,0.0,0.0,0.0,0.0,0.0,0.0,0.0,0.0,0.0,0.0,0.0,0.0,0.0,0.0,0.0,0.0,0.0,0.0,0.0,0.0,0.0,0.0,0.0,0.0,0.0,0.0,0.0,0.0,0.0,0.0,0.0,0.0,0.0,0.0,0.0,0.0,0.0,0.0,0.0,0.0,0.0,0.0,0.0,0.0,0.0,0.0,0.0,0.0,0.0,0.0,0.0,0.0,0.0,0.0,0.0,0.0,0.0,0.0,0.0,0.0,0.0,0.0,0.0,0.0,0.0,0.0,0.0,0.0,0.0,0.0,0.0,0.0,0.0,0.0,0.0,0.0,0.0,0.0,0.0,0.0,0.0,0.0,0.0,0.0,0.0,0.0,0.0,0.0,0.0,0.0,0.0,0.0,0.0,0.0,0.0,0.0,0.0,0.0,0.0,0.0,0.0,0.0,0.0,0.0,0.0,0.0,0.0,0.0,0.0,0.0,0.0,0.0,0.0,0.0,0.0,0.0,0.0,0.0,0.0,0.0,0.0,0.0,0.0,0.0,0.0,0.0,0.0,0.0,0.0,0.0,0.0,0.0,0.0,0.0,0.0,0.0,0.0,0.0,0.0,0.0,0.0,0.0,0.0,0.0,0.0,0.0,0.0,0.0,0.0,0.0,0.0,0.0,0.0,0.0,0.0,0.0,0.0,0.0,0.0,0.0,0.0,0.0,0.0,0.0,0.0,0.0,0.0,0.0,0.0,0.0,0.0,0.0,0.0,0.0,0.0,0.0,0.0,0.0,0.0,0.0,0.0,0.0,0.0,0.0,0.0,0.0,0.0,0.0,0.0,0.0,0.0,0.0,0.0,0.0,0.0,0.0,0.0,0.0,0.0,0.0,0.0,0.0,0.0,0.0,0.0,0.0,0.0,0.0,0.0,0.0,0.0,0.0,0.0,0.0,0.0,0.0,0.0,0.0,0.0,0.0,0.0,0.0,0.0,0.0,0.0,0.0,0.0,0.0,0.0,0.0,0.0,0.0,0.0,0.0,0.0,0.0,0.0,0.0,0.0,0.0,0.0,0.0,0.0,0.0,0.0,0.0,0.0,0.0,0.0,0.0,0.0,0.0,0.0,0.0,0.0,0.0,0.0,0.0,0.0,0.0,0.0,0.0,0.0,0.0,0.0,0.0,0.0,0.0,0.0,0.0,0.0,0.0,0.0,0.0,0.0,0.0,0.0,0.0,0.0,0.0,0.0,0.0,0.0,0.0,0.0,0.0,0.0,0.0,0.0,0.0,0.0,0.0,0.0,0.0,0.0,0.0,0.0,0.0,0.0,0.0,0.0,0.0,0.0,0.0,0.0,0.0,0.0,0.0,0.0,0.0,0.0,0.0,0.0,0.0,0.0,0.0,0.0,0.0,0.0,0.0,0.0,0.0,0.0,0.0,0.0,0.0,0.0,0.0,0.0,0.0,0.0,0.0,0.0,0.0,0.0,0.0,0.0,0.0,0.0,0.0,0.0,0.0,0.0,0.0,0.0,0.0,0.0,0.0,0.0,0.0,0.0,0.0,0.0,0.0,0.0,0.0,0.0,0.0,0.0,0.0,0.0,0.0,0.0,0.0,0.0,0.0,0.0,0.0,0.0,0.0,0.0,0.0,0.0,0.0,0.0,0.0,0.0,0.0,0.0,0.0,0.0,0.0,0.0,0.0,0.0,0.0,0.0,0.0,0.0,0.0,0.0,0.0,0.0,0.0,0.0,0.0,0.0,0.0,0.0,0.0,0.0,0.0,0.0,0.0,0.0,0.0,0.0,0.0,0.0,0.0,0.0,0.0,0.0,0.0,0.0,0.0,0.0,0.0,0.0,0.0,0.0,0.0,0.0,0.0,0.0,0.0,0.0,0.0,0.0,0.0,0.0,0.0,0.0,0.0,0.0,0.0,0.0,0.0,0.0,0.0,0.0,0.0,0.0,0.0,0.0,0.0,0.0,0.0,0.0,0.0,0.0,0.0,0.0,0.0,0.0,0.0,0.0,0.0,0.0,0.0,0.0,0.0,0.0,0.0,0.0,0.0,0.0,0.0,0.0,0.0,0.0,0.0,0.0,0.0,0.0,0.0,0.0,0.0,0.0,0.0,0.0,0.0,0.0,0.0,0.0,0.0,0.0,0.0,0.0,0.0,0.0,0.0,0.0,0.0,0.0,0.0,0.0,0.0,0.0,0.0,0.0,0.0,0.0,0.0,0.0,0.0,0.0,0.0,0.0,0.0,0.0,0.0,0.0,0.0,0.0,0.0,0.0,0.0,0.0,0.0,0.0,0.0,0.0,0.0,0.0,0.0,0.0,0.0,0.0,0.0,0.0,0.0,0.0,0.0,0.0,0.0,0.0,0.0,0.0,0.0,0.0,0.0,0.0,0.0,0.0,0.0,0.0,0.0,0.0,0.0,0.0,0.0,0.0,0.0,0.0,0.0,0.0,0.0,0.0,0.0,0.0,0.0,0.0,0.0,0.0,0.0,0.0,0.0,0.0,0.0,0.0,0.0,0.0,0.0,0.0,0.0,0.0,0.0,0.0,0.0,0.0,0.0,0.0,0.0,0.0,0.0,0.0,0.0,0.0,0.0,0.0,0.0,0.0,0.0,0.0,0.0,0.0,0.0,0.0,0.0,0.0,0.0,0.0,0.0,0.0,0.0,0.0,0.0,0.0,0.0,0.0,0.0,0.0,0.0,0.0,0.0,0.0,0.0,0.0,0.0,0.0,0.0,0.0,0.0,0.0,0.0,0.0,0.0,0.0,0.0,0.0,0.0,0.0,0.0,0.0,0.0,0.0,0.0,0.0,0.0,0.0,0.0,0.0,0.0,0.0,0.0,0.0,0.0,0.0,0.0,0.0,0.0,0.0,0.0,0.0,0.0,0.0,0.0,0.0,0.0,0.0,0.0,0.0,0.0,0.0,0.0,0.0,0.0,0.0,0.0,0.1957,0.0,0.0,0.0,0.0,0.0,0.0,0.0,0.0,0.0,0.0,0.0,0.0,0.0,0.0,0.0,0.0,0.0,0.0,0.0,0.0,0.0,0.0,0.0,0.0,0.0,0.0,0.0,0.0,0.0,0.0,0.0,0.0,0.0,0.0,0.0,0.0,0.0,0.0,0.0,0.0,0.0,0.0,0.0,0.0,0.0,0.0,0.0,0.0,0.0,0.0,0.0,0.0,0.0,0.0,0.0,0.0,0.0,0.0,0.0,0.0,0.0,0.0,0.0,0.0,0.0,0.0,0.0,0.0,0.0,0.0,0.0,0.0,0.0,0.0,0.0,0.0,0.0,0.0,0.0,0.0,0.0,0.0,0.0,0.0,0.0,0.0,0.0,0.0,0.0,0.0,0.0,0.0,0.0,0.0,0.0,0.0,0.0,0.0,0.0,0.0,0.0,0.0,0.0,0.0,0.0,0.0,0.0,0.0,0.0,0.0,0.2143,0.1997,0.2139,0.2077,0.1814,0.0,0.0,0.0,0.0,0.0,0.0,0.0,0.0,0.0,0.0,0.0,0.0,0.0,0.0,0.0,0.0,0.0,0.0,0.0,0.0,0.0,0.0,0.0,0.0,0.0,0.0,0.0,0.0,0.0,0.0,0.0,0.0,0.0,0.0,0.0,0.0,0.0,0.0,0.0,0.0,0.0,0.0,0.0,0.0,0.0,0.0,0.0,0.0,0.0,0.0,0.0,0.0,0.0,0.0,0.0,0.0,0.0,0.0,0.0,0.0,0.0,0.0,0.0,0.0,0.0,0.0,0.0,0.0,0.0,0.0,0.0,0.0,0.0,0.0,0.0,0.0,0.0,0.0,0.0,0.0,0.0,0.0,0.0,0.0,0.0,0.0,0.0,0.0,0.0,0.0,0.0,0.0,0.0,0.0,0.0,0.0,0.0,0.0,0.0,0.0,0.0,0.0,0.0,0.0,0.0,0.0,0.0,0.0,0.0,0.0,0.0,0.0,0.1926,0.1897,0.1894,0.0,0.0,0.0,0.0,0.0,0.0,0.0,0.0,0.0,0.0,0.0,0.0,0.0,0.0,0.0,0.0,0.0,0.0,0.0,0.0,0.0,0.0,0.0,0.0,0.0,0.0,0.0,0.0,0.0,0.0,0.0,0.0,0.0,0.0,0.0,0.0,0.0,0.0,0.0,0.0,0.0,0.0,0.0,0.0,0.0,0.0,0.0,0.0,0.0,0.0,0.0,0.0,0.0,0.0,0.0,0.0,0.0,0.0,0.0,0.0,0.0,0.0,0.0,0.0,0.0,0.0,0.0,0.0,0.0,0.0,0.0,0.0,0.0,0.0,0.0,0.0,0.0,0.0,0.0,0.0,0.0,0.0,0.0,0.0,0.0,0.0,0.0,0.0,0.0,0.0,0.0,0.0,0.0,0.0,0.0,0.0,0.0,0.0,0.0,0.0,0.0,0.0,0.0,0.0,0.0,0.0,0.0,0.0,0.0,0.0,0.2014,0.2418,0.2248,0.0,0.2167,0.0,0.0,0.0,0.0,0.0,0.0,0.0,0.0,0.0,0.0,0.0,0.0,0.0,0.0,0.0,0.0,0.0,0.0,0.0,0.0,0.0,0.0,0.0,0.0,0.0,0.0,0.0,0.0,0.0,0.0,0.0,0.0,0.0,0.0,0.0,0.0,0.0,0.0,0.0,0.0,0.0,0.0,0.0,0.0,0.0,0.0,0.0,0.0,0.0,0.0,0.0,0.0,0.0,0.0,0.0,0.0,0.0,0.0,0.0,0.0,0.0,0.0,0.0,0.0,0.0,0.0,0.0,0.0,0.0,0.0,0.0,0.0,0.0,0.0,0.0,0.0,0.0,0.0,0.0,0.0,0.0,0.0,0.0,0.0,0.0,0.0,0.0,0.0,0.0,0.0,0.0,0.0,0.0,0.0,0.0,0.0,0.0,0.0,0.0,0.0,0.0,0.0,0.0,0.0,0.0,0.0,0.0,0.0,0.0,0.0,0.0,0.2323,0.2255,0.2197,0.0,0.0,0.0,0.0,0.0,0.0,0.0,0.0,0.0,0.0,0.0,0.0,0.0,0.0,0.0,0.0,0.0,0.0,0.0,0.0,0.0,0.0,0.0,0.0,0.0,0.0,0.0,0.0,0.0,0.0,0.0,0.0,0.0,0.0,0.0,0.0,0.0,0.0,0.0,0.0,0.0,0.0,0.0,0.0,0.0,0.0,0.0,0.0,0.0,0.0,0.0,0.0,0.0,0.0,0.0,0.0,0.0,0.0,0.0,0.0,0.0,0.0,0.0,0.0,0.0,0.0,0.0,0.0,0.0,0.0,0.0,0.0,0.0,0.0,0.0,0.0,0.0,0.0,0.0,0.0,0.0,0.0,0.0,0.0,0.0,0.0,0.0,0.0,0.0,0.0,0.0,0.0,0.0,0.0,0.0,0.0,0.0,0.0,0.0,0.0,0.0,0.0,0.0,0.0,0.0,0.0,0.0,0.0,0.0,0.0,0.2263,0.0,0.2377,0.2351,0.2309,0.22,0.0,0.0,0.0,0.0,0.0,0.0,0.0,0.0,0.0,0.0,0.0,0.0,0.0,0.0,0.0,0.0,0.0,0.0,0.0,0.0,0.0,0.0,0.0,0.0,0.0,0.0,0.0,0.0,0.0,0.0,0.0,0.0,0.0,0.0,0.0,0.0,0.0,0.0,0.0,0.0,0.0,0.0,0.0,0.0,0.0,0.0,0.0,0.0,0.0,0.0,0.0,0.0,0.0,0.0,0.0,0.0,0.0,0.0,0.0,0.0,0.0,0.0,0.0,0.0,0.0,0.0,0.0,0.0,0.0,0.0,0.0,0.0,0.0,0.0,0.0,0.0,0.0,0.0,0.0,0.0,0.0,0.0,0.0,0.0,0.0,0.0,0.0,0.0,0.0,0.0,0.0,0.0,0.0,0.0,0.0,0.0,0.0,0.0,0.0,0.0,0.0,0.0,0.0,0.0,0.0,0.0,0.0,0.0,0.0,0.2227,0.2286,0.2824,0.2754,0.2527,0.0,0.0,0.0,0.0,0.0,0.0,0.0,0.0,0.0,0.0,0.0,0.0,0.0,0.0,0.0,0.0,0.0,0.0,0.0,0.0,0.0,0.0,0.0,0.0,0.0,0.0,0.0,0.0,0.0,0.0,0.0,0.0,0.0,0.0,0.0,0.0,0.0,0.0,0.0,0.0,0.0,0.0,0.0,0.0,0.0,0.0,0.0,0.0,0.0,0.0,0.0,0.0,0.0,0.0,0.0,0.0,0.0,0.0,0.0,0.0,0.0,0.0,0.0,0.0,0.0,0.0,0.0,0.0,0.0,0.0,0.0,0.0,0.0,0.0,0.0,0.0,0.0,0.0,0.0,0.0,0.0,0.0,0.0,0.0,0.0,0.0,0.0,0.0,0.0,0.0,0.0,0.0,0.0,0.0,0.0,0.0,0.0,0.0,0.0,0.0,0.0,0.0,0.0,0.0,0.0,0.0,0.0,0.0,0.0,0.1517,0.1547,0.1975,0.0,0.2186,0.1926,0.0,0.0,0.0,0.0,0.0,0.0,0.0,0.0,0.0,0.0,0.0,0.0,0.0,0.0,0.0,0.0,0.0,0.0,0.0,0.0,0.0,0.0,0.0,0.0,0.0,0.0,0.0,0.0,0.0,0.0,0.0,0.0,0.0,0.0,0.0,0.0,0.0,0.0,0.0,0.0,0.0,0.0,0.0,0.0,0.0,0.0,0.0,0.0,0.0,0.0,0.0,0.0,0.0,0.0,0.0,0.0,0.0,0.0,0.0,0.0,0.0,0.0,0.0,0.0,0.0,0.0,0.0,0.0,0.0,0.0,0.0,0.0,0.0,0.0,0.0,0.0,0.0,0.0,0.0,0.0,0.0,0.0,0.0,0.0,0.0,0.0,0.0,0.0,0.0,0.0,0.0,0.0,0.0,0.0,0.0,0.0,0.0,0.0,0.0,0.0,0.0,0.0,0.0,0.0,0.0,0.0,0.0,0.0,0.0,0.0955,0.0,0.1984,0.0,0.173,0.1455,0.0,0.0,0.0,0.0,0.0,0.0,0.0,0.0,0.0,0.0,0.0,0.0,0.0,0.0,0.0,0.0,0.0,0.0,0.0,0.0,0.0,0.0,0.0,0.0,0.0,0.0,0.0,0.0,0.0,0.0,0.0,0.0,0.0,0.0,0.0,0.0,0.0,0.0,0.0,0.0,0.0,0.0,0.0,0.0,0.0,0.0,0.0,0.0,0.0,0.0,0.0,0.0,0.0,0.0,0.0,0.0,0.0,0.0,0.0,0.0,0.0,0.0,0.0,0.0,0.0,0.0,0.0,0.0,0.0,0.0,0.0,0.0,0.0,0.0,0.0,0.0,0.0,0.0,0.0,0.0,0.0,0.0,0.0,0.0,0.0,0.0,0.0,0.0,0.0,0.0,0.0,0.0,0.0,0.0,0.0,0.0,0.0,0.0,0.0,0.0,0.0,0.0,0.0,0.0,0.0,0.0,0.0,0.0,0.0363,0.1073,0.2082,0.2277,0.1651,0.1429,0.1182,0.0,0.0,0.0,0.0,0.0,0.0,0.0,0.0,0.0,0.0,0.0,0.0,0.0,0.0,0.0,0.0,0.0,0.0,0.0,0.0,0.0,0.0,0.0,0.0,0.0,0.0,0.0,0.0,0.0,0.0,0.0,0.0,0.0,0.0,0.0,0.0,0.0,0.0,0.0,0.0,0.0,0.0,0.0,0.0,0.0,0.0,0.0,0.0,0.0,0.0,0.0,0.0,0.0,0.0,0.0,0.0,0.0,0.0,0.0,0.0,0.0,0.0,0.0,0.0,0.0,0.0,0.0,0.0,0.0,0.0,0.0,0.0,0.0,0.0,0.0,0.0,0.0,0.0,0.0,0.0,0.0,0.0,0.0,0.0,0.0,0.0,0.0,0.0,0.0,0.0,0.0,0.0,0.0,0.0,0.0,0.0,0.0,0.0,0.0,0.0,0.0,0.0,0.0,0.0,0.0,0.0,0.0,0.0,0.0,0.0367,0.1071,0.1585,0.1828,0.1321,0.1231,0.0,0.0,0.0,0.0,0.0,0.0,0.0,0.0,0.0,0.0,0.0,0.0,0.0,0.0,0.0,0.0,0.0,0.0,0.0,0.0,0.0,0.0,0.0,0.0,0.0,0.0,0.0,0.0,0.0,0.0,0.0,0.0,0.0,0.0,0.0,0.0,0.0,0.0,0.0,0.0,0.0,0.0,0.0,0.0,0.0,0.0,0.0,0.0,0.0,0.0,0.0,0.0,0.0,0.0,0.0,0.0,0.0,0.0,0.0,0.0,0.0,0.0,0.0,0.0,0.0,0.0,0.0,0.0,0.0,0.0,0.0,0.0,0.0,0.0,0.0,0.0,0.0,0.0,0.0,0.0,0.0,0.0,0.0,0.0,0.0,0.0,0.0,0.0,0.0,0.0,0.0,0.0,0.0,0.0,0.0,0.0,0.0,0.0,0.0,0.0,0.0,0.0,0.0,0.0,0.0,0.0,0.0,0.0,0.0,0.0058,0.0636,0.1178,0.1591,0.0927,0.088,0.1549,0.0,0.0,0.0,0.0,0.0,0.0,0.0,0.0,0.0,0.0,0.0,0.0,0.0,0.0,0.0,0.0,0.0,0.0,0.0,0.0,0.0,0.0,0.0,0.0,0.0,0.0,0.0,0.0,0.0,0.0,0.0,0.0,0.0,0.0,0.0,0.0,0.0,0.0,0.0,0.0,0.0,0.0,0.0,0.0,0.0,0.0,0.0,0.0,0.0,0.0,0.0,0.0,0.0,0.0,0.0,0.0,0.0,0.0,0.0,0.0,0.0,0.0,0.0,0.0,0.0,0.0,0.0,0.0,0.0,0.0,0.0,0.0,0.0,0.0,0.0,0.0,0.0,0.0,0.0,0.0,0.0,0.0,0.0,0.0,0.0,0.0,0.0,0.0,0.0,0.0,0.0,0.0,0.0,0.0,0.0,0.0,0.0,0.0,0.0,0.0,0.0,0.0,0.0,0.0,0.0,0.0,0.0,0.0,0.0,0.068,0.1054,0.1032,0.0401,0.034,0.0,0.0,0.0,0.0,0.0,0.0,0.0,0.0,0.0,0.0,0.0,0.0,0.0,0.0,0.0,0.0,0.0,0.0,0.0,0.0,0.0,0.0,0.0,0.0,0.0,0.0,0.0,0.0,0.0,0.0,0.0,0.0,0.0,0.0,0.0,0.0,0.0,0.0,0.0,0.0,0.0,0.0,0.0,0.0,0.0,0.0,0.0,0.0,0.0,0.0,0.0,0.0,0.0,0.0,0.0,0.0,0.0,0.0,0.0,0.0,0.0,0.0,0.0,0.0,0.0,0.0,0.0,0.0,0.0,0.0,0.0,0.0,0.0,0.0,0.0,0.0,0.0,0.0,0.0,0.0,0.0,0.0,0.0,0.0,0.0,0.0,0.0,0.0,0.0,0.0,0.0,0.0,0.0,0.0,0.0,0.0,0.0,0.0,0.0,0.0,0.0,0.0,0.0,0.0,0.0,0.0,0.0,0.0,0.0,0.0,0.0199,0.089,0.2129,0.1205,0.1165,0.0,0.0,0.0,0.0,0.0,0.0,0.0,0.0,0.0,0.0,0.0,0.0,0.0,0.0,0.0,0.0,0.0,0.0,0.0,0.0,0.0,0.0,0.0,0.0,0.0,0.0,0.0,0.0,0.0,0.0,0.0,0.0,0.0,0.0,0.0,0.0,0.0,0.0,0.0,0.0,0.0,0.0,0.0,0.0,0.0,0.0,0.0,0.0,0.0,0.0,0.0,0.0,0.0,0.0,0.0,0.0,0.0,0.0,0.0,0.0,0.0,0.0,0.0,0.0,0.0,0.0,0.0,0.0,0.0,0.0,0.0,0.0,0.0,0.0,0.0,0.0,0.0,0.0,0.0,0.0,0.0,0.0,0.0,0.0,0.0,0.0,0.0,0.0,0.0,0.0,0.0,0.0,0.0,0.0,0.0,0.0,0.0,0.0,0.0,0.0,0.0,0.0,0.0,0.0,0.0,0.0,0.0,0.0,0.0,0.0,0.0,0.0916,0.2805,0.1648,0.1517,0.0,0.0,0.0,0.0,0.0,0.0,0.0,0.0,0.0,0.0,0.0,0.0,0.0,0.0,0.0,0.0,0.0,0.0,0.0,0.0,0.0,0.0,0.0,0.0,0.0,0.0,0.0,0.0,0.0,0.0,0.0,0.0,0.0,0.0,0.0,0.0,0.0,0.0,0.0,0.0,0.0,0.0,0.0,0.0,0.0,0.0,0.0,0.0,0.0,0.0,0.0,0.0,0.0,0.0,0.0,0.0,0.0,0.0,0.0,0.0,0.0,0.0,0.0,0.0,0.0,0.0,0.0,0.0,0.0,0.0,0.0,0.0,0.0,0.0,0.0,0.0,0.0,0.0,0.0,0.0,0.0,0.0,0.0,0.0,0.0,0.0,0.0,0.0,0.0,0.0,0.0,0.0,0.0,0.0,0.0,0.0,0.0,0.0,0.0,0.0,0.0,0.0,0.0,0.0,0.0,0.0,0.0,0.0,0.0,0.0,0.0,0.0982,0.3005,0.18,0.1555,0.0,0.0,0.0,0.0,0.0,0.0,0.0,0.0,0.0,0.0,0.0,0.0,0.0,0.0,0.0,0.0,0.0,0.0,0.0,0.0,0.0,0.0,0.0,0.0,0.0,0.0,0.0,0.0,0.0,0.0,0.0,0.0,0.0,0.0,0.0,0.0,0.0,0.0,0.0,0.0,0.0,0.0,0.0,0.0,0.0,0.0,0.0,0.0,0.0,0.0,0.0,0.0,0.0,0.0,0.0,0.0,0.0,0.0,0.0,0.0,0.0,0.0,0.0,0.0,0.0,0.0,0.0,0.0,0.0,0.0,0.0,0.0,0.0,0.0,0.0,0.0,0.0,0.0,0.0,0.0,0.0,0.0,0.0,0.0,0.0,0.0,0.0,0.0,0.0,0.0,0.0,0.0,0.0,0.0,0.0,0.0,0.0,0.0,0.0,0.0,0.0,0.0,0.0,0.0,0.0,0.0,0.0,0.0,0.0,0.0,0.0,0.1028,0.32,0.1866,0.1699,0.0,0.0,0.0,0.0,0.0,0.0,0.0,0.0,0.0,0.0,0.0,0.0,0.0,0.0,0.0,0.0,0.0,0.0,0.0,0.0,0.0,0.0,0.0,0.0,0.0,0.0,0.0,0.0,0.0,0.0,0.0,0.0,0.0,0.0,0.0,0.0,0.0,0.0,0.0,0.0,0.0,0.0,0.0,0.0,0.0,0.0,0.0,0.0,-0.3858,0.0,0.0,0.0,0.0,0.0,0.0,0.0,0.0,0.0,0.0,0.0,0.0,0.0,0.0,0.0,0.0,0.0,0.0,0.0,0.0,0.0,0.0,0.0,0.0,0.0,0.0,0.0,0.0,0.0,0.0,0.0,0.0,0.0,0.0,0.0,0.0,0.0,0.0,0.0,0.0,0.0,0.0,0.0,0.0,0.0,0.0,0.0,0.0,0.0,0.0,0.0,0.0,0.0,0.0,0.0,0.0,0.0,0.0,0.0,0.0,0.0,0.0,0.1037,0.306,0.2306,0.2248,0.0,0.0,0.0,0.0,0.0,0.0,0.0,0.0,0.0,0.0,0.0,0.0,0.0,0.0,0.0,0.0,0.0,0.0,0.0,0.0,0.0,0.0,0.0,0.0,0.0,0.0,0.0,0.0,0.0,0.0,0.0,0.0,0.0,0.0,0.0,0.0,0.0,0.0,0.0,0.0,0.0,0.0,0.0,0.0,0.0,0.0,0.0,0.0,0.0,0.0,0.0,0.0,0.0,0.0,0.0,0.0,0.0,0.0,0.0,0.0,0.0,0.0,0.0,0.0,0.0,0.0,0.0,0.0,0.0,0.0,0.0,0.0,0.0,0.0,0.0,0.0,0.0,0.0,0.0,0.0,0.0,0.0,0.0,0.0,0.0,0.0,0.0,0.0,0.0,0.0,0.0,0.0,0.0,0.0,0.0,0.0,0.0,0.0,0.0,0.0,0.0,0.0,0.0,0.0,0.0,0.0,0.0,-0.0147,0.0,0.0,0.0,0.0994,0.3073,0.2852,0.2882,0.3277,0.0,0.0,0.0,0.0,0.0,0.0,0.0,0.0,0.0,0.0,0.0,0.0,0.0,0.0,0.0,0.0,0.0,0.0,0.0,0.0,0.0,0.0,0.0,0.0,0.0,0.0,0.0,0.0,0.0,0.0,0.0,0.0,0.0,0.0,0.0,0.0,0.0,0.0,-0.3103,-0.3645,0.0,0.0,0.0,0.0,0.0,0.0,0.0,0.0,-0.426,0.0,0.0,0.0,0.0,0.0,0.0,0.0,0.0,0.0,0.0,0.0,0.0,0.0,0.0,0.0,0.0,0.0,0.0,0.0,0.0,0.0,0.0,0.0,0.0,0.0,0.0,0.0,0.0,0.0,0.0,0.0,0.0,0.0,0.0,0.0,0.0,0.0,0.0,0.0,0.0,0.0,0.0,0.0,0.0,0.0,0.0,0.0,0.0,0.0,0.0,0.0,0.0,0.0,0.0,0.0,0.0,-0.0644,-0.0219,0.0,0.0,0.0,0.106,0.3231,0.2916,0.2882,0.325,0.0,0.0,0.0,0.0,0.0,0.0,0.0,0.0,0.0,0.0,0.0,0.0,0.0,0.0,0.0,0.0,0.0,0.0,0.0,0.0,0.0,0.0,0.0,0.0,0.0,0.0,0.0,0.0,0.0,0.0,0.0,0.0,0.0,0.0,0.0,0.0,0.0,0.0,0.0,-0.3696,-0.4272,0.0,0.0,0.0,0.0,0.0,0.0,0.0,0.0,-0.4484,0.0,0.0,0.0,0.0,0.0,0.0,0.0,0.0,0.0,0.0,0.0,0.0,0.0,0.0,0.0,0.0,0.0,0.0,0.0,0.0,0.0,0.0,0.0,0.0,0.0,0.0,0.0,0.0,0.0,0.0,0.0,0.0,0.0,0.0,0.0,0.0,0.0,0.0,0.0,0.0,0.0,0.0,0.0,0.0,0.0,0.0,0.0,0.0,0.0,0.0,0.0,0.0,0.0,0.0,0.0,-0.0882,-0.0305,0.0,0.0,0.0,0.1026,0.315,0.2717,0.2676,0.0,0.0,0.0,0.0,0.0,0.0,0.0,0.0,0.0,0.0,0.0,0.0,0.0,0.0,0.0,0.0,0.0,0.0,0.0,0.0,0.0,0.0,0.0,0.0,0.0,0.0,0.0,0.0,0.0,0.0,0.0,0.0,0.0,0.0,0.0,0.0,0.0,0.0,0.0,0.0,-0.3692,-0.3732,-0.4233,0.0,0.0,0.0,0.0,0.0,0.0,-0.5295,-0.503,0.0,0.0,0.0,0.0,0.0,0.0,0.0,0.0,0.0,0.0,0.0,0.0,0.0,0.0,0.0,0.0,0.0,0.0,0.0,0.0,0.0,0.0,0.0,0.0,0.0,0.0,0.0,0.0,0.0,0.0,0.0,0.0,0.0,0.0,0.0,0.0,0.0,0.0,0.0,0.0,0.0,0.0,0.0,0.0,0.0,0.0,0.0,0.0,0.0,0.0,0.0,0.0,0.0,0.0,0.0,-0.1106,-0.0389,0.0,0.0,0.0,0.0893,0.2724,0.241,0.2386,0.0,0.0,0.0,0.0,0.0,0.0,0.0,0.0,0.0,0.0,0.0,0.0,0.0,0.0,0.0,0.0,0.0,0.0,0.0,0.0,0.0,0.0,0.0,0.0,0.0,0.0,0.0,0.0,0.0,0.0,0.0,0.0,0.0,0.0,0.0,0.0,0.0,0.0,0.0,0.0,0.0,-0.3417,-0.3829,-0.4004,0.0,0.0,0.0,0.0,-0.6091,-0.5787,0.0,0.0,0.0,0.0,0.0,0.0,0.0,0.0,0.0,0.0,0.0,0.0,0.0,0.0,0.0,0.0,0.0,0.0,0.0,0.0,0.0,0.0,0.0,0.0,0.0,0.0,0.0,0.0,0.0,0.0,0.0,0.0,0.0,0.0,0.0,0.0,0.0,0.0,0.0,0.0,0.0,0.0,0.0,0.0,0.0,0.0,0.0,0.0,0.0,0.0,0.0,0.0,0.0,0.0,0.0,0.0,-0.1222,-0.0439,0.0,0.0,0.0,0.0573,0.1719,0.2065,0.2053,0.0,0.0,0.0,0.0,0.0,0.0,0.0,0.0,0.0,0.0,0.0,0.0,0.0,0.0,0.0,0.0,0.0,0.0,0.0,0.0,0.0,0.0,0.0,0.0,0.0,0.0,0.0,0.0,0.0,0.0,0.0,0.0,0.0,0.0,0.0,0.0,0.0,0.0,0.0,0.0,0.0,-0.4123,-0.4677,-0.452,-0.4309,0.0,0.0,-0.6201,-0.5752,-0.5715,0.0,0.0,0.0,0.0,0.0,0.0,0.0,0.0,0.0,0.0,0.0,0.0,0.0,0.0,0.0,0.0,0.0,0.0,0.0,0.0,0.0,0.0,0.0,0.0,0.0,0.0,0.0,0.0,0.0,0.0,0.0,0.0,0.0,0.0,0.0,0.0,0.0,0.0,0.0,0.0,0.0,0.0,0.0,0.0,0.0,0.0,0.0,0.0,0.0,0.0,0.0,0.0,0.0,0.0,0.0,-0.093,-0.0929,-0.0326,0.0,0.0,0.0,0.0534,0.1553,0.1454,0.1436,0.0,0.0,0.0,0.0,0.0,0.0,0.0,0.0,0.0,0.0,0.0,0.0,0.0,0.0,0.0,0.0,0.0,0.0,0.0,0.0,0.0,0.0,0.0,0.0,0.0,0.0,0.0,0.0,0.0,0.0,0.0,0.0,0.0,0.0,0.0,0.0,0.0,0.0,0.0,0.0,0.0,0.0,-0.3268,-0.3418,0.0,0.0,0.0,-0.6117,-0.5977,0.0,0.0,0.0,0.0,0.0,0.0,0.0,0.0,0.0,0.0,0.0,0.0,0.0,0.0,0.0,0.0,0.0,0.0,0.0,0.0,0.0,0.0,0.0,0.0,0.0,0.0,0.0,0.0,0.0,0.0,0.0,0.0,0.0,0.0,0.0,0.0,0.0,0.0,0.0,0.0,0.0,0.0,0.0,0.0,0.0,0.0,0.0,0.0,0.0,0.0,0.0,0.0,0.0,0.0,0.0,0.0,0.0,-0.0705,-0.0228,0.0,0.0,0.0,0.0402,0.1175,0.0936,0.0,0.0,0.0,0.0,0.0,0.0,0.0,0.0,0.0,0.0,0.0,0.0,0.0,0.0,0.0,0.0,0.0,0.0,0.0,0.0,0.0,0.0,0.0,0.0,0.0,0.0,0.0,-0.0645,0.0,0.0,0.0,0.0,0.0,0.0,0.0,0.0,0.0,0.0,0.0,0.0,0.0,0.0,-0.2817,-0.2073,-0.2543,-0.2986,0.0,0.0,-0.6091,-0.6083,-0.624,-0.6213,0.0,0.0,0.0,0.0,0.0,0.0,0.0,0.0,0.0,0.0,0.0,0.0,0.0,0.0,0.0,0.0,0.0,0.0,0.0,0.0,0.0,0.0,0.0,0.0,0.0,0.0,0.0,0.0,0.0,0.0,0.0,0.0,0.0,0.0,0.0,0.0,0.0,0.0,0.0,0.0,0.0,0.0,0.0,0.0,0.0,0.0,0.0,0.0,0.0,0.0,0.0,0.0,0.0,0.0,0.0,-0.0678,-0.0224,0.0,0.0,0.0,0.0044,0.0126,0.0759,0.0743,0.0,0.0,0.0,0.0,0.0,0.0,0.0,0.0,0.0,0.0,0.0,0.0,0.0,0.0,0.0,0.0,0.0,0.0,0.0,0.0,0.0,0.0,0.0,0.0,0.0,0.0,0.0,0.0,0.0,0.0,0.0,0.0,0.0,0.0,0.0,0.0,0.0,0.0,0.0,0.0,0.0,-0.2795,-0.1919,-0.2647,-0.3149,0.0,0.0,-0.6252,-0.5878,-0.6097,-0.6284,-0.6183,0.0,0.0,0.0,0.0,0.0,0.0,0.0,0.0,0.0,0.0,0.0,0.0,0.0,0.0,0.0,0.0,0.0,0.0,0.0,0.0,0.0,0.0,0.0,0.0,0.0,0.0,0.0,0.0,0.0,0.0,0.0,0.0,0.0,0.0,0.0,0.0,0.0,0.0,0.0,0.0,0.0,0.0,0.0,0.0,0.0,0.0,0.0,0.0,0.0,0.0,0.0,0.0,0.0,-0.034,-0.0281,-0.0112,0.0,0.0,0.0,0.0,0.0,0.0282,0.0288,0.0,0.0,0.0,0.0,0.0,0.0,0.0,0.0,0.0,0.0,0.0,0.0,0.0,0.0,0.0,0.0,0.0,0.0,0.0,0.0,0.0,0.0,0.0,0.0,0.0,0.0,0.0,0.0,-0.0587,-0.1029,-0.1502,0.0,0.0,0.0,0.0,0.0,0.0,0.0,0.0,0.0,0.0,-0.2363,-0.2463,-0.2755,0.0,0.0,-0.5141,-0.6026,-0.5621,-0.6252,-0.6603,-0.6049,-0.6529,0.0,0.0,0.0,0.0,0.0,0.0,0.0,0.0,0.0,0.0,0.0,0.0,0.0,0.0,0.0,0.0,0.0,0.0,0.0,0.0,0.0,0.0,0.0,0.0,0.0,0.0,0.0,0.0,0.0,0.0,0.0,0.0,0.0,0.0,0.0,0.0,0.0,0.0,0.0,0.0,0.0,0.0,0.0,0.0,0.0,0.0,0.0,0.0,0.0,0.0,0.0,0.0,-0.021,0.0,0.0,0.0,0.0,0.0,0.0,0.0,0.0,0.0,0.0,0.0,0.0,0.0,0.0,0.0,0.0,0.0,0.0,0.0,0.0,0.0,0.0,0.0,0.0,0.0,0.0,0.0,0.0,0.0,0.0,0.0,0.0,0.0,0.0,0.0,0.0,0.0,-0.0658,-0.1156,-0.1289,0.0,0.0,0.0,0.0,0.0,0.0,0.0,0.0,0.0,0.0,-0.2225,-0.2745,-0.2942,-0.3432,-0.4577,-0.5448,-0.6044,-0.6153,-0.6658,-0.6788,-0.6255,0.0,0.0,0.0,0.0,0.0,0.0,0.0,0.0,0.0,0.0,0.0,0.0,0.0,0.0,0.0,0.0,0.0,0.0,0.0,0.0,0.0,0.0,0.0,0.0,0.0,0.0,0.0,0.0,0.0,0.0,0.0,0.0,0.0,0.0,0.0,0.0,0.0,0.0,0.0,0.0,0.0,0.0,0.0,0.0,0.0,0.0,0.0,0.0,0.0,0.0,0.0,0.0,0.0,0.0,0.0,0.0,0.0,0.0,0.0,0.0,0.0,0.0,0.0,0.0,0.0,0.0,0.0,0.0,0.0,0.0,0.0,0.0,0.0,0.0,0.0,0.0,0.0,0.0,0.0,0.0,0.0,0.0,0.0,0.0,0.0,0.0,0.0,0.0,0.0,0.0,-0.0024,-0.0942,-0.1515,0.0,0.0,0.0,0.0,0.0,0.0,0.0,0.0,0.0,0.0,-0.2391,-0.2551,-0.2735,-0.3324,-0.4113,-0.5149,-0.5682,-0.6439,-0.7626,-0.7219,-0.6789,0.0,0.0,0.0,0.0,0.0,0.0,0.0,0.0,0.0,0.0,0.0,0.0,0.0,0.0,0.0,0.0,0.0,0.0,0.0,0.0,0.0,0.0,0.0,0.0,0.0,0.0,0.0,0.0744,0.0738,0.0,0.0,0.0,0.0,0.0,0.0,0.0,0.0,0.0,0.0,0.0,0.0028,0.0509,0.0,0.0,0.0,0.0,0.0,0.0,0.0,0.0,0.0,0.0,0.0,0.0,0.0,0.0,0.0,0.0,0.0,0.0,0.0,0.0,0.0,0.0,0.0,0.0,0.0,0.0,0.0,0.0,0.0,0.0,0.0,0.0,0.0,0.0,0.0,0.0,0.0,0.0,0.0,0.0,0.0,0.0,0.0,0.0,0.0,0.0,0.0,0.0,-0.0165,0.0,0.0,0.0,0.0,0.0,0.0,0.0,0.0,0.0,0.0,0.0,-0.2062,-0.2068,-0.2377,-0.2879,-0.3591,-0.3921,-0.4547,0.0,0.0,0.0,0.0,0.0,0.0,0.0,0.0,0.0,0.0,0.0,0.0,0.0,0.0,-0.7779,-0.7468,-0.7488,-0.7699,-0.8148,0.0,0.0,0.0,0.0,0.0,0.0,0.0,0.0,0.0,0.0,0.0,0.0,0.0,0.0,0.1908,0.0,0.1792,0.0,0.0,0.0,0.0,0.0,0.0,0.0,0.0,0.0491,0.0464,0.0034,0.0504,0.0471,0.0,0.0,0.0,0.0,0.0,0.0,0.0,0.0,0.0,0.0,0.0,0.0,0.0,0.0,0.0,0.0,0.0,0.0,0.0,0.0,0.0,0.0,0.0,0.0137,0.0,0.0,0.0,0.0,0.0,0.0,0.0,0.0,0.0,0.0,0.0,0.0,0.0,0.0,0.0,0.0,0.0,0.0,0.0,0.0,0.0,0.0,0.0,-0.035,0.0,0.0,0.0,0.0,0.0,0.0,0.0,0.0,0.0,-0.2027,-0.2096,-0.2148,-0.2364,-0.296,-0.3695,-0.4545,0.0,0.0,0.0,0.0,0.0,0.0,0.0,-0.7131,-0.6469,-0.6972,-0.7461,-0.7413,-0.7241,-0.728,-0.7808,0.0,0.0,-0.8285,-0.8521,-0.8917,-0.9253,-0.9445,-0.9358,-0.8643,-0.9179,-0.9418,0.0,0.0,0.0,0.0,0.0,0.0,0.0,0.0,0.3315,0.3349,0.0,0.297,0.0,0.0,0.0,0.0,0.0,0.0,0.0,0.0,0.0,0.0,0.0,0.0,0.0,0.0,0.0,0.0,0.0,0.0,0.0,0.0,0.0,0.0,0.0,0.0,0.0,0.0,0.0,0.0,0.0,0.0,0.0,0.0,0.0,0.0,0.0,0.0,0.0,0.0,0.0,0.0,0.0,0.0,0.0,0.0,0.0,0.0,0.0,0.0,0.0,0.0,0.0,0.0,0.0,0.0,0.0,0.0,0.0,0.0,0.0,-0.0233,0.0,0.0,0.0,0.0,0.0,0.0,0.0,0.0,0.0,0.0,-0.1528,-0.1985,-0.2423,-0.305,0.0,0.0,0.0,0.0,-0.6036,-0.6597,-0.6403,-0.6623,-0.7748,-0.7471,-0.7101,-0.7072,0.0,0.0,-0.7208,-0.7405,-0.77,-0.8416,-0.9143,-0.9633,-0.9365,-0.9746,-1.0042,-0.9876,-0.9657,-0.9344,-0.9273,-0.967,-0.9876,0.4154,0.0,0.0,0.0,0.0,0.3228,0.3737,0.4563,0.3602,0.3189,0.3187,0.2111,0.0,0.0,0.0,0.0,0.0,0.0,0.0,0.0,0.0,0.0,0.0,0.0,0.0,0.0,0.0,0.0,0.0,0.0,0.0,0.0,0.0,0.0,0.0,0.0,0.0,0.0,0.0,0.0,0.0,0.0,0.0,0.0,0.0,0.0,0.0,0.0,0.0,0.0,0.0,0.0,0.0,0.0,0.0,0.0,0.0,0.0,0.0,0.0,0.0,0.0,0.0,0.0,0.0,0.0,0.0,0.0,0.0,0.0,0.0,-0.0244,-0.0453,0.0,0.0,0.0,0.0,0.0,0.0,0.0,0.0,0.0,-0.2445,-0.2687,-0.2951,0.0,0.0,-0.548,-0.5471,-0.5863,-0.6284,-0.6641,0.0,0.0,0.0,-0.7405,-0.7313,-0.6885,-0.683,-0.6873,-0.7,-0.7117,-0.7291,-0.7533,-0.9063,-1.028,-1.002,-1.0462,-1.0995,-1.1407,-1.1476,-1.122,-1.0798,-1.1118,-1.1265,0.6409,0.5492,0.4375,0.4138,0.4505,0.4588,0.4813,0.5186,0.4374,0.3734,0.3261,0.2251,0.1379,0.0687,0.0203,0.0,0.0,0.0,0.0,0.0,0.0,0.0,0.0,0.0,0.0,0.0,0.0,0.0,0.0,0.0,0.0,0.0,0.0,0.0,0.0,0.0,0.0,0.0,0.0,0.0,0.0,0.0,0.0,0.0,0.0,0.0,0.0,0.0,0.0,0.0,0.0,0.0,0.0,0.0,0.0,0.0,0.0,0.0,0.0,0.0,0.0,0.0,0.0,0.0925,0.0,0.0,0.0,0.0,0.0,0.0,0.0,-0.0246,0.0,0.0,0.0,0.0,0.0,0.0,0.0,-0.1458,-0.1308,-0.1745,-0.311,-0.3243,-0.3521,-0.4518,-0.5602,-0.6247,-0.6013,0.0,-0.6654,-0.6776,-0.679,-0.6871,-0.7055,-0.7404,-0.7479,-0.7204,-0.7166,-0.7193,-0.7197,-0.7526,-0.7886,-0.8101,-0.9362,-1.0565,-1.0391,-1.0688,-1.1323,-1.2277,-1.2371,-1.2142,-1.1702,-1.2014,-1.2039,0.8105,0.7757,0.525,0.4824,0.5811,0.597,0.5802,0.5449,0.5352,0.4603,0.3472,0.2925,0.2297,0.1566,0.0517,0.0,0.0,0.0,0.0,0.0,0.0,0.0,0.0,0.0,0.0,0.0,0.0,0.0,0.0,0.0,0.0,0.0,0.0,0.0,0.0,0.0,0.0,0.0,0.0,0.0,0.0,0.0,0.0,0.0,0.0,0.0,0.0,0.0,0.0,0.0,0.0,0.0,0.0,0.0,0.0,0.0,0.0,0.0,0.0,0.0,0.0,0.0,0.0,0.0,0.0,0.0,0.0,0.0,0.0,0.0,0.0,-0.0211,0.0,0.0,0.0,-0.1192,-0.1434,-0.1053,-0.0755,-0.0808,0.0,0.0,-0.3328,0.0,-0.3947,-0.531,-0.6214,-0.6778,-0.6774,-0.6826,-0.6949,-0.697,-0.697,-0.7028,-0.7213,-0.7448,-0.7678,-0.7743,-0.7709,-0.7604,-0.7634,-0.8256,-0.8877,-0.8816,-0.9783,-1.0439,-1.0472,-1.0491,-1.1038,-1.2302,-1.2317,-1.2128,-1.2042,-1.2049,-1.2024,0.5179,0.5196,0.559,0.6492,0.7651,0.7687,0.7095,0.6047,0.496,0.3682,0.2328,0.1184,0.0579,0.0426,0.0138,0.0,0.0,0.0,0.0,0.0,0.0,0.0,0.0,0.0,0.0,0.0,0.0,0.0,0.0,0.0,0.0,0.0,0.0,0.0,0.0,0.0,0.0,0.0,0.0,0.0,0.0,0.0,0.0,0.0,0.0,0.0,0.0,0.0,0.0,0.0,0.0,0.0,0.0,0.0,0.0,0.0,0.0,0.0,0.0,0.0,0.0,0.0,0.0,0.0929,0.0066,0.0,0.0721,0.0,0.0,0.0,0.0,-0.0063,0.0,0.0,-0.0743,-0.0907,-0.0444,-0.0755,-0.0779,-0.0279,-0.0385,-0.0944,-0.2211,-0.2392,-0.288,-0.4156,-0.4193,-0.4385,-0.5211,-0.5703,-0.6302,-0.7224,-0.7564,-0.7735,-0.7752,-0.7833,-0.7891,-0.7928,-0.7858,-0.776,-0.7763,-0.7827,-0.7959,-0.7998,-0.884,-0.9477,-0.9468,-1.0114,-1.0708,-1.1048,-1.104,-1.1003,-1.1008,-1.0992,-1.1033,0.4325,0.4405,0.5162,0.5922,0.664,0.7159,0.625,0.4344,0.3569,0.2408,0.1101,0.0364,0.0,0.0,0.0,0.0,0.0,0.0,0.0,0.0,0.0,0.0,0.0,0.0,0.0,0.0,0.0,0.0,0.0,0.0,0.0,0.0,0.0,0.0,0.0,0.0,0.0,0.0,0.0,0.0,0.0,0.0,0.0,0.0,0.0,0.0,0.0,0.0,0.0,0.0,0.0,0.0,0.0,0.0,0.0,0.0,0.0,0.0,0.0,0.0,0.0,0.0,0.0,0.0,0.0,0.0,0.0921,0.0,0.0,0.0,0.0,0.0,0.0,0.0,-0.0354,-0.0448,-0.0042,-0.0356,-0.0455,-0.0045,-0.0512,-0.1153,-0.1922,-0.2036,-0.226,-0.3007,-0.233,-0.2633,-0.4937,-0.6111,-0.6958,-0.7656,-0.7887,-0.7988,-0.7988,-0.7988,-0.7988,-0.7982,-0.7967,-0.7913,-0.7909,-0.779,-0.7692,-0.7736,-0.8153,-0.8536,-0.849,-0.8926,-0.9315,-0.9242,-0.9181,-0.9543,-1.0371,-1.0567,-1.0567,0.393,0.3942,0.4156,0.4131,0.4019,0.5235,0.4355,0.2006,0.2006,0.1272,0.0,0.0,0.0,0.0,0.0,0.0,0.0,0.0,0.0,0.0,0.0,0.0,0.0,0.0,0.0,0.0,0.0,0.0,0.0,0.0,0.0,0.0,0.0,0.0,0.0,0.0,0.0,0.0,0.0,0.0,0.0,0.0,0.0,0.0,0.0,0.0,0.0,0.0,0.0,0.0,0.0,0.0,0.0,0.0,0.0,0.0,0.0,0.0,0.0,0.0,0.0,0.0,0.0,0.0,0.0,0.0697,0.0819,0.0,0.0,0.0,0.0,0.0,0.0,0.0,0.0,0.0,0.0,0.0,0.0,0.0,-0.1048,-0.1763,-0.1716,-0.1768,-0.1718,-0.1675,-0.1113,-0.1859,-0.4931,-0.6517,-0.7313,-0.7839,-0.7988,-0.7988,-0.7988,-0.7988,-0.7988,-0.7988,-0.7982,-0.7988,-0.7982,-0.7877,-0.7838,-0.7831,-0.7798,-0.7712,-0.7634,-0.7675,-0.7624,-0.7615,-0.7626,-0.8106,-0.9503,-0.9918,-1.0178,0.0818,0.0932,0.2129,0.1939,0.0962,0.2394,0.2681,0.2136,0.2188,0.1346,0.0,0.0,0.0,0.0,0.0,0.0,0.0,0.0,0.0,0.0,0.0,0.0,0.0,0.0,0.0,0.0,0.0,0.0,0.0,0.0,0.0,0.0,0.0,0.0,0.0,0.0,0.0,0.0,0.0,0.0,0.0,0.0,0.0,0.0,0.0,0.0,0.0,0.0,0.0,0.0,0.0,0.0,0.0,0.0,0.0,0.0,0.0,0.0,0.0,0.0,0.0,0.0,0.0157,0.0188,0.0031,0.0159,0.017,0.0,0.0,0.0,0.0,0.0,0.0,0.0,0.0,0.0,0.0,0.0,0.0,0.0,0.0,0.0,0.0,-0.0361,0.0,0.0,-0.1092,-0.2317,-0.4058,-0.4714,-0.5625,-0.7484,-0.7988,-0.7988,-0.7988,-0.7988,-0.7988,-0.7988,-0.7988,-0.7988,-0.7985,-0.7971,-0.7944,-0.7941,-0.7921,-0.7906,-0.7797,-0.7773,-0.7726,-0.758,-0.7556,-0.761,-0.7727,-0.7797,-0.7749,0.0,0.0,0.0824,0.0696,0.0,0.0787,0.1142,0.1089,0.1109,0.0698,0.0,0.0,0.0,0.0,0.0,0.0,0.0,0.0,0.0,0.0,0.0,0.0,0.0,0.0,0.0,0.0,0.0,0.0,0.0,0.0,0.0,0.0,0.0,0.0,0.0,0.0,0.0,0.0,0.0,0.0,0.0,0.0,0.0,0.0,0.0,0.0,0.0,0.0,0.0,0.0,0.0,0.0,0.0,0.0,0.0,0.0,0.0,0.0,0.0,0.0,0.0,0.0,0.0,0.0,0.0,0.0,0.0,0.0,0.0,0.0,0.0,0.0,0.0,0.0,0.0,0.0,0.0,0.0,0.0,0.0,0.0,0.0,0.0,0.0,0.0,0.0,-0.0582,-0.1522,-0.2821,-0.4191,-0.5774,-0.7637,-0.7988,-0.7988,-0.7988,-0.7988,-0.7988,-0.7988,-0.7988,-0.7988,-0.7988,-0.7988,-0.7988,-0.7988,-0.7988,-0.7958,-0.7901,-0.7926,-0.7879,-0.7746,-0.7702,-0.7638,-0.7414,-0.7309,-0.7231,0.0,0.0,0.0,0.0,0.0,0.0,0.0,0.0,0.0,0.0,0.0,0.0,0.0,0.0,0.0,0.0,0.0,0.0,0.0,0.0,0.0,0.0,0.0,0.0,0.0,0.0,0.0,0.0,0.0,0.0,0.0,0.0,0.0,0.0,0.0,0.0,0.0,0.0,0.0,0.0,0.0,0.0,0.0,0.0,0.0,0.0,0.0,0.0,0.0,0.0,0.0,0.0,0.0,0.0,0.0,0.0,0.0,0.0,0.0,0.0,0.0,0.0,0.0,0.0,0.0,0.0,0.0,0.0,0.0,0.0,0.0,0.0,0.0,0.0,0.0,0.0,0.0,0.0,0.0,0.0,0.0,0.0,0.0,0.0,0.0,0.0,0.0,-0.0641,-0.2278,-0.4507,-0.6452,-0.7748,-0.8102,-0.8079,-0.7995,-0.7988,-0.7988,-0.7988,-0.7988,-0.7988,-0.7988,-0.7988,-0.7988,-0.7988,-0.7988,-0.7985,-0.7988,-0.7978,-0.7944,-0.7879,-0.7848,-0.7811,-0.7668,-0.7539,-0.74,0.0,0.0,0.0,0.0,0.0,0.0,0.0,0.0,0.0,0.0,0.0,0.0,0.0,0.0,0.0,0.0,0.0,0.0,0.0,0.0,0.0,0.0,0.0,0.0,0.0,0.0,0.0,0.0,0.0,0.0,0.0,0.0,0.0,0.0,0.0,0.0,0.0,0.0,0.0,0.0,0.0,0.0,0.0,0.0,0.0,0.0,0.0,0.0,0.0,0.0,0.0,0.0,0.0,0.0,0.0,0.0,0.0,0.0,0.0,0.0,0.0,0.0,0.0,0.0,0.0,0.0,0.0,0.0,0.0,0.0,0.0,0.0,0.0,0.0,0.0,0.0,0.0,0.0,0.0,0.0,0.0,0.0,0.0,0.0,0.0,0.0,0.0,-0.0868,-0.3204,-0.5229,-0.6692,-0.7907,-0.8238,-0.8184,-0.8039,-0.7988,-0.7988,-0.7988,-0.7988,-0.7988,-0.7988,-0.7988,-0.7988,-0.7988,-0.7988,-0.7988,-0.7988,-0.7988,-0.7975,-0.7938,-0.7941,-0.7943,-0.7807,-0.7746,-0.7648,0.0,0.0,0.0,0.0,0.0,0.0,0.0,0.0,0.0,0.0,0.0,0.0,0.0,0.0,0.0,0.0,0.0,0.0,0.0,0.0,0.0,0.0,0.0,0.0,0.0,0.0,0.0,0.0,0.0,0.0,0.0,0.0,0.0,0.0,0.0,0.0,0.0,0.0,0.0,0.0,0.0,0.0,0.0,0.0,0.0,0.0,0.0,0.0,0.0,0.0,0.0,0.0,0.0,0.0,0.0,0.0,0.0,0.0,0.0,0.0,0.0,0.0,0.0,0.0,0.0,0.0,0.0,0.0,0.0,0.0,0.0,0.0,0.0,0.0,0.0,0.0,0.0,0.0,0.0,0.0,0.0,0.0,0.0,0.0,0.0,0.0,0.0,0.0,-0.2787,-0.3652,-0.5181,-0.7639,-0.7643,-0.7473,-0.7965,-0.8035,-0.7998,-0.7988,-0.7988,-0.7988,-0.7988,-0.7988,-0.7988,-0.7988,-0.7988,-0.7988,-0.7988,-0.7988,-0.7988,-0.7988,-0.7988,-0.7948,-0.7894,-0.7875,-0.7736,0.0,0.0,0.0,0.0,0.0,0.0,0.0,0.0,0.0,0.0,0.0,0.0,0.0,0.0,0.0,0.0,0.0,0.0,0.0,0.0,0.0,0.0,0.0,0.0,0.0,0.0,0.0,0.0,0.0,0.0,0.0,0.0,0.0,0.0,0.0,0.0,0.0,0.0,0.0,0.0,0.0,0.0,0.0,0.0,0.0,0.0,0.0,0.0,0.0,0.0,0.0,0.0,0.0,0.0,0.0,0.0,0.0,0.0,0.0,0.0,0.0,0.0,0.0,0.0,0.0,0.0,0.0,0.0,0.0,0.0,0.0,0.0,0.0,0.0,0.0,0.0,0.0,0.0,0.0,0.0,0.0,0.0,0.0,0.0,0.0,0.0,0.0,0.0,-0.1845,-0.2012,-0.3365,-0.6048,-0.6713,-0.6638,-0.7695,-0.8039,-0.8062,-0.8042,-0.8012,-0.7995,-0.7988,-0.7988,-0.7988,-0.7988,-0.7988,-0.7988,-0.7988,-0.7988,-0.7988,-0.7988,-0.7988,-0.7985,-0.7975,-0.795,-0.7821,0.0,0.0,0.0,0.0,0.0,0.0,0.0,0.0,0.0,0.0,0.0,0.0,0.0,0.0,0.0,0.0,0.0,0.0,0.0,0.0,0.0,0.0,0.0,0.0,0.0,0.0,0.0,0.0,0.0,0.0,0.0,0.0,0.0,0.0,0.0,0.0,0.0,0.0,0.0,0.0,0.0,0.0,0.0,0.0,0.0,0.0,0.0,0.0,0.0,0.0,0.0,0.0,0.0,0.0,0.0,0.0,0.0,0.0,0.0,0.0,0.0,0.0,0.0,0.0,0.0,0.0,0.0,0.0,0.0,0.0,0.0,0.0,0.0,0.0,0.0,0.0,0.0,0.0,0.0,0.0,0.0,0.0,0.0,0.0,0.0,0.0,0.0,-0.0448,-0.1566,-0.1119,-0.1287,-0.4155,-0.5582,-0.6294,-0.6682,-0.7562,-0.816,-0.8241,-0.8133,-0.8025,-0.8015,-0.8002,-0.7988,-0.7988,-0.7988,-0.7988,-0.7988,-0.7988,-0.7988,-0.7988,-0.7988,-0.7988,-0.7988,-0.7968,-0.7894,0.0,0.0,0.0,0.0,0.0,0.0,0.0,0.0,0.0,0.0,0.0,0.0,0.0,0.0,0.0,0.0,0.0,0.0,0.0,0.0,0.0,0.0,0.0,0.0,0.0,0.0,0.0,0.0,0.0,0.0,0.0,0.0,0.0,0.0,0.0,0.0,0.0,0.0,0.0,0.0,0.0,0.0,0.0,0.0,0.0,0.0,0.0,0.0,0.0,0.0,0.0,0.0,0.0,0.0,0.0,0.0,0.0,0.0,0.0,0.0,0.0,0.0,0.0,0.0,0.0,0.0,0.0,0.0,0.0,0.0,0.0,0.0,0.0,0.0,0.0,0.0,0.0,0.0,0.0,0.0,0.0,0.0,0.0,0.0,0.0,0.0,0.0,0.0,0.0,-0.0336,-0.056,-0.1622,-0.3053,-0.4666,-0.599,-0.7533,-0.8255,-0.8374,-0.8275,-0.818,-0.816,-0.8035,-0.7992,-0.7988,-0.7988,-0.7988,-0.7988,-0.7988,-0.7988,-0.7988,-0.7988,-0.7988,-0.7988,-0.7988,-0.7955,0.0,0.0,0.0,0.0,0.0,0.0,0.0,0.0,0.0,0.0,0.0,0.0,0.0,0.0,0.0,0.0,0.0,0.0,0.0,0.0,0.0,0.0,0.0,0.0,0.0,0.0,0.0,0.0,0.0,0.0,0.0,0.0,0.0,0.0,0.0,0.0,0.0,0.0,0.0,0.0,0.0,0.0,0.0,0.0,0.0,0.0,0.0,0.0,0.0,0.0,0.0,0.0,0.0,0.0,0.0,0.0,0.0,0.0,0.0,0.0,0.0,0.0,0.0,0.0,0.0,0.0,0.0,0.0,0.0,0.0,0.0,0.0,0.0,0.0,0.0,0.0,0.0,0.0,0.0,0.0,0.0,0.0,0.0,0.0,0.0,0.0,0.0,0.0,0.0,0.0,0.0,0.0,0.0,-0.3169,-0.5543,-0.6969,-0.7868,-0.8499,-0.8404,-0.831,-0.8258,-0.814,-0.7992,-0.7988,-0.7988,-0.7988,-0.7988,-0.7988,-0.7988,-0.7988,-0.7988,-0.7988,-0.7988,-0.7988,-0.7988,0.0,0.0,0.0,0.0,0.0,0.0,0.0,0.0,0.0,0.0,0.0,0.0,0.0,0.0,0.0,0.0,0.0,0.0,0.0,0.0,0.0,0.0,0.0,0.0,0.0,0.0,0.0,0.0,0.0,0.0,0.0,0.0,0.0,0.0,0.0,0.0,0.0,0.0,0.0,0.0,0.0,0.0,0.0,0.0,0.0,0.0,0.0,0.0,0.0,0.0,0.0,0.0,0.0,0.0,0.0,0.0,0.0,0.0,0.0,0.0,0.0,0.0,0.0,0.0,0.0,0.0,0.0,0.0,0.0,0.0,0.0,0.0,0.0,0.0,0.0,0.0,0.0,0.0,0.0,0.0,0.0,0.0,0.0,0.0,0.0,0.0,0.0,0.0,0.0,0.0,0.0,0.0,-0.1175,-0.2737,-0.4345,-0.572,-0.708,-0.7845,-0.8038,-0.8255,-0.8228,-0.816,-0.8042,-0.7992,-0.7992,-0.7992,-0.7988,-0.7988,-0.7988,-0.7988,-0.7988,-0.7988,-0.7988,-0.7988,-0.7988,0.0,0.0,0.0,0.0,0.0,0.0,0.0,0.0,0.0,0.0,0.0,0.0,0.0,0.0,0.0,0.0,0.0,0.0,0.0,0.0,0.0,0.0,0.0,0.0,0.0,0.0,0.0,0.0,0.0,0.0,0.0,0.0,0.0,0.0,0.0,0.0,0.0,0.0,0.0,0.0,0.0,0.0,0.0,0.0,0.0,0.0,0.0,0.0,0.0,0.0,0.0,0.0,0.0,0.0,0.0,0.0,0.0,0.0,0.0,0.0,0.0,0.0,0.0,0.0,0.0,0.0,0.0,0.0,0.0,0.0,0.0,0.0,0.0,0.0,0.0,0.0,0.0,0.0,0.0,0.0,0.0,0.0,0.0,0.0,0.0,0.0,0.0,0.0,0.0,0.0,0.0,0.0,-0.0448,-0.1287,-0.2794,-0.4285,-0.5638,-0.671,-0.7337,-0.7843,-0.8029,-0.8113,-0.8042,-0.8136,-0.8116,-0.7992,-0.7988,-0.7988,-0.7988,-0.7988,-0.7988,-0.7988,-0.7988,-0.7988,-0.7988,0.0,0.0,0.0,0.0,0.0,0.0,0.0,0.0,0.0,0.0,0.0,0.0,0.0,0.0,0.0,0.0,0.0,0.0,0.0,0.0,0.0,0.0,0.0,0.0,0.0,0.0,0.0,0.0,0.0,0.0,0.0,0.0,0.0,0.0,0.0,0.0,0.0,0.0,0.0,0.0,0.0,0.0,0.0,0.0,0.0,0.0,0.0,0.0,0.0,0.0,0.0,0.0202,0.0,0.0656,0.0857,0.121,0.0,0.0857,0.121,0.131,0.0,0.0,0.0,0.1228,0.0778,0.0315,0.0214,0.0491,0.0,0.0,0.0,0.0,0.0,0.0,0.0,0.0,0.0,0.0,0.0,0.0,0.0,0.0,0.0,0.0,0.0,0.0,0.0,0.0,0.0,0.0,0.0,0.0,0.0,0.0,0.0,0.0,0.0,-0.5874,-0.6481,-0.71,-0.7955,-0.8033,-0.8137,-0.8225,-0.8177,-0.8035,-0.7988,-0.7988,-0.7988,-0.7988,-0.7988,-0.7988,-0.7988,-0.7988,-0.7988,0.0,0.0,0.0,0.0,0.0,0.0,0.0,0.0,0.0,0.0,0.0,0.0,0.0,0.0,0.0,0.0,0.0,0.0,0.0,0.0,0.0,0.0,0.0,0.0,0.0,0.0,0.0,0.0,0.0,0.0,0.0,0.0,0.0,0.0,0.0,0.0,0.0,0.0,0.0,0.0,0.0,0.0,0.0,0.0,0.0,0.0,0.0,0.0,0.0,0.0,0.0,0.0,0.1611,0.1813,0.2465,0.3265,0.2665,0.2715,0.3615,0.372,0.3024,0.2428,0.3274,0.3313,0.2246,0.1172,0.0976,0.1807,0.122,0.0,0.0,0.0,0.0,0.0,0.0,0.0,0.0,0.0,0.0,0.0,0.0,0.0,0.0,0.0,0.0,0.0,0.0,0.0,0.0,0.0,0.0,0.0,0.0,0.0,0.0,0.0,0.0,-0.5125,-0.5566,-0.6176,-0.7585,-0.8104,-0.831,-0.8408,-0.8228,-0.8126,-0.7988,-0.7988,-0.7988,-0.7988,-0.7988,-0.7988,-0.7988,-0.7988,-0.7988,0.0,0.0,0.0,0.0,0.0,0.0,0.0,0.0,0.0,0.0,0.0,0.0,0.0,0.0,0.0,0.0,0.0,0.0,0.0,0.0,0.0,0.0,0.0,0.0,0.0,0.0,0.0,0.0,0.0,0.0,0.0,0.0,0.0,0.0,0.0,0.0,0.0,0.0,0.0,0.0,0.0,0.0,0.0,0.0,0.0,0.0,0.0,0.0,0.0,0.0,0.0,0.0605,0.1712,0.2013,0.2613,0.3765,0.3665,0.3465,0.3924,0.4114,0.4091,0.3698,0.4113,0.4179,0.3852,0.335,0.3227,0.376,0.3346,0.3074,0.3075,0.3131,0.2182,0.0,0.0,0.0,0.0,0.0,0.0,0.0,0.0,0.0,0.0,0.0,0.0,0.0,0.0,0.0,0.0,0.0,0.0,0.0,0.0,0.0,0.0,0.0,0.0,-0.3296,-0.399,-0.5123,-0.6647,-0.7579,-0.7927,-0.8328,-0.8203,-0.8177,-0.8039,-0.7988,-0.7988,-0.7988,-0.7988,-0.7988,-0.7988,-0.7988,-0.7988,0.0,0.0,0.0678,0.0925,0.1048,0.1479,0.0,0.1787,0.1848,0.1787,0.0,0.0,0.1787,0.1848,0.1848,0.1787,0.1787,0.1848,0.1848,0.1479,0.0308,0.0,0.0,0.0,0.0,0.0,0.0,0.0,0.0,0.0,0.0,0.0,0.0,0.0,0.0,0.0,0.0,0.0,0.0,0.0,0.0,0.0,0.0,0.0,0.0,0.0,0.0,0.0,0.0,0.0,0.0454,0.136,0.2564,0.2815,0.3566,0.497,0.5074,0.4983,0.5477,0.5843,0.5489,0.527,0.567,0.5803,0.5491,0.5303,0.5308,0.5295,0.4749,0.447,0.447,0.447,0.3522,0.1958,0.0,0.0616,0.0,0.0,0.0,0.0,0.0,0.0,0.0,0.0,0.0,0.0,0.0,0.0,0.0,0.0,0.0,0.0,0.0,0.0,0.0,0.0,0.0,-0.1343,-0.2177,-0.3728,-0.5386,-0.5987,-0.6408,-0.7405,-0.762,-0.815,-0.8163,-0.8022,-0.7988,-0.7988,-0.8002,-0.7988,-0.7988,-0.7988,-0.7988,0.0,0.0494,0.1971,0.2647,0.277,0.4057,0.455,0.4732,0.4673,0.455,0.4611,0.4427,0.4611,0.4734,0.4366,0.4366,0.4795,0.4487,0.4364,0.3689,0.2094,0.0,0.0,0.0,0.0,0.0,0.0,0.0,0.0,0.0,0.0,0.0,0.0,0.0,0.0,0.0,0.0,0.0,0.0,0.0,0.0,0.0,0.0,0.0,0.0,0.0,0.0,0.0,0.0,0.0,0.1016,0.2131,0.353,0.3977,0.5004,0.7378,0.6753,0.6931,0.784,0.7907,0.7589,0.6793,0.7603,0.8231,0.7005,0.6798,0.685,0.6755,0.5808,0.5027,0.5083,0.5083,0.486,0.447,0.2905,0.1566,0.0392,0.0,0.0,0.0,0.0,0.0,0.0,0.0,0.0,0.0,0.0,0.0,0.0,0.0,0.0,0.0,0.0,0.0,0.0,0.0,0.0,-0.0504,-0.1175,-0.2404,-0.4023,-0.4647,-0.5142,-0.6168,-0.692,-0.762,-0.8006,-0.7683,-0.7818,-0.8059,-0.8049,-0.8008,-0.7988,-0.7939,-0.7587,0.3629,0.3689,0.4119,0.4303,0.4304,0.4795,0.4979,0.4918,0.4979,0.5163,0.4979,0.4918,0.5102,0.4918,0.4979,0.4918,0.5102,0.504,0.4918,0.4795,0.418,0.3629,0.3616,0.3574,0.3487,0.3481,0.3263,0.363,0.3611,0.3286,0.3314,0.3469,0.309,0.3187,0.3242,0.2125,0.1678,0.1454,0.0504,0.0,0.0,0.0,0.0,0.0,0.0,0.0,0.0,0.0,0.0,0.0,0.0315,0.1306,0.3049,0.3843,0.535,0.7552,0.7956,0.7901,0.8324,0.8523,0.8388,0.822,0.8502,0.8711,0.8433,0.8296,0.8322,0.8266,0.7873,0.7651,0.7706,0.7595,0.7202,0.5975,0.4021,0.2235,0.1622,0.0,0.0,0.0,0.0,0.0,0.0,0.0,0.0,0.0,0.0,0.0,0.0,0.0,0.0,0.0,0.0,0.0,0.0,0.0,0.0,0.0,-0.0504,-0.1063,-0.2572,-0.3731,-0.4239,-0.4886,-0.5382,-0.596,-0.6498,-0.6607,-0.717,-0.7496,-0.7645,-0.7426,-0.7782,-0.7842,-0.7089,0.4918,0.4977,0.5649,0.5955,0.6018,0.6691,0.6935,0.6935,0.6935,0.6938,0.6938,0.6999,0.6938,0.6935,0.6999,0.6999,0.6938,0.6938,0.6999,0.6999,0.6996,0.6202,0.521,0.4927,0.4912,0.4908,0.4925,0.4831,0.479,0.4777,0.4726,0.4567,0.4562,0.4472,0.4301,0.3744,0.3186,0.3018,0.2293,0.1903,0.1903,0.1903,0.0,0.0,0.1903,0.1892,0.0,0.0,0.0,0.1123,0.1011,0.1851,0.3711,0.4059,0.5505,0.8086,0.7951,0.7806,0.8471,0.8665,0.8737,0.8743,0.8899,0.8927,0.8878,0.8937,0.8937,0.8826,0.8937,0.8937,0.8937,0.8937,0.8491,0.754,0.5526,0.3852,0.3296,0.2517,0.0,0.0616,0.0504,0.0616,0.0168,0.0,0.0,0.0,0.0,0.0,0.0,0.0,0.0,0.0,0.0,0.0,0.0,0.0,0.0,0.0,0.0,0.0,-0.1287,-0.2627,-0.3057,-0.3467,-0.3884,-0.4348,-0.4959,-0.539,-0.5481,-0.5855,-0.6427,-0.6589,-0.6554,-0.6858,-0.6239,0.5408,0.5529,0.7057,0.7665,0.785,0.914,0.9451,0.9697,0.9451,0.9515,0.9511,0.9697,0.9329,0.9819,0.9204,0.9636,0.9636,0.9268,0.9451,0.939,0.9204,0.816,0.62,0.6069,0.6002,0.5941,0.5466,0.5661,0.5949,0.5625,0.5362,0.5633,0.5429,0.5096,0.5365,0.4973,0.4751,0.4637,0.4191,0.3968,0.3911,0.3913,0.3913,0.3913,0.3911,0.3967,0.4072,0.4172,0.3801,0.273,0.2565,0.341,0.517,0.4676,0.5518,0.7395,0.7321,0.7544,0.843,0.875,0.874,0.8844,0.8871,0.8937,0.8937,0.8937,0.8937,0.8937,0.8937,0.8937,0.8937,0.8937,0.8826,0.8442,0.749,0.6386,0.5318,0.4698,0.3465,0.1176,0.1901,0.1566,0.084,0.0224,0.0,0.0,0.0,0.0,0.0,0.0,0.0,0.0,0.0,0.0,0.0,0.0,0.0,0.0,0.0,0.0,0.0,-0.1231,-0.1677,-0.2116,-0.2268,-0.2915,-0.3776,-0.4006,-0.3964,-0.4471,-0.5212,-0.4738,-0.4319,-0.4924,-0.481,0.8778,0.8775,0.9143,0.9268,0.9326,0.964,0.9819,0.9819,0.9819,0.9819,0.9819,0.9819,0.9819,0.9819,0.9819,0.9819,0.9819,0.9819,0.9819,0.9819,0.9819,0.9572,0.8653,0.8468,0.8593,0.8529,0.8653,0.8636,0.8576,0.8227,0.8413,0.8214,0.7783,0.8027,0.7662,0.6644,0.6255,0.6031,0.5194,0.4749,0.4804,0.4804,0.4804,0.4749,0.4693,0.4582,0.4526,0.447,0.4897,0.5259,0.4799,0.456,0.5156,0.5718,0.6065,0.6239,0.7569,0.8404,0.8769,0.8824,0.8844,0.8871,0.8937,0.8937,0.8937,0.8937,0.8937,0.8937,0.8937,0.8937,0.8937,0.8937,0.8892,0.8801,0.8696,0.8414,0.7838,0.6027,0.4767,0.4643,0.4142,0.3579,0.252,0.1962,0.0,0.0,0.0,0.0,0.0,0.0,0.0,0.0,0.0,0.0,0.0,0.0,0.0,0.0,0.0,0.0,0.0,0.0,0.0,0.0,-0.0559,-0.1391,-0.2488,-0.2657,-0.2633,-0.3379,0.0,-0.3536,-0.3296,-0.3547,-0.3364,0.9819,0.9819,0.9819,0.9819,0.9819,0.9819,0.9819,0.9819,0.9819,0.9819,0.9819,0.9819,0.9819,0.9819,0.9819,0.9819,0.9819,0.9819,0.9819,0.9819,0.9819,0.9819,0.9819,0.9819,0.9819,0.9819,0.9758,0.9819,0.9785,0.968,0.9343,0.9381,0.9235,0.8904,0.8905,0.81,0.7762,0.7648,0.7035,0.6589,0.6533,0.6533,0.6589,0.6589,0.6589,0.6533,0.6644,0.6644,0.7035,0.7315,0.698,0.6536,0.6422,0.6647,0.6533,0.6982,0.7035,0.8322,0.8657,0.8937,0.8933,0.8937,0.8937,0.8937,0.8937,0.8937,0.8937,0.8937,0.8937,0.8937,0.8937,0.8937,0.8902,0.9042,0.9106,0.9234,0.8997,0.7752,0.6897,0.7166,0.6389,0.5622,0.4763,0.3866,0.0,0.0,0.0,0.0,0.0,0.0,0.0,0.0,0.0,0.0,0.0,0.0,0.0,0.0,0.0,0.0,0.0,0.0,0.0,0.0,0.0,0.0,-0.106,-0.1174,0.0,0.0,0.0,0.0,0.0,0.0,0.0,0.9819,0.9819,0.9819,0.9819,0.9819,0.9819,0.9819,0.9819,0.9819,0.9819,0.9819,0.9819,0.9819,0.9819,0.9819,0.9819,0.9819,0.9819,0.9819,0.9819,0.9819,0.9819,0.9819,0.9819,0.9819,0.9819,0.9819,0.9819,0.9788,0.97,0.9591,0.9429,0.9306,0.9198,0.9003,0.8922,0.8762,0.8709,0.8507,0.8491,0.8546,0.8546,0.8546,0.8491,0.8488,0.8432,0.8432,0.8491,0.8771,0.8937,0.8937,0.8937,0.8602,0.7931,0.7482,0.8716,0.7875,0.7986,0.8712,0.8937,0.8937,0.8937,0.8937,0.8937,0.8937,0.8937,0.8937,0.8937,0.8937,0.8937,0.8937,0.8981,0.9039,0.913,0.9238,0.9344,0.9381,0.9425,0.9159,0.8867,0.799,0.7154,0.635,0.545,0.4263,0.3203,0.2656,0.1905,0.0841,0.0,0.0,0.0,0.0,0.0,0.0,0.0,0.0,0.0,0.0,0.0,0.0,0.0,0.0,0.0,0.0,0.0,0.0,0.0,0.0,0.0,0.0,0.0,0.0,0.0,0.0,0.9819,0.9819,0.9819,0.9819,0.9819,0.9819,0.9819,0.9819,0.9819,0.9819,0.9819,0.9819,0.9819,0.9819,0.9819,0.9819,0.9819,0.9819,0.9819,0.9819,0.9819,0.9819,0.9819,0.9819,0.9819,0.9819,0.9819,0.9819,0.9819,0.9788,0.968,0.9585,0.9527,0.9429,0.9276,0.9191,0.9117,0.9096,0.9018,0.8964,0.896,0.8888,0.8937,0.8937,0.8937,0.8937,0.8937,0.8937,0.8937,0.8937,0.8937,0.8937,0.8826,0.8546,0.8602,0.8716,0.8605,0.8491,0.8826,0.8937,0.8937,0.8937,0.8937,0.8937,0.8937,0.894,0.8947,0.8902,0.8898,0.8892,0.8888,0.9055,0.9123,0.9268,0.9364,0.9517,0.9574,0.9625,0.9612,0.9387,0.8945,0.858,0.7705,0.6937,0.6018,0.48,0.3942,0.2939,0.1744,0.0786,0.0,0.0,0.0,0.0,0.0,0.0,0.0,0.0,0.0,0.0,0.0,0.0,0.0,0.0,0.0,0.0,0.0,0.0,0.0,0.0,0.0,0.0,0.0,0.0,0.0,0.9819,0.9819,0.9819,0.9819,0.9819,0.9819,0.9819,0.9819,0.9819,0.9819,0.9819,0.9819,0.9819,0.9819,0.9819,0.9819,0.9819,0.9819,0.9819,0.9819,0.9819,0.9819,0.9819,0.9819,0.9819,0.9819,0.9819,0.9819,0.9819,0.9819,0.9744,0.9639,0.9608,0.953,0.9405,0.931,0.9273,0.9239,0.913,0.9042,0.9032,0.8925,0.8885,0.8937,0.8937,0.8937,0.8937,0.8937,0.8937,0.8937,0.8937,0.8937,0.8937,0.8937,0.8937,0.8937,0.8937,0.8937,0.8937,0.8937,0.8937,0.8937,0.8937,0.8937,0.8937,0.8944,0.8974,0.9035,0.9055,0.9086,0.9171,0.9228,0.9303,0.9391,0.953,0.9632,0.971,0.9778,0.9703,0.9598,0.944,0.9113,0.8859,0.8131,0.7568,0.6555,0.5315,0.4057,0.2829,0.1911,0.1064,0.0,0.0,0.0,0.0,0.0,0.0,0.0,0.0,0.0,0.0,0.0,0.0,0.0,0.0,0.0,0.0,0.0,0.0,0.0,0.0,0.0,0.0,0.0,0.0,0.9819,0.9819,0.9819,0.9819,0.9819,0.9819,0.9819,0.9819,0.9819,0.9819,0.9819,0.9819,0.9819,0.9819,0.9819,0.9819,0.9819,0.9819,0.9819,0.9819,0.9819,0.9819,0.9819,0.9819,0.9819,0.9819,0.9819,0.9819,0.9819,0.9819,0.9754,0.9696,0.9656,0.9602,0.9507,0.9459,0.9439,0.9374,0.9299,0.9207,0.9086,0.9005,0.8937,0.8937,0.8937,0.8937,0.8937,0.8937,0.8937,0.8937,0.8937,0.8937,0.8937,0.8937,0.8937,0.8937,0.8937,0.8937,0.8937,0.8937,0.8937,0.8937,0.8937,0.8937,0.8937,0.8957,0.9015,0.9174,0.9292,0.9313,0.933,0.9405,0.9476,0.9557,0.9622,0.969,0.9764,0.9805,0.9781,0.9747,0.9805,0.964,0.9297,0.9211,0.8587,0.7878,0.6723,0.5699,0.4498,0.3315,0.2349,0.1008,0.0,0.0,0.0,0.0,0.0,0.0,0.0,0.0,0.0,0.0,0.0,0.0,0.0,0.0,0.0,0.0,0.0,0.0,0.0,0.0,0.0,0.0,0.0,0.9819,0.9819,0.9819,0.9819,0.9819,0.9819,0.9819,0.9819,0.9819,0.9819,0.9819,0.9819,0.9819,0.9819,0.9819,0.9819,0.9819,0.9819,0.9819,0.9819,0.9819,0.9819,0.9819,0.9819,0.9819,0.9819,0.9819,0.9819,0.9819,0.9819,0.9815,0.9781,0.9771,0.9774,0.9703,0.9622,0.9585,0.953,0.931,0.9117,0.9018,0.8925,0.8971,0.8964,0.8967,0.8977,0.8988,0.8984,0.8905,0.8954,0.8944,0.8937,0.8937,0.8937,0.8937,0.8937,0.8937,0.8937,0.8937,0.8937,0.8954,0.896,0.8957,0.8944,0.8981,0.8942,0.9053,0.9449,0.9462,0.9449,0.9456,0.952,0.9581,0.9646,0.9713,0.9761,0.9819,0.9819,0.9791,0.9774,0.9791,0.9808,0.9647,0.9647,0.9566,0.8888,0.8163,0.7106,0.5902,0.4576,0.3186,0.179,0.0895,0.0,0.0,0.0,0.0,0.0,0.0,0.0,0.0,0.0,0.0,0.0,0.0,0.0,0.0,0.0,0.0,0.0,0.0,0.0,0.0,0.0,0.0,0.9819,0.9819,0.9819,0.9819,0.9819,0.9819,0.9819,0.9819,0.9819,0.9819,0.9819,0.9819,0.9819,0.9819,0.9819,0.9819,0.9819,0.9819,0.9819,0.9819,0.9819,0.9819,0.9819,0.9819,0.9819,0.9819,0.9819,0.9819,0.9819,0.9819,0.9819,0.9819,0.9819,0.9812,0.9819,0.9761,0.9737,0.9669,0.9523,0.9344,0.9228,0.9188,0.9184,0.9184,0.9178,0.9174,0.9161,0.9093,0.9066,0.9042,0.8998,0.8937,0.8937,0.8937,0.8937,0.8937,0.8937,0.8937,0.8937,0.8944,0.8984,0.9045,0.9069,0.9103,0.9144,0.915,0.9168,0.9534,0.9534,0.9544,0.9608,0.969,0.9713,0.9751,0.9778,0.9795,0.9819,0.9819,0.9808,0.9791,0.9778,0.9802,0.9819,0.9808,0.9731,0.9416,0.886,0.8081,0.6709,0.5219,0.3767,0.2292,0.1622,0.0,0.0,0.0,0.0,0.0,0.0,0.0,0.0,0.0,0.0,0.0,0.0,0.0,0.0,0.0,0.0,0.0,0.0,0.0,0.0,0.0,0.0,0.9819,0.9819,0.9819,0.9819,0.9819,0.9819,0.9819,0.9819,0.9819,0.9819,0.9819,0.9819,0.9819,0.9819,0.9819,0.9819,0.9819,0.9819,0.9819,0.9819,0.9819,0.9819,0.9819,0.9819,0.9819,0.9819,0.9819,0.9819,0.9819,0.9819,0.9819,0.9819,0.9819,0.9819,0.9819,0.9805,0.9788,0.9717,0.9632,0.95,0.9388,0.9361,0.9361,0.9367,0.9378,0.9381,0.9361,0.9283,0.9272,0.9191,0.9133,0.9093,0.9086,0.9096,0.9093,0.9093,0.9096,0.9089,0.9069,0.9062,0.9083,0.9157,0.9282,0.9266,0.9384,0.9351,0.9388,0.9646,0.9642,0.9696,0.9771,0.9808,0.9802,0.9798,0.9812,0.9819,0.9819,0.9819,0.9819,0.9808,0.9798,0.9805,0.9819,0.9819,0.9808,0.9795,0.939,0.8891,0.7721,0.6178,0.5104,0.3833,0.2408,0.1904,0.0,0.0,0.0,0.0,0.0,0.0,0.0,0.0,0.0,0.0,0.0,0.0,0.0,0.0,0.0,0.0,0.0,0.0,0.0,0.0,0.0,0.9819,0.9819,0.9819,0.9819,0.9819,0.9819,0.9819,0.9819,0.9819,0.9819,0.9819,0.9819,0.9819,0.9819,0.9819,0.9819,0.9819,0.9819,0.9819,0.9819,0.9819,0.9819,0.9819,0.9819,0.9819,0.9819,0.9819,0.9819,0.9819,0.9819,0.9819,0.9819,0.9819,0.9819,0.9819,0.9819,0.9771,0.971,0.9649,0.9571,0.9466,0.9425,0.9422,0.9412,0.9398,0.9384,0.9384,0.9378,0.9367,0.9364,0.931,0.9286,0.9269,0.9276,0.9273,0.9273,0.9276,0.9283,0.9289,0.9215,0.9286,0.931,0.9391,0.9449,0.9564,0.9459,0.9537,0.9741,0.9741,0.9768,0.9808,0.9819,0.9819,0.9819,0.9819,0.9819,0.9819,0.9819,0.9819,0.9819,0.9819,0.9819,0.9819,0.9819,0.9819,0.9808,0.9703,0.9199,0.8854,0.7645,0.6953,0.5696,0.3658,0.2691,0.2184,0.0,0.0,0.0,0.0,0.0,0.0,0.0,0.0,0.0,0.0,0.0,0.0,0.0,0.0,0.0,0.0,0.0,0.0,0.0,0.0,0.9819,0.9819,0.9819,0.9819,0.9819,0.9819,0.9819,0.9819,0.9819,0.9819,0.9819,0.9819,0.9819,0.9819,0.9819,0.9819,0.9819,0.9819,0.9819,0.9819,0.9819,0.9819,0.9819,0.9819,0.9819,0.9819,0.9819,0.9819,0.9819,0.9819,0.9819,0.9819,0.9819,0.9819,0.9819,0.9819,0.9781,0.9761,0.9734,0.9693,0.968,0.9649,0.9649,0.9649,0.9649,0.9649,0.9642,0.9564,0.9534,0.95,0.9442,0.9418,0.9412,0.9408,0.9408,0.9408,0.9412,0.9445,0.949,0.9398,0.9371,0.9503,0.9598,0.9669,0.972,0.9669,0.969,0.9791,0.9819,0.9819,0.9819,0.9819,0.9819,0.9819,0.9819,0.9819,0.9819,0.9819,0.9819,0.9819,0.9819,0.9819,0.9819,0.9819,0.9819,0.9808,0.9693,0.9525,0.9199,0.8878,0.8104,0.7344,0.5431,0.4257,0.3741,0.31,0.2353,0.1849,0.1345,0.1009,0.0617,0.0,0.0,0.0,0.0,0.0,0.0,0.0,0.0,0.0,0.0,0.0,0.0,0.0,0.0,0.9819,0.9819,0.9819,0.9819,0.9819,0.9819,0.9819,0.9819,0.9819,0.9819,0.9819,0.9819,0.9819,0.9819,0.9819,0.9819,0.9819,0.9819,0.9819,0.9819,0.9819,0.9819,0.9819,0.9819,0.9819,0.9819,0.9819,0.9819,0.9819,0.9819,0.9819,0.9819,0.9819,0.9819,0.9819,0.9819,0.9819,0.9819,0.9819,0.9819,0.9812,0.9805,0.9802,0.9798,0.9791,0.9788,0.9768,0.971,0.968,0.9646,0.9595,0.9534,0.9517,0.9513,0.9513,0.951,0.9523,0.9564,0.9605,0.9605,0.9564,0.9669,0.9734,0.9791,0.9819,0.9819,0.9802,0.9808,0.9819,0.9819,0.9819,0.9819,0.9819,0.9819,0.9819,0.9819,0.9819,0.9819,0.9819,0.9819,0.9819,0.9819,0.9819,0.9819,0.9819,0.9819,0.9774,0.97,0.9599,0.9268,0.8938,0.816,0.7098,0.6246,0.5584,0.4588,0.3711,0.3394,0.2826,0.208,0.1573,0.0842,0.0,0.0,0.0,0.0,0.0,0.0,0.0,0.0,0.0,0.0,0.0,0.0,0.0,0.9819,0.9819,0.9819,0.9819,0.9819,0.9819,0.9819,0.9819,0.9819,0.9819,0.9819,0.9819,0.9819,0.9819,0.9819,0.9819,0.9819,0.9819,0.9819,0.9819,0.9819,0.9819,0.9819,0.9819,0.9819,0.9819,0.9819,0.9819,0.9819,0.9819,0.9819,0.9819,0.9819,0.9819,0.9819,0.9819,0.9819,0.9819,0.9819,0.9819,0.9819,0.9819,0.9819,0.9819,0.9819,0.9819,0.9808,0.9798,0.9771,0.9758,0.9758,0.973,0.9737,0.9744,0.9751,0.9758,0.9768,0.9788,0.9802,0.9802,0.9785,0.9778,0.9808,0.9815,0.9819,0.9819,0.9819,0.9819,0.9819,0.9819,0.9819,0.9819,0.9819,0.9819,0.9819,0.9819,0.9819,0.9819,0.9819,0.9819,0.9819,0.9819,0.9819,0.9819,0.9819,0.9819,0.9819,0.9802,0.9768,0.9657,0.9374,0.9012,0.8231,0.7822,0.6965,0.5906,0.5118,0.4775,0.4338,0.3694,0.2712,0.186,0.0,0.0,0.0,0.0,0.0,0.0,0.0,0.0,0.0,0.0,0.0,0.0,0.0,0.9819,0.9819,0.9819,0.9819,0.9819,0.9819,0.9819,0.9819,0.9819,0.9819,0.9819,0.9819,0.9819,0.9819,0.9819,0.9819,0.9819,0.9819,0.9819,0.9819,0.9819,0.9819,0.9819,0.9819,0.9819,0.9819,0.9819,0.9819,0.9819,0.9819,0.9819,0.9819,0.9819,0.9819,0.9819,0.9819,0.9819,0.9819,0.9819,0.9819,0.9819,0.9819,0.9819,0.9819,0.9819,0.9819,0.9819,0.9819,0.9819,0.9819,0.9819,0.9819,0.9819,0.9819,0.9819,0.9819,0.9819,0.9819,0.9819,0.9815,0.9815,0.9819,0.9819,0.9819,0.9819,0.9819,0.9819,0.9819,0.9819,0.9819,0.9819,0.9819,0.9819,0.9819,0.9819,0.9819,0.9819,0.9819,0.9819,0.9819,0.9819,0.9819,0.9819,0.9819,0.9819,0.9819,0.9819,0.9819,0.9795,0.9798,0.962,0.958,0.9218,0.8972,0.839,0.7479,0.6725,0.6418,0.6029,0.5541,0.4472,0.3295,0.0,0.0,0.0,0.274,0.1958,0.0,0.0,0.0,0.0,0.0,0.0,0.0,0.0,0.9819,0.9819,0.9819,0.9819,0.9819,0.9819,0.9819,0.9819,0.9819,0.9819,0.9819,0.9819,0.9819,0.9819,0.9819,0.9819,0.9819,0.9819,0.9819,0.9819,0.9819,0.9819,0.9819,0.9819,0.9819,0.9819,0.9819,0.9819,0.9819,0.9819,0.9819,0.9819,0.9819,0.9819,0.9819,0.9819,0.9819,0.9819,0.9819,0.9819,0.9819,0.9819,0.9819,0.9819,0.9819,0.9819,0.9819,0.9819,0.9819,0.9819,0.9819,0.9819,0.9819,0.9819,0.9819,0.9819,0.9819,0.9819,0.9819,0.9819,0.9819,0.9819,0.9819,0.9819,0.9819,0.9819,0.9819,0.9819,0.9819,0.9819,0.9819,0.9819,0.9819,0.9819,0.9819,0.9819,0.9819,0.9819,0.9819,0.9819,0.9819,0.9819,0.9819,0.9819,0.9819,0.9819,0.9819,0.9819,0.9819,0.9819,0.9819,0.9724,0.9701,0.946,0.9354,0.9152,0.8548,0.8049,0.7599,0.7163,0.6256,0.5161,0.5062,0.4739,0.4156,0.3582,0.3131,0.0,0.0,0.0,0.0,0.0,0.0,0.0,0.0,0.9819,0.9819,0.9819,0.9819,0.9819,0.9819,0.9819,0.9819,0.9819,0.9819,0.9819,0.9819,0.9819,0.9819,0.9819,0.9819,0.9819,0.9819,0.9819,0.9819,0.9819,0.9819,0.9819,0.9819,0.9819,0.9819,0.9819,0.9819,0.9819,0.9819,0.9819,0.9819,0.9819,0.9819,0.9819,0.9819,0.9819,0.9819,0.9819,0.9819,0.9819,0.9819,0.9819,0.9819,0.9819,0.9819,0.9819,0.9819,0.9819,0.9819,0.9819,0.9819,0.9819,0.9819,0.9819,0.9819,0.9819,0.9819,0.9819,0.9819,0.9819,0.9819,0.9819,0.9819,0.9819,0.9819,0.9819,0.9819,0.9819,0.9819,0.9819,0.9819,0.9819,0.9819,0.9819,0.9819,0.9819,0.9819,0.9819,0.9819,0.9819,0.9819,0.9819,0.9819,0.9819,0.9819,0.9819,0.9819,0.9819,0.9819,0.9819,0.9819,0.9741,0.9808,0.9778,0.9734,0.952,0.8828,0.8938,0.8601,0.7708,0.702,0.6787,0.6211,0.5125,0.4536,0.4416,0.4078,0.0,0.3018,0.2348,0.0,0.0,0.0,0.0,0.9819,0.9819,0.9819,0.9819,0.9819,0.9819,0.9819,0.9819,0.9819,0.9819,0.9819,0.9819,0.9819,0.9819,0.9819,0.9819,0.9819,0.9819,0.9819,0.9819,0.9819,0.9819,0.9819,0.9819,0.9819,0.9819,0.9819,0.9819,0.9819,0.9819,0.9819,0.9819,0.9819,0.9819,0.9819,0.9819,0.9819,0.9819,0.9819,0.9819,0.9819,0.9819,0.9819,0.9819,0.9819,0.9819,0.9819,0.9819,0.9819,0.9819,0.9819,0.9819,0.9819,0.9819,0.9819,0.9819,0.9819,0.9819,0.9819,0.9819,0.9819,0.9819,0.9819,0.9819,0.9819,0.9819,0.9819,0.9819,0.9819,0.9819,0.9819,0.9819,0.9819,0.9819,0.9819,0.9819,0.9819,0.9819,0.9819,0.9819,0.9819,0.9819,0.9819,0.9819,0.9819,0.9819,0.9819,0.9819,0.9819,0.9819,0.9819,0.9819,0.9819,0.9819,0.9819,0.9785,0.9781,0.9643,0.9674,0.963,0.8975,0.8441,0.8338,0.7698,0.6669,0.6223,0.6035,0.5641,0.5081,0.4414,0.3744,0.2237,0.0,0.0,0.0,0.9819,0.9819,0.9819,0.9819,0.9819,0.9819,0.9819,0.9819,0.9819,0.9819,0.9819,0.9819,0.9819,0.9819,0.9819,0.9819,0.9819,0.9819,0.9819,0.9819,0.9819,0.9819,0.9819,0.9819,0.9819,0.9819,0.9819,0.9819,0.9819,0.9819,0.9819,0.9819,0.9819,0.9819,0.9819,0.9819,0.9819,0.9819,0.9819,0.9819,0.9819,0.9819,0.9819,0.9819,0.9819,0.9819,0.9819,0.9819,0.9819,0.9819,0.9819,0.9819,0.9819,0.9819,0.9819,0.9819,0.9819,0.9819,0.9819,0.9819,0.9819,0.9819,0.9819,0.9819,0.9819,0.9819,0.9819,0.9819,0.9819,0.9819,0.9819,0.9819,0.9819,0.9819,0.9819,0.9819,0.9819,0.9819,0.9819,0.9819,0.9819,0.9819,0.9819,0.9819,0.9819,0.9819,0.9819,0.9819,0.9819,0.9819,0.9819,0.9819,0.9819,0.9819,0.9819,0.9819,0.9812,0.9802,0.9734,0.9684,0.968,0.9432,0.891,0.8581,0.8205,0.7824,0.7404,0.7043,0.6533,0.5864,0.525,0.4246,0.3186,0.0,0.0,0.9819,0.9819,0.9819,0.9819,0.9819,0.9819,0.9819,0.9819,0.9819,0.9819,0.9819,0.9819,0.9819,0.9819,0.9819,0.9819,0.9819,0.9819,0.9819,0.9819,0.9819,0.9819,0.9819,0.9819,0.9819,0.9819,0.9819,0.9819,0.9819,0.9819,0.9819,0.9819,0.9819,0.9819,0.9819,0.9819,0.9819,0.9819,0.9819,0.9819,0.9819,0.9819,0.9819,0.9819,0.9819,0.9819,0.9819,0.9819,0.9819,0.9819,0.9819,0.9819,0.9819,0.9819,0.9819,0.9819,0.9819,0.9819,0.9819,0.9819,0.9819,0.9819,0.9819,0.9819,0.9819,0.9819,0.9819,0.9819,0.9819,0.9819,0.9819,1.0361,1.066,1.066,1.066,1.066,1.066,1.0361,0.9819,0.9819,0.9819,0.9819,0.9819,0.9819,0.9819,0.9819,0.9819,0.9819,0.9819,0.9819,0.9819,0.9819,0.9819,0.9819,0.9819,0.9819,0.9819,0.9819,0.9819,0.9812,0.9758,0.9598,0.9353,0.9083,0.8829,0.8861,0.8571,0.814,0.766,0.726,0.6644,0.6197,0.5528,0.4803,0.3968,0.9819,0.9819,0.9819,0.9819,0.9819,0.9819,0.9819,0.9819,0.9819,0.9819,0.9819,0.9819,0.9819,0.9819,0.9819,0.9819,0.9819,0.9819,0.9819,0.9819,0.9819,0.9819,0.9819,0.9819,0.9819,0.9819,0.9819,0.9819,0.9819,0.9819,0.9819,0.9819,0.9819,0.9819,0.9819,0.9819,0.9819,0.9819,0.9819,0.9819,0.9819,0.9819,0.9819,0.9819,0.9819,0.9819,0.9819,0.9819,0.9819,0.9819,0.9819,0.9819,0.9819,0.9879,0.9879,0.9819,1.0179,1.0301,1.0301,1.0361,1.0422,1.0122,1.0061,0.9879,0.9819,0.9819,0.9819,0.9819,0.9819,0.9819,1.0061,1.0838,1.1499,1.1499,1.1619,1.1619,1.1559,1.0781,1.0001,0.9819,0.9819,0.9819,0.9819,0.9819,0.9819,0.9819,0.9819,0.9819,0.9819,0.9819,0.9819,0.9819,0.9819,0.9819,0.9819,0.9819,0.9819,0.9819,0.9819,0.9819,0.9819,0.969,0.9544,0.952,0.9387,0.9276,0.9113,0.889,0.8464,0.8131,0.7986,0.7482,0.7648,0.7202,0.6031,0.9819,0.9819,0.9819,0.9819,0.9819,0.9819,0.9819,0.9819,0.9819,0.9819,0.9819,0.9819,0.9819,0.9819,0.9819,0.9819,0.9819,0.9819,0.9819,0.9819,0.9879,0.9819,0.9819,0.9819,0.9819,0.9819,0.9819,0.9819,0.9819,0.9819,0.9819,0.9819,0.9819,0.9819,0.9819,0.9819,0.9819,0.9819,0.9819,0.9819,0.9819,0.9819,0.9819,0.9819,0.9822,0.9819,0.9819,0.9819,0.9819,1.0119,1.0479,1.0899,1.1257,1.1796,1.2037,1.2097,1.2157,1.1916,1.186,1.174,1.1679,1.1619,1.186,1.2213,1.2153,1.2093,1.0657,1.0539,0.9879,0.9819,1.024,1.0899,1.1615,1.1916,1.2573,1.2993,1.2393,1.1555,1.06,0.9819,0.9819,0.9819,0.9819,0.9819,0.9819,0.9819,0.9819,0.9819,0.9819,0.9819,0.9819,0.9819,0.9819,0.9819,0.9819,0.9819,0.9819,0.9819,0.9819,0.9819,0.9815,0.9761,0.9696,0.9618,0.953,0.9415,0.9262,0.912,0.9059,0.8782,0.8719,0.8712,0.8937,0.8937,0.7817,0.9819,0.9819,0.9819,0.9819,0.9819,0.9819,0.9819,0.9819,1.0058,1.0001,1.0001,1.0361,1.024,0.9819,0.9819,0.9819,0.994,1.0418,1.0301,0.994,1.0183,1.0061,0.994,0.9819,0.9819,0.9819,0.9819,0.9819,0.9819,0.9819,0.9819,0.9819,0.9819,0.9819,0.9819,0.9819,0.9819,0.9819,0.9819,0.9819,0.9819,0.9819,0.9819,0.9822,1.0001,1.0061,1.0119,1.0361,1.0418,1.0959,1.1912,1.2273,1.2693,1.3347,1.3765,1.3889,1.383,1.3949,1.4128,1.3949,1.4128,1.4307,1.4604,1.4545,1.4302,1.3701,1.2269,1.1434,1.0838,1.0418,1.0838,1.1197,1.1912,1.2928,1.3765,1.4247,1.3347,1.2393,1.1318,1.024,1.0001,1.0001,0.9819,0.9819,0.9819,0.9819,0.9819,0.9819,0.9819,0.9819,0.9819,0.9819,0.9819,0.9819,0.9819,0.9819,0.9819,0.9819,0.9819,0.9819,0.9812,0.9781,0.973,0.9646,0.9557,0.949,0.9381,0.9242,0.9201,0.9214,0.9028,0.8885,0.8937,0.8937,0.8937,0.9819,0.9819,0.9819,0.9819,0.9819,0.9819,0.9819,0.9997,1.1201,1.1076,1.0838,1.2457,1.2517,0.9819,0.9819,0.994,1.0358,1.1076,1.0657,0.9997,1.1322,1.0838,1.0479,1.0778,1.0001,1.0119,1.0361,0.994,1.0721,1.0361,0.994,1.0119,0.994,0.9879,0.9879,0.9819,0.9819,0.9819,0.9819,0.9819,0.9819,0.9819,0.9819,1.024,1.108,1.1438,1.2037,1.3053,1.3471,1.383,1.3885,1.4063,1.4421,1.4782,1.5138,1.5435,1.5316,1.5316,1.5375,1.5375,1.5435,1.5316,1.5375,1.5257,1.5316,1.5725,1.4594,1.3999,1.3287,1.2273,1.2393,1.2333,1.2928,1.4416,1.5553,1.5252,1.4653,1.3462,1.2333,1.1378,1.066,1.0301,0.9819,0.9819,0.9819,0.9819,0.9819,0.9819,0.9819,0.9819,0.9819,0.9819,0.9819,0.9819,0.9819,0.9819,0.9819,0.9819,0.9819,0.9819,0.9819,0.9819,0.9764,0.9707,0.9652,0.9595,0.9476,0.9391,0.9283,0.9272,0.9042,0.8885,0.8947,0.8937,0.8937]}]]